[[{"header":{"parameterUnit":"m.s-1","parameterCategory":1,"la1":30.6,"la2":29.2853,"lo1":-89.7004,"lo2":-87.6739,"dy":0.0162,"dx":0.0183,"nx":112,"ny":82,"refTime":"2024-04-26T00:00:00:Z","depth":0,"parameterNumber":2,"parameterNumberName":"U-component_of_WINDS"},"data":[0.0,0.0,0.0,0.0,0.0,0.0,0.0,0.0,0.0,0.0,0.0,0.0,0.0,0.0,0.0,0.0,0.0,0.0,0.0,0.0,0.0,0.0,0.0,0.0,0.0,0.0,0.0,0.0,0.0,0.0,0.0,0.0,0.0,0.0,0.0,0.0,0.0,0.0,0.0,0.0,0.0,0.0,0.0,0.0,0.0,0.0,0.0,0.0,0.0,0.0,0.0,0.0,0.0,0.0,0.0,0.0,0.0,0.0,0.0,0.0,0.0,0.0,0.0,0.0,0.0,0.0,0.0,0.0,0.0,0.0,0.0,0.0,0.0,0.0,0.0,0.0,0.0,0.0,0.0,0.0,0.0,0.0,0.0,0.0,0.0,0.0,0.0,0.0,0.0,0.0,-6.7764,-6.9313,-7.3457,-7.5895,-7.55,-7.3186,-7.0359,-6.7098,0.0,0.0,0.0,0.0,0.0,0.0,0.0,0.0,0.0,0.0,0.0,0.0,0.0,0.0,0.0,0.0,0.0,0.0,0.0,0.0,0.0,0.0,0.0,0.0,0.0,0.0,0.0,0.0,0.0,0.0,0.0,0.0,0.0,0.0,0.0,0.0,0.0,0.0,0.0,0.0,0.0,0.0,0.0,0.0,0.0,0.0,0.0,0.0,0.0,0.0,0.0,0.0,0.0,0.0,0.0,0.0,0.0,0.0,0.0,0.0,0.0,0.0,0.0,0.0,0.0,0.0,0.0,0.0,0.0,0.0,0.0,0.0,0.0,0.0,0.0,0.0,0.0,0.0,0.0,0.0,0.0,0.0,0.0,0.0,0.0,0.0,0.0,0.0,0.0,0.0,0.0,0.0,0.0,0.0,0.0,0.0,0.0,0.0,0.0,0.0,0.0,0.0,0.0,0.0,-6.6427,-7.1569,-7.4085,-7.5248,-7.4897,-7.2292,-6.9526,-6.7005,0.0,0.0,0.0,0.0,0.0,0.0,0.0,0.0,0.0,0.0,0.0,0.0,0.0,0.0,0.0,0.0,0.0,0.0,0.0,0.0,0.0,0.0,0.0,0.0,0.0,0.0,0.0,0.0,0.0,0.0,0.0,0.0,0.0,0.0,0.0,0.0,0.0,0.0,0.0,0.0,0.0,0.0,0.0,0.0,0.0,0.0,0.0,0.0,0.0,0.0,0.0,0.0,0.0,0.0,0.0,0.0,0.0,0.0,0.0,0.0,0.0,0.0,0.0,0.0,0.0,0.0,0.0,0.0,0.0,0.0,0.0,0.0,0.0,0.0,0.0,0.0,0.0,0.0,0.0,0.0,0.0,0.0,0.0,0.0,0.0,0.0,0.0,0.0,0.0,0.0,0.0,0.0,0.0,0.0,0.0,0.0,0.0,0.0,0.0,0.0,0.0,0.0,0.0,-6.4953,-6.7376,-7.1348,-7.3019,-7.366,-7.3169,-7.0802,-6.8071,-6.5078,-6.2413,0.0,0.0,0.0,0.0,0.0,0.0,0.0,0.0,0.0,0.0,0.0,0.0,0.0,0.0,0.0,0.0,0.0,0.0,0.0,0.0,0.0,0.0,0.0,0.0,0.0,0.0,0.0,0.0,0.0,0.0,0.0,0.0,0.0,0.0,0.0,0.0,0.0,0.0,0.0,0.0,0.0,0.0,0.0,0.0,0.0,0.0,0.0,0.0,0.0,0.0,0.0,0.0,0.0,0.0,0.0,0.0,0.0,0.0,0.0,0.0,0.0,0.0,0.0,0.0,0.0,0.0,0.0,0.0,0.0,0.0,0.0,0.0,0.0,0.0,0.0,0.0,0.0,0.0,0.0,0.0,0.0,0.0,0.0,0.0,0.0,0.0,0.0,0.0,0.0,0.0,0.0,0.0,0.0,0.0,0.0,0.0,0.0,0.0,0.0,0.0,0.0,0.0,-6.5645,-6.8387,-7.0567,-7.1625,-7.1982,-7.1395,-6.9177,-6.6507,-6.3185,-6.0608,0.0,0.0,0.0,0.0,0.0,0.0,0.0,0.0,0.0,0.0,0.0,0.0,0.0,0.0,0.0,0.0,0.0,0.0,0.0,0.0,0.0,0.0,0.0,0.0,0.0,0.0,0.0,0.0,0.0,0.0,0.0,0.0,0.0,0.0,0.0,0.0,0.0,0.0,0.0,0.0,0.0,0.0,0.0,0.0,0.0,0.0,0.0,0.0,0.0,0.0,0.0,0.0,0.0,0.0,0.0,0.0,0.0,0.0,0.0,0.0,0.0,0.0,0.0,0.0,0.0,0.0,0.0,0.0,0.0,0.0,0.0,0.0,0.0,0.0,0.0,0.0,0.0,0.0,0.0,0.0,0.0,0.0,0.0,0.0,0.0,0.0,0.0,0.0,0.0,0.0,0.0,0.0,0.0,0.0,0.0,0.0,0.0,0.0,0.0,0.0,0.0,0.0,-6.5695,-6.841,-7.021,-7.0823,-7.0949,-7.0396,-6.7832,-6.5066,-6.225,-5.9485,0.0,0.0,0.0,0.0,0.0,0.0,0.0,0.0,0.0,0.0,0.0,0.0,0.0,0.0,0.0,0.0,0.0,0.0,0.0,0.0,0.0,0.0,0.0,0.0,0.0,0.0,0.0,0.0,0.0,0.0,0.0,0.0,0.0,0.0,0.0,0.0,0.0,0.0,0.0,0.0,0.0,0.0,0.0,0.0,0.0,0.0,0.0,0.0,0.0,0.0,0.0,0.0,0.0,0.0,0.0,0.0,0.0,0.0,0.0,0.0,0.0,0.0,0.0,0.0,0.0,0.0,0.0,0.0,0.0,0.0,0.0,0.0,0.0,0.0,0.0,0.0,0.0,0.0,0.0,0.0,0.0,0.0,0.0,0.0,0.0,0.0,0.0,0.0,0.0,0.0,0.0,0.0,0.0,0.0,0.0,0.0,0.0,0.0,0.0,0.0,0.0,0.0,-6.5735,-6.8296,-6.9602,-7.0556,-7.0581,-6.9351,-6.7317,-6.4781,-6.1692,0.0,0.0,0.0,0.0,0.0,0.0,0.0,0.0,0.0,0.0,0.0,0.0,0.0,0.0,0.0,0.0,0.0,0.0,0.0,0.0,0.0,0.0,0.0,0.0,0.0,0.0,0.0,0.0,0.0,0.0,0.0,0.0,0.0,0.0,0.0,0.0,0.0,0.0,0.0,0.0,0.0,0.0,0.0,0.0,0.0,0.0,0.0,0.0,0.0,0.0,0.0,0.0,0.0,0.0,0.0,0.0,0.0,0.0,0.0,0.0,0.0,0.0,0.0,0.0,0.0,0.0,0.0,0.0,0.0,0.0,0.0,0.0,0.0,0.0,0.0,0.0,0.0,0.0,0.0,0.0,0.0,0.0,0.0,0.0,0.0,0.0,0.0,0.0,0.0,0.0,0.0,0.0,0.0,0.0,0.0,0.0,0.0,0.0,0.0,0.0,0.0,0.0,-6.3048,-6.581,-6.8095,-6.9551,-7.038,-7.0229,-6.8748,-6.7091,-6.4705,-6.1391,0.0,0.0,0.0,0.0,0.0,0.0,0.0,0.0,0.0,0.0,0.0,0.0,0.0,0.0,0.0,0.0,0.0,0.0,0.0,0.0,0.0,0.0,0.0,0.0,0.0,0.0,0.0,0.0,0.0,0.0,0.0,0.0,0.0,0.0,0.0,0.0,0.0,0.0,0.0,0.0,0.0,0.0,0.0,0.0,0.0,0.0,0.0,0.0,0.0,0.0,0.0,0.0,0.0,0.0,0.0,0.0,0.0,0.0,0.0,0.0,0.0,0.0,0.0,0.0,0.0,0.0,0.0,0.0,0.0,0.0,0.0,0.0,0.0,0.0,0.0,0.0,0.0,0.0,0.0,0.0,0.0,0.0,0.0,0.0,0.0,0.0,0.0,0.0,0.0,0.0,0.0,0.0,0.0,0.0,0.0,0.0,0.0,0.0,0.0,0.0,0.0,0.0,-6.4178,-6.5936,-6.7819,-7.0003,-7.0255,-6.9803,-6.8698,-6.7066,-6.4705,0.0,0.0,0.0,0.0,0.0,0.0,0.0,0.0,0.0,0.0,0.0,0.0,0.0,0.0,0.0,0.0,0.0,0.0,0.0,0.0,0.0,0.0,0.0,0.0,0.0,0.0,0.0,0.0,0.0,0.0,0.0,0.0,0.0,0.0,0.0,0.0,0.0,0.0,0.0,0.0,0.0,0.0,0.0,0.0,0.0,0.0,0.0,0.0,0.0,0.0,0.0,0.0,0.0,0.0,0.0,0.0,0.0,0.0,0.0,0.0,0.0,0.0,0.0,0.0,0.0,0.0,0.0,0.0,0.0,0.0,0.0,0.0,0.0,0.0,0.0,0.0,0.0,0.0,0.0,0.0,0.0,0.0,0.0,0.0,0.0,0.0,0.0,0.0,0.0,0.0,0.0,0.0,0.0,0.0,0.0,0.0,0.0,0.0,0.0,0.0,0.0,0.0,0.0,-6.4078,-6.5936,-6.7668,-6.9501,-7.0029,-6.9652,-6.817,-6.6865,-6.4705,-6.1391,0.0,0.0,0.0,0.0,0.0,0.0,0.0,0.0,0.0,0.0,0.0,0.0,0.0,0.0,0.0,0.0,0.0,0.0,0.0,0.0,0.0,0.0,0.0,0.0,0.0,0.0,0.0,0.0,0.0,0.0,0.0,0.0,0.0,0.0,0.0,0.0,0.0,0.0,0.0,0.0,0.0,0.0,0.0,0.0,0.0,0.0,0.0,0.0,0.0,0.0,0.0,0.0,0.0,0.0,0.0,0.0,0.0,0.0,0.0,0.0,0.0,0.0,0.0,0.0,0.0,0.0,0.0,0.0,0.0,0.0,0.0,0.0,0.0,0.0,0.0,0.0,0.0,0.0,0.0,0.0,0.0,0.0,0.0,0.0,0.0,0.0,0.0,0.0,0.0,0.0,0.0,0.0,0.0,0.0,0.0,0.0,0.0,0.0,0.0,0.0,0.0,0.0,-6.4078,-6.5735,-6.7342,-6.925,-6.9727,-6.9351,-6.7919,-6.6564,-6.4479,-6.1366,0.0,0.0,0.0,0.0,0.0,0.0,0.0,0.0,0.0,0.0,0.0,0.0,0.0,0.0,0.0,0.0,0.0,0.0,0.0,0.0,0.0,0.0,0.0,0.0,0.0,0.0,0.0,0.0,0.0,0.0,0.0,0.0,0.0,0.0,0.0,0.0,0.0,0.0,0.0,0.0,0.0,0.0,0.0,0.0,0.0,0.0,0.0,0.0,0.0,0.0,0.0,0.0,0.0,0.0,0.0,0.0,0.0,0.0,0.0,0.0,0.0,0.0,0.0,0.0,0.0,0.0,0.0,0.0,0.0,0.0,0.0,0.0,0.0,0.0,0.0,0.0,0.0,0.0,0.0,0.0,0.0,0.0,0.0,0.0,0.0,0.0,0.0,0.0,0.0,0.0,0.0,0.0,0.0,0.0,0.0,0.0,0.0,0.0,0.0,0.0,0.0,0.0,-6.3977,-6.5358,-6.694,-6.9035,-6.9401,-6.8999,-6.7894,-6.6312,-6.4178,-6.1366,0.0,0.0,0.0,0.0,0.0,0.0,0.0,0.0,0.0,0.0,0.0,0.0,0.0,0.0,0.0,0.0,0.0,0.0,0.0,0.0,0.0,0.0,0.0,0.0,0.0,0.0,0.0,0.0,0.0,0.0,0.0,0.0,0.0,0.0,0.0,0.0,0.0,0.0,0.0,0.0,0.0,0.0,0.0,0.0,0.0,0.0,0.0,0.0,0.0,0.0,0.0,0.0,0.0,0.0,0.0,0.0,0.0,0.0,0.0,0.0,-6.4856,-6.4705,0.0,0.0,0.0,0.0,0.0,0.0,0.0,0.0,0.0,0.0,0.0,0.0,0.0,0.0,0.0,0.0,0.0,0.0,0.0,0.0,0.0,0.0,0.0,0.0,0.0,0.0,0.0,0.0,0.0,0.0,0.0,0.0,0.0,0.0,0.0,0.0,0.0,0.0,0.0,0.0,-6.2873,-6.4906,-6.6815,-6.8597,-6.92,-6.8999,-6.7894,-6.6664,-6.458,-6.1391,-5.9408,0.0,0.0,0.0,0.0,0.0,0.0,0.0,0.0,0.0,0.0,0.0,0.0,0.0,0.0,0.0,0.0,0.0,0.0,0.0,0.0,0.0,0.0,0.0,0.0,0.0,0.0,0.0,0.0,0.0,0.0,0.0,0.0,0.0,0.0,0.0,0.0,0.0,0.0,0.0,0.0,0.0,0.0,0.0,0.0,0.0,0.0,0.0,0.0,0.0,0.0,0.0,0.0,0.0,0.0,0.0,0.0,0.0,0.0,0.0,-6.586,-6.5283,0.0,0.0,0.0,0.0,0.0,0.0,0.0,0.0,0.0,0.0,0.0,0.0,0.0,0.0,0.0,0.0,0.0,0.0,0.0,0.0,0.0,0.0,0.0,0.0,0.0,0.0,0.0,0.0,0.0,0.0,0.0,0.0,0.0,0.0,0.0,0.0,0.0,0.0,0.0,0.0,-6.2546,-6.4756,-6.6764,-6.8447,-6.9125,-6.8999,-6.7894,-6.6513,-6.453,-6.1743,-5.9533,0.0,0.0,0.0,0.0,0.0,0.0,0.0,0.0,0.0,0.0,0.0,0.0,0.0,0.0,0.0,0.0,0.0,0.0,0.0,0.0,0.0,0.0,0.0,0.0,0.0,0.0,0.0,0.0,0.0,0.0,0.0,0.0,0.0,0.0,0.0,0.0,0.0,0.0,0.0,0.0,0.0,0.0,0.0,0.0,0.0,0.0,0.0,0.0,0.0,0.0,0.0,0.0,0.0,-7.0255,-7.033,-6.9652,-7.0104,-7.0054,-6.9551,-6.817,-6.6915,-6.586,-6.566,0.0,0.0,0.0,0.0,0.0,0.0,0.0,0.0,0.0,0.0,0.0,0.0,0.0,0.0,0.0,0.0,0.0,0.0,0.0,0.0,0.0,0.0,-6.5118,-6.5218,-6.4552,-6.3924,-6.408,0.0,0.0,0.0,0.0,0.0,0.0,0.0,0.0,0.0,0.0,0.0,-6.2421,-6.468,-6.6714,-6.8296,-6.8974,-6.8899,-6.7869,-6.6176,-6.4295,-6.2214,-5.9578,-5.75,0.0,0.0,0.0,0.0,0.0,0.0,0.0,0.0,0.0,0.0,0.0,0.0,0.0,0.0,0.0,0.0,0.0,0.0,0.0,0.0,0.0,0.0,0.0,0.0,0.0,0.0,0.0,0.0,0.0,0.0,0.0,0.0,-6.5205,-6.5714,0.0,0.0,0.0,0.0,0.0,0.0,0.0,0.0,0.0,0.0,0.0,0.0,0.0,-6.9351,-6.9828,-7.0455,-7.1234,-7.2188,-7.2364,-7.2866,-7.3644,-7.372,-7.372,-7.3644,-7.3418,0.0,-6.8095,-6.7141,0.0,0.0,0.0,0.0,0.0,0.0,0.0,0.0,0.0,0.0,0.0,0.0,0.0,0.0,0.0,0.0,0.0,0.0,0.0,0.0,0.0,0.0,-6.429,-6.4753,-6.4449,-6.3812,-6.2912,-6.2713,-6.2115,-6.0489,-5.9724,-5.8995,0.0,0.0,0.0,0.0,0.0,0.0,-6.1893,-6.4454,-6.6564,-6.7769,-6.8396,-6.8472,-6.7844,-6.5917,-6.3965,-6.2249,-6.0162,-5.7868,-5.5451,-5.4694,0.0,0.0,0.0,0.0,0.0,0.0,0.0,0.0,0.0,0.0,0.0,0.0,0.0,0.0,0.0,0.0,0.0,0.0,0.0,0.0,0.0,0.0,0.0,0.0,0.0,0.0,0.0,0.0,0.0,-6.4986,-6.5219,-6.5804,-6.5485,-6.5158,0.0,0.0,0.0,0.0,0.0,0.0,0.0,0.0,0.0,-6.9175,-7.0556,-7.156,-7.2138,-7.3293,-7.4121,-7.4598,-7.5552,-7.6105,-7.6281,-7.6582,-7.6557,-7.6256,-7.5929,-7.4649,-7.264,-7.0581,-6.8874,-6.7442,0.0,0.0,0.0,0.0,-6.4931,-6.4931,-6.4678,-6.4593,-6.4459,-6.4005,0.0,0.0,0.0,0.0,0.0,0.0,0.0,-6.0766,-6.1748,-6.2623,-6.3314,-6.3863,-6.3619,-6.2952,-6.1949,-6.1422,-6.0932,-5.981,-5.894,-5.8016,-5.6809,-5.6155,0.0,0.0,0.0,-5.8747,-6.0636,-6.3038,-6.5025,-6.6402,-6.7022,-6.7032,-6.6197,-6.4764,-6.3093,-6.1159,-5.9152,-5.7213,-5.5414,-5.3832,-5.2396,0.0,0.0,0.0,0.0,0.0,0.0,0.0,0.0,0.0,0.0,0.0,0.0,0.0,0.0,0.0,0.0,0.0,0.0,0.0,0.0,0.0,0.0,0.0,0.0,0.0,0.0,0.0,0.0,-6.5282,-6.5765,-6.6778,-6.6409,-6.6187,0.0,0.0,0.0,0.0,0.0,0.0,-6.8648,-6.9978,-7.1083,-7.1937,-7.3293,-7.4272,-7.4849,-7.6205,-7.6984,-7.7134,-7.8365,-7.8817,-7.8566,-7.8967,-7.8942,-7.8515,-7.7963,-7.7411,-7.6657,-7.3594,-7.1284,-6.9602,-6.8748,-6.758,-6.6365,-6.6065,-6.5792,-6.5508,-6.5013,-6.4703,-6.4307,-6.369,-6.2519,-6.1256,-6.0978,0.0,0.0,0.0,0.0,-5.9801,-6.054,-6.1416,-6.2087,-6.248,-6.2201,-6.1599,-6.0547,-5.9793,-5.9181,-5.889,-5.8103,-5.7161,-5.5977,-5.5366,0.0,-5.4855,-5.6008,-5.7548,-5.9605,-6.1521,-6.3264,-6.4683,-6.5259,-6.508,-6.4101,-6.2889,-6.1446,-5.9742,-5.7629,-5.5882,-5.4776,-5.2592,-5.1008,-5.0026,0.0,0.0,0.0,0.0,0.0,0.0,0.0,0.0,0.0,0.0,0.0,0.0,0.0,0.0,0.0,0.0,0.0,0.0,0.0,0.0,0.0,0.0,0.0,0.0,0.0,0.0,0.0,0.0,0.0,-6.8974,-6.8773,0.0,0.0,0.0,0.0,-6.915,-6.9777,-7.1033,-7.3142,-7.3845,-7.49,-7.6482,-7.7134,-7.7712,-7.8264,-7.8892,-7.9495,-7.9997,-8.0097,-8.0398,-8.0876,-8.0901,-8.0901,-8.0825,-8.0273,-7.9721,-7.8917,-7.5101,-7.3117,-7.2364,-7.0757,-6.9805,-6.9173,-6.813,-6.7193,-6.6306,-6.577,-6.4855,-6.3872,-6.285,-6.0853,-5.878,-5.8865,-5.7878,0.0,0.0,-5.7242,-5.7705,-5.8119,-5.9367,-6.0527,-6.0431,-6.0048,-5.9458,-5.8595,-5.7225,-5.6484,-5.7269,-5.6987,-5.6329,-5.5149,0.0,-5.4427,-5.5352,-5.602,-5.7208,-5.928,-6.048,-6.1629,-6.2756,-6.2898,-6.2709,-6.21,-6.0291,-5.8863,-5.831,-5.5983,-5.4012,-5.2634,-5.1125,-4.93,-4.7047,-4.6613,0.0,0.0,0.0,0.0,0.0,0.0,0.0,0.0,0.0,0.0,0.0,0.0,0.0,0.0,0.0,0.0,0.0,0.0,0.0,0.0,0.0,0.0,0.0,0.0,0.0,0.0,0.0,0.0,-7.1259,-7.1711,0.0,-7.3092,-7.2816,-7.274,-7.3142,-7.4021,-7.5025,-7.618,-7.7109,-7.8214,-7.952,-8.0072,-8.0624,-8.1202,-8.1403,-8.1604,-8.1805,-8.1805,-8.1905,-8.2081,-8.2081,-8.2081,-8.2056,-8.1079,-8.0399,-7.975,-7.7246,-7.546,-7.4247,-7.3318,-7.1756,-6.9901,-6.9227,-6.8001,-6.6733,-6.589,-6.4671,-6.3152,-6.0914,-5.9249,-5.8165,-5.7625,-5.6665,-5.5903,-5.6509,-5.6636,-5.6795,-5.7793,-5.8492,-5.8945,-5.9247,-5.9235,-5.8825,-5.786,-5.724,-5.6641,-5.5738,-5.518,-5.4607,-5.386,-5.3343,-5.3097,-5.342,-5.3952,-5.5019,-5.7033,-5.7847,-5.8841,-6.0091,-6.0,-5.9658,-5.9091,-5.7828,-5.6509,-5.5115,-5.3583,-5.2025,-5.04,-4.8882,-4.7419,-4.5744,-4.5267,-4.4505,0.0,0.0,0.0,0.0,0.0,0.0,0.0,0.0,0.0,0.0,0.0,0.0,0.0,0.0,0.0,0.0,0.0,0.0,0.0,0.0,0.0,0.0,0.0,0.0,0.0,-6.8999,-7.1384,-7.4347,-7.5352,-7.618,-7.7109,-7.7034,-7.6908,-7.6908,-7.7762,-7.8591,-7.9344,-8.0273,-8.1202,-8.2106,-8.2483,-8.2834,-8.3236,-8.3236,-8.3236,-8.3236,-8.3236,-8.3102,-8.2886,-8.2711,-8.2394,-8.2019,-8.0645,-7.9731,-7.8861,-7.7385,-7.5882,-7.4508,-7.4219,-7.2787,-7.071,-6.95,-6.7822,-6.6099,-6.4431,-6.3061,-6.1637,-5.9312,-5.816,-5.753,-5.6897,-5.617,-5.565,-5.6269,-5.6295,-5.6378,-5.7402,-5.7641,-5.7831,-5.8147,-5.8105,-5.7887,-5.7086,-5.6811,-5.62,-5.4491,-5.4123,-5.3873,-5.3017,-5.2671,-5.2455,-5.2455,-5.2715,-5.3451,-5.5065,-5.5592,-5.6297,-5.7361,-5.7255,-5.683,-5.636,-5.5278,-5.4005,-5.2474,-5.098,-4.9521,-4.8008,-4.6631,-4.535,-4.4241,-4.3577,-4.2913,-4.2169,0.0,0.0,0.0,0.0,0.0,0.0,0.0,0.0,0.0,0.0,0.0,0.0,0.0,0.0,0.0,0.0,0.0,0.0,0.0,0.0,0.0,0.0,0.0,-6.9501,-7.1987,-7.4975,-7.8264,-7.967,-8.0574,-8.1127,-8.07,-8.0373,-8.0373,-8.085,-8.1629,-8.2683,-8.3261,-8.3788,-8.4341,-8.4391,-8.4391,-8.4391,-8.4341,-8.4315,-8.4256,-8.429,-8.3986,-8.3275,-8.2754,-8.1823,-8.0708,-7.9043,-7.7691,-7.6485,-7.5464,-7.4408,-7.3323,-7.347,-7.2947,-7.1618,-6.8932,-6.657,-6.4359,-6.1299,-5.9924,-5.9395,-5.8391,-5.7409,-5.6687,-5.6666,-5.6284,-5.5901,-5.5922,-5.628,-5.6573,-5.6594,-5.6904,-5.7235,-5.7235,-5.6883,-5.6428,-5.5973,-5.5517,-5.4793,-5.3447,-5.3898,-5.4075,-5.2694,-5.2461,-5.2461,-5.2461,-5.2461,0.0,-5.3783,-5.3911,-5.4081,-5.4591,-5.4634,-5.4421,-5.3841,-5.2653,-5.1446,-5.0425,-4.8347,-4.6626,-4.5619,-4.439,-4.3356,-4.2422,-4.1601,-4.0976,-4.0547,0.0,0.0,0.0,0.0,0.0,0.0,0.0,0.0,0.0,0.0,0.0,0.0,0.0,0.0,0.0,0.0,0.0,0.0,0.0,0.0,0.0,-6.9903,-7.1811,-7.2364,-7.5176,-7.8264,-8.1177,-8.2859,-8.3989,-8.4567,-8.4491,-8.424,-8.3813,-8.3914,-8.414,-8.4466,-8.4592,-8.4968,-8.5496,-8.5571,-8.5571,-8.5571,-8.5144,-8.4697,-8.4204,-8.3388,-8.2635,-8.2079,-8.0603,-7.9828,-7.9421,-7.7695,-7.6117,-7.4643,-7.4011,-7.2753,-7.149,-7.2583,-7.2002,-7.0457,-6.862,-6.618,-6.331,-6.0602,-5.9549,-5.9153,-5.752,-5.6878,-5.6509,-5.6175,-5.5974,-5.596,-5.6293,-5.6464,-5.6635,-5.6966,-5.7132,-5.7235,-5.7235,-5.6883,-5.6428,-5.5973,-5.5517,-5.4793,-5.3447,-5.3456,-5.3215,-5.2152,-5.1965,-5.1965,-5.1965,-5.1965,-5.2173,-5.2778,-5.284,-5.3028,-5.36,-5.3328,-5.2894,-5.2362,-5.1367,-5.0045,-4.8036,-4.7141,-4.5783,-4.3899,-4.3507,-4.2896,-4.1992,-4.1445,-4.1113,0.0,0.0,0.0,0.0,0.0,0.0,0.0,0.0,0.0,0.0,0.0,0.0,0.0,0.0,0.0,0.0,0.0,0.0,0.0,0.0,0.0,0.0,-7.2514,-7.5151,-7.7109,-7.9043,-8.1277,-8.4089,-8.5671,-8.6676,-8.7002,-8.7027,-8.6776,-8.6224,-8.5973,-8.5822,-8.5822,-8.5646,-8.5646,-8.5998,-8.5998,-8.5998,-8.5998,-8.5423,-8.4777,-8.4105,-8.2998,-8.1949,-8.1017,-7.9095,-7.7946,-7.7352,-7.5358,-7.3587,-7.2167,-7.1539,-7.0445,-6.9317,0.0,0.0,0.0,0.0,-6.417,-6.2021,-6.0066,-5.9302,-5.9114,-5.7625,-5.7132,-5.7049,-5.6594,-5.6449,-5.649,-5.6759,-5.6842,-5.6904,-5.7152,-5.7235,-5.7235,-5.7235,-5.6738,-5.62,-5.5931,-5.5372,-5.4565,-5.3406,-5.2992,0.0,-5.1684,-5.1701,-5.1701,-5.152,-5.152,-5.1532,-5.1616,-5.1566,-5.1668,-5.1934,-5.1709,-5.1454,-5.1179,-5.0166,0.0,0.0,0.0,-4.467,-4.2617,-4.2363,0.0,0.0,0.0,-4.1074,-4.0898,-4.0898,0.0,0.0,-4.0703,-4.0937,0.0,0.0,0.0,0.0,0.0,0.0,0.0,0.0,0.0,0.0,0.0,0.0,0.0,0.0,0.0,0.0,-7.5251,-7.8741,-8.2508,-8.3211,-8.4265,-8.6776,-8.8032,-8.8634,-8.8634,-8.8634,-8.8383,-8.7755,-8.7178,-8.6851,-8.6776,-8.6274,0.0,0.0,0.0,-8.5998,-8.5911,-8.5275,-8.4624,-8.3757,-8.2478,-8.1211,-7.9839,-7.7538,-7.5919,-7.4684,-7.2637,-7.086,-6.9395,-6.8786,-6.7888,-6.6952,-6.7758,-6.7735,-6.669,-6.3419,-6.16,-6.0615,-5.9658,0.0,0.0,-5.8291,-5.796,-5.7836,-5.7422,-5.7277,-5.7235,-5.7235,-5.7235,-5.7235,-5.7235,-5.7235,-5.7215,-5.7173,-5.649,-5.5869,-5.5807,-5.5145,-5.4255,-5.3271,-5.2693,-5.2107,-5.1209,-5.1338,-5.152,-5.1066,-5.0975,-5.0884,-5.0337,-5.0337,-5.0337,-5.0337,-5.0337,0.0,-5.0245,-4.9082,-4.7938,-4.6979,-4.5274,-4.3535,-4.1933,-4.1504,-4.1308,-4.1308,-4.1308,-4.1133,-4.0742,-4.0742,-4.0742,-4.0742,-4.0996,-4.1133,0.0,0.0,0.0,0.0,0.0,0.0,0.0,0.0,0.0,0.0,0.0,0.0,0.0,0.0,0.0,-7.5452,-7.8691,-8.1905,-8.4918,-8.6525,-8.7705,-8.8684,-8.9362,-8.9789,-8.9789,-8.9789,-8.9362,-8.8383,-8.778,-8.7253,-8.6776,-8.6274,-8.5998,-8.5998,-8.5998,-8.5774,-8.5325,-8.4575,-8.3441,-8.1927,-8.0166,0.0,-7.6753,-7.4399,-7.2948,-7.232,-7.06,-6.9196,-6.8013,-6.7591,-6.6323,-6.4763,-6.591,-6.5324,-6.374,-6.2634,-6.16,-6.0615,-5.9658,-5.9305,-5.9202,-5.8664,-5.8229,-5.7898,-5.7815,-5.7525,0.0,-5.7235,-5.7235,-5.7235,-5.7235,-5.7235,-5.7132,-5.678,-5.6283,-5.5766,-5.5393,-5.4896,-5.4065,-5.2763,-5.2486,-5.2014,-5.0661,-5.0519,-5.0519,-5.0428,-5.0428,-5.0428,-5.0337,-5.0337,-5.0337,-5.0337,-5.0337,-5.0154,-4.9787,-4.8901,-4.7761,-4.6523,-4.4517,-4.3027,-4.2344,-4.2226,-4.2187,-4.2187,-4.2187,-4.2148,-4.2051,-4.2051,-4.2051,-4.2031,-4.1094,-4.084,0.0,0.0,0.0,0.0,0.0,0.0,0.0,0.0,0.0,0.0,0.0,-6.8798,-7.0757,0.0,-7.5728,-7.8515,-8.1277,-8.4064,-8.6851,-8.8182,-8.9061,-8.9613,-9.0191,-9.0417,-9.0116,-9.0116,-8.9789,-8.8961,-8.8107,-8.7504,-8.7203,-8.6425,-8.5998,-8.5998,-8.5998,-8.5525,-8.4575,-8.3644,-8.2133,-7.9956,-7.7956,-7.6261,-7.4484,-7.2353,-7.1143,-7.0654,-6.9152,-6.8053,-6.7202,-6.6264,-6.5213,-6.4137,-6.4485,-6.3615,-6.2082,-6.1868,-6.1178,-6.0365,-5.9823,-5.9636,-5.9574,-5.9098,-5.8643,-5.8229,-5.798,-5.7587,-5.7235,-5.7235,-5.7235,-5.7235,-5.7235,-5.7235,-5.7111,-5.6676,-5.6221,-5.5745,-5.5289,-5.4668,-5.3797,-5.2629,-5.2043,-5.1307,-5.0182,-4.9787,-4.9696,-4.9879,-4.9971,-4.9879,-4.9604,-4.9604,-4.9604,-4.9604,-4.9604,-4.9512,-4.9236,-4.8429,-4.7494,-4.6348,-4.4883,-4.3867,-4.3437,-4.3183,-4.2969,-4.2754,-4.2754,-4.2637,-4.2422,-4.2422,-4.2422,-4.2402,-4.1777,-4.1601,0.0,0.0,0.0,0.0,0.0,0.0,0.0,-6.6438,-6.7417,-6.9225,-7.0455,-7.1912,-7.4146,-7.6356,-7.8666,-8.1252,-8.3512,-8.5822,-8.8283,-8.9111,-8.9639,-9.0191,-9.0668,-9.0768,-9.0291,-9.0191,-8.9865,-8.9362,-8.8258,-8.7605,-8.7605,-8.66,-8.5998,-8.5998,-8.5886,-8.5163,-8.3782,-8.2502,-8.0584,-7.7797,-7.6037,-7.4169,-7.2426,-7.084,-6.9897,-6.931,-6.7821,-6.6985,-6.6426,-6.5225,-6.448,-6.4004,-6.3549,-6.2555,-6.1355,-6.1355,-6.0837,-6.0113,-6.003,-5.9988,-5.9906,-5.945,-5.8995,-5.8519,-5.8063,-5.7587,-5.7235,-5.7235,-5.7235,-5.7235,-5.7235,-5.7152,-5.6987,-5.6531,-5.6076,-5.5621,-5.5165,-5.442,-5.3529,-5.2495,-5.1582,-5.0675,-4.9683,-4.9144,-4.9052,-4.942,-4.9512,-4.9328,-4.894,-4.8867,-4.8867,-4.8867,-4.8867,-4.8828,-4.873,-4.8105,-4.7305,-4.6367,-4.5644,-4.5039,-4.4551,-4.416,-4.3769,-4.334,-4.334,-4.3125,-4.2676,-4.2676,-4.2676,-4.2676,-4.2676,-4.2578,-6.3977,-6.3651,-6.3726,-6.4254,-6.5107,-6.6262,0.0,-6.9049,-7.0405,-7.259,-7.392,-7.5352,-7.7561,-7.9771,-8.1855,-8.3663,-8.5822,-8.768,-8.9036,-8.9689,-9.0216,-9.0768,-9.0919,-9.0919,-9.0844,-9.0367,-8.9865,-8.9362,-8.8258,-8.7605,-8.7605,-8.66,-8.5998,-8.5998,-8.5437,-8.4285,-8.2502,-8.1235,-7.8904,-7.5428,-7.3973,-7.2199,-7.0151,-6.9391,-6.8574,-6.7703,-6.6674,-6.5991,-6.5536,-6.4977,-6.448,-6.4004,-6.3549,-6.2555,-6.1355,-6.1355,-6.1023,-6.0547,-6.0133,-5.9988,-5.9906,-5.945,-5.8995,-5.8519,-5.8063,-5.7587,-5.7235,-5.7235,-5.7235,-5.7235,-5.7235,-5.6925,-5.6531,-5.6055,-5.56,-5.5145,-5.471,-5.4213,-5.3435,-5.2047,-5.1323,-5.0583,-4.9222,-4.894,-4.8959,-4.8959,-4.8959,-4.8959,-4.8959,-4.8867,-4.8867,-4.8867,-4.8867,-4.8691,-4.832,-4.8183,-4.7617,-4.6387,-4.6211,-4.5801,-4.498,-4.4902,-4.4687,-4.4258,-4.4258,-4.4023,-4.3555,-4.3555,-4.3555,-4.3555,-4.3555,-4.3144,-6.3977,-6.3927,-6.4429,-6.5634,-6.6764,-6.8095,-7.0079,-7.1636,-7.3217,-7.5126,-7.6908,-7.8591,-8.0147,-8.2257,-8.4165,-8.5521,-8.7103,-8.8509,-8.9613,-8.9689,-8.9714,-8.994,-8.9362,-8.9362,-9.0367,-9.0266,-8.9865,-8.9362,-8.8258,-8.7605,-8.7605,-8.66,-8.5998,-8.5998,-8.505,-8.3668,-8.1697,-7.9792,-7.7188,-7.3929,-7.2584,-7.103,-6.9187,-6.8699,-6.7792,-6.6674,-6.6281,-6.5681,-6.4977,-6.4542,-6.4066,-6.3569,-6.2866,-6.2245,-6.1706,-6.1437,-6.0899,-6.0257,-6.005,-5.9823,-5.9554,-5.9367,-5.8808,-5.8167,-5.798,-5.7587,-5.7235,-5.7235,-5.7235,-5.7173,-5.6904,-5.6697,-5.6387,-5.5641,-5.5331,-5.5062,-5.4627,-5.3965,-5.3219,-5.2267,-5.1564,-5.0742,-4.9532,-4.9328,-4.9236,-4.8959,-4.8867,-4.8867,-4.8867,-4.8867,-4.8867,-4.8867,-4.8867,-4.8789,-4.8594,-4.8594,-4.8144,-4.7109,-4.7051,-4.666,-4.5801,-4.5762,-4.5449,-4.4766,-4.4766,-4.4414,-4.3711,-4.3711,-4.3574,-4.334,-4.334,-4.3144,-6.4128,-6.463,-6.5785,-6.7467,-6.8949,-7.0581,-7.2765,-7.4448,-7.603,-7.7687,-7.9419,-8.0976,-8.2081,-8.3838,-8.5496,-8.66,-8.7705,-8.886,-8.994,-8.9362,-8.881,-8.881,-8.768,-8.7404,-8.8609,-8.9011,-8.9111,-8.886,-8.7931,-8.7354,-8.7354,-8.65,-8.5911,-8.5774,-8.4486,-8.2821,-8.0887,-7.8386,-7.5606,-7.2654,-7.1292,-6.9845,-6.8475,-6.7854,-6.7047,-6.6095,-6.5846,-6.535,-6.4667,-6.4108,-6.3611,-6.3114,-6.2327,-6.1872,-6.1624,-6.1292,-6.0754,-6.0154,-6.003,-5.9678,-5.9285,-5.914,-5.8581,-5.7898,-5.7773,-5.7484,-5.7235,-5.7235,-5.7235,-5.7132,-5.6676,-5.6469,-5.618,-5.5372,-5.5082,-5.4917,-5.4606,-5.3923,-5.3137,-5.2527,-5.178,-5.0935,-4.9991,-4.9696,-4.9512,-4.9144,-4.894,-4.8867,-4.8867,-4.8867,-4.8867,-4.8867,-4.8867,-4.8867,-4.8867,-4.875,-4.8359,-4.7637,-4.7461,-4.707,-4.6328,-4.6308,-4.5898,-4.5039,-4.5019,-4.4531,-4.3535,-4.3535,-4.3379,-4.3086,-4.3086,-4.3144,-6.4454,-6.6036,-6.8095,-6.9752,-7.1811,-7.4021,-7.623,-7.7586,-7.8867,-8.0549,-8.1353,-8.2106,-8.3236,-8.4391,-8.5496,-8.66,-8.7705,-8.886,-8.994,-8.8684,-8.768,-8.768,-8.6224,-8.5219,-8.5295,-8.6249,-8.7103,-8.7605,-8.7128,-8.6776,-8.6776,-8.6274,-8.5774,-8.51,-8.392,-8.2042,-7.9582,-7.7265,-7.4501,-7.1582,-6.9933,-6.8647,-6.7502,-6.6612,-6.6157,-6.6053,-6.5163,-6.4729,-6.4667,-6.3756,-6.3114,-6.2679,-6.2203,-6.1499,-6.0713,-6.0713,-6.0692,-6.0589,-6.0154,-5.9678,-5.9222,-5.8788,-5.8312,-5.7836,-5.738,-5.7235,-5.7235,-5.7235,-5.7235,-5.7132,-5.6676,-5.6221,-5.5766,-5.5289,-5.4855,-5.4544,-5.4544,-5.4151,-5.3508,-5.2588,-5.2025,-5.1372,-5.0417,-4.9879,-4.9604,-4.9604,-4.9216,-4.8867,-4.8867,-4.8867,-4.8867,-4.8867,-4.8867,-4.8867,-4.8867,-4.8476,-4.8047,-4.7617,-4.7187,-4.6758,-4.6328,-4.6308,-4.5898,-4.5039,-4.5019,-4.4394,-4.3105,-4.3105,-4.3086,-4.3086,-4.3086,-4.3301,-6.5735,-6.7744,-6.9928,-7.1962,-7.387,-7.5703,-7.7561,-7.8842,-7.9921,-8.085,-8.1453,-8.183,-8.1855,-8.2759,-8.3738,-8.4491,-8.5847,-8.7103,-8.778,-8.7103,-8.6249,-8.5496,-8.4265,-8.3336,-8.296,-8.4592,-8.6073,-8.7002,-8.6575,-8.6425,-8.6776,-8.5937,-8.53,-8.5075,-8.3147,-8.1143,-7.9488,-7.637,-7.3668,-7.1441,-6.9101,-6.7551,-6.655,-6.624,-6.5929,-6.5598,-6.4977,-6.4542,-6.4253,-6.3632,-6.2928,-6.2203,-6.1748,-6.121,-6.0651,-6.034,-6.0216,-6.0195,-6.005,-5.9492,-5.8808,-5.8664,-5.8084,-5.7422,-5.7277,-5.7235,-5.7235,-5.7235,-5.7008,-5.6676,-5.6221,-5.5766,-5.531,-5.4855,-5.4648,-5.4544,-5.4544,-5.4172,-5.3622,-5.3075,-5.2508,-5.1964,-5.0965,-5.0428,-4.9879,-4.9236,-4.9032,-4.8867,-4.8867,-4.8867,-4.8867,-4.8867,-4.8867,-4.8867,-4.8867,-4.8457,-4.8027,-4.7617,-4.7168,-4.6738,-4.6328,-4.6308,-4.5898,-4.5039,-4.5019,-4.4375,-4.3086,-4.3359,-4.3203,-4.2656,-4.2949,-4.3144,-6.7267,-6.9627,-7.1937,-7.3971,-7.5728,-7.7335,-7.8792,-7.9695,-8.0248,-8.0424,-8.0549,-8.0424,-7.967,-8.0449,-8.1503,-8.2457,-8.4165,-8.5747,-8.6625,-8.6349,-8.5596,-8.4466,-8.3336,-8.2432,-8.1855,-8.311,-8.4416,-8.5521,-8.5671,-8.5847,-8.6174,-8.5487,-8.4987,-8.4825,-8.2574,-8.0608,-7.8881,-7.5532,-7.2453,-6.9849,-6.8119,-6.6737,-6.5867,-6.5867,-6.5681,-6.537,-6.4749,-6.4315,-6.4004,-6.3238,-6.2452,-6.1748,-6.1292,-6.0837,-6.0402,-6.0092,-5.9988,-5.9988,-5.9988,-5.9388,-5.8601,-5.8601,-5.798,-5.7235,-5.7235,-5.7235,-5.7235,-5.7235,-5.6904,-5.6449,-5.5993,-5.5538,-5.5082,-5.4648,-5.4544,-5.4544,-5.4544,-5.4296,-5.3923,-5.3302,-5.295,-5.2445,-5.1532,-5.0793,-5.0062,-4.9236,-4.9052,-4.8867,-4.8867,-4.8867,-4.8867,-4.8867,-4.8867,-4.8867,-4.8867,-4.832,-4.7871,-4.7598,-4.7031,-4.6582,-4.6308,-4.6308,-4.5898,-4.5039,-4.5019,-4.4375,-4.3086,-4.3359,-4.3203,-4.2656,-4.2949,-4.3164,-6.8999,-7.161,-7.4121,-7.5778,-7.7385,-7.8842,-7.9921,-8.0147,-7.9972,-7.9369,-7.8766,-7.7963,-7.6858,-7.7536,-7.8817,-8.0499,-8.2683,-8.4742,-8.6374,-8.6249,-8.5571,-8.4466,-8.3361,-8.2483,-8.1905,-8.188,-8.2332,-8.3412,-8.4491,-8.5144,-8.5144,-8.5138,-8.485,-8.4309,-8.2435,-8.0327,-7.7975,-7.4828,-7.1128,-6.6799,-6.6799,-6.6302,-6.5412,-6.5412,-6.5412,-6.535,-6.4439,-6.4066,-6.3942,-6.2617,-6.1789,-6.1292,-6.0878,-6.0423,-5.9988,-5.9988,-5.9988,-5.9988,-5.9988,-5.9388,-5.8601,-5.8601,-5.798,-5.7235,-5.7235,-5.7235,-5.7235,-5.7235,-5.6883,-5.6428,-5.5993,-5.5517,-5.5041,-5.4627,-5.4544,-5.4544,-5.4544,-5.4544,-5.4275,-5.3364,-5.3137,-5.2826,-5.1957,-5.0975,-5.0154,-4.9696,-4.9236,-4.8867,-4.8867,-4.8867,-4.8867,-4.8867,-4.8867,-4.8867,-4.8867,-4.8066,-4.7578,-4.7578,-4.6777,-4.6308,-4.6308,-4.6308,-4.5898,-4.5039,-4.5019,-4.4375,-4.3086,-4.3105,-4.3105,-4.3086,-4.3105,-4.332,-7.1184,-7.3619,-7.5829,-7.7486,-7.854,-7.9243,-7.9545,-7.9269,-7.8691,-7.7712,-7.6431,-7.5126,-7.3996,-7.4372,-7.5402,-7.7059,-7.9871,-8.2457,-8.4089,-8.4918,-8.5069,-8.4391,-8.3713,-8.306,-8.2508,-8.2834,-8.3186,-8.3462,-8.414,-8.4893,-8.5747,-8.5363,-8.4987,-8.4875,-8.2641,-8.0535,-7.8605,-7.3862,-6.9929,-6.6799,-6.6799,-6.6302,-6.5412,-6.5412,-6.5412,-6.535,-6.4439,-6.4066,-6.4004,-6.2928,-6.2058,-6.1334,-6.121,-6.0692,-5.9988,-5.9988,-5.9988,-5.9988,-5.9988,-5.9388,-5.8601,-5.8601,-5.798,-5.7235,-5.7235,-5.7235,-5.7235,-5.7235,-5.6656,-5.6014,-5.591,-5.5289,-5.4668,-5.4565,-5.4544,-5.4544,-5.4544,-5.4544,-5.4275,-5.3364,-5.2619,-5.199,-5.1379,-5.0702,-5.0154,-4.9696,-4.9236,-4.8867,-4.8867,-4.8867,-4.8867,-4.8867,-4.8867,-4.8867,-4.8867,-4.8066,-4.7578,-4.7578,-4.6777,-4.6308,-4.6308,-4.6308,-4.5898,-4.5039,-4.5019,-4.4375,-4.3086,-4.3398,-4.3379,-4.3086,-4.3398,-4.3594,-7.3217,-7.5276,-7.7059,-7.8239,-7.8766,-7.8942,-7.8691,-7.7837,-7.6632,-7.5025,-7.3368,-7.1887,-7.0782,-7.1435,-7.2916,-7.5301,-7.849,-8.1503,-8.3889,-8.5169,-8.5671,-8.5144,-8.4767,-8.4265,-8.3462,-8.3663,-8.3964,-8.4215,-8.4491,-8.4968,-8.5571,-8.5288,-8.5075,-8.5075,-8.2676,-7.9832,-7.6544,-7.2316,-6.9047,-6.6799,-6.6612,-6.6116,-6.5412,-6.5225,-6.5101,-6.5039,-6.417,-6.3756,-6.3694,-6.2804,-6.1976,-6.1334,-6.1127,-6.0609,-5.9988,-5.9988,-5.9988,-5.9988,-5.9988,-5.9388,-5.8601,-5.8601,-5.798,-5.7235,-5.7235,-5.7235,-5.7235,-5.7235,-5.6718,-5.618,-5.618,-5.5662,-5.5062,-5.4875,-5.4813,-5.4772,-5.4565,-5.4544,-5.4275,-5.3364,-5.2599,-5.1949,-5.147,-5.0793,-5.0245,-4.9971,-4.9328,-4.8867,-4.8867,-4.8867,-4.8867,-4.8867,-4.8867,-4.8867,-4.8867,-4.8242,-4.7773,-4.7598,-4.6953,-4.6504,-4.6308,-4.6308,-4.5996,-4.5332,-4.5117,-4.457,-4.3652,-4.3691,-4.3574,-4.3359,-4.3808,-4.4004,-7.5126,-7.6657,-7.7938,-7.849,-7.8515,-7.8239,-7.7536,-7.603,-7.4171,-7.1937,-7.0154,-6.8698,-6.7643,-6.8823,-7.0983,-7.4171,-7.7611,-8.1001,-8.424,-8.5847,-8.6525,-8.6073,-8.6073,-8.5671,-8.4642,-8.4567,-8.4742,-8.5219,-8.5244,-8.5244,-8.5244,-8.5163,-8.5075,-8.4776,-8.2378,-7.8715,-7.3484,-7.0695,-6.852,-6.6674,-6.6302,-6.5867,-6.5412,-6.4915,-6.4729,-6.4667,-6.3756,-6.3362,-6.33,-6.2472,-6.1851,-6.1396,-6.1003,-6.0589,-6.0175,-6.0113,-6.0092,-6.0071,-6.0009,-5.9388,-5.8601,-5.8601,-5.798,-5.7235,-5.7235,-5.7235,-5.7235,-5.7235,-5.6904,-5.6573,-5.6573,-5.618,-5.5683,-5.5269,-5.5145,-5.5,-5.4627,-5.4482,-5.4213,-5.3427,-5.2909,-5.2433,-5.1978,-5.1077,-5.0397,-5.0337,-4.9512,-4.8867,-4.8867,-4.8867,-4.8867,-4.8867,-4.8867,-4.8867,-4.8867,-4.8457,-4.8047,-4.7695,-4.7246,-4.6836,-4.6406,-4.6387,-4.6152,-4.5683,-4.5312,-4.4883,-4.4394,-4.3984,-4.3769,-4.3711,-4.418,-4.4394,-7.6959,-7.7812,-7.8515,-7.9093,-7.854,-7.7461,-7.6004,-7.4021,-7.1861,-6.9652,-6.7869,-6.6488,-6.5835,-6.7091,-6.9024,-7.141,-7.5377,-7.9143,-8.198,-8.4567,-8.6098,-8.5998,-8.6374,-8.6425,-8.5772,-8.5747,-8.5747,-8.5847,-8.5847,-8.5847,-8.5847,-8.5836,-8.4989,-8.2895,-8.0592,-7.733,-7.2996,-7.0639,-6.833,-6.624,-6.6157,-6.5867,-6.5412,-6.4915,-6.4729,-6.4667,-6.3756,-6.3362,-6.3321,-6.2804,-6.2307,-6.1913,-6.1831,-6.152,-6.1065,-6.0692,-6.0568,-6.0506,-6.0113,-5.9388,-5.8601,-5.8601,-5.798,-5.7235,-5.7235,-5.7235,-5.7235,-5.7235,-5.6904,-5.6573,-5.6573,-5.5931,-5.5289,-5.5207,-5.4917,-5.4627,-5.4565,-5.4234,-5.3923,-5.3758,-5.3364,-5.2909,-5.2454,-5.1545,-5.0759,-5.0397,-4.9512,-4.8867,-4.8867,-4.8867,-4.8867,-4.8867,-4.8867,-4.8867,-4.8867,-4.8457,-4.8183,-4.8105,-4.7695,-4.7266,-4.6836,-4.6816,-4.6465,-4.5683,-4.5605,-4.5176,-4.4394,-4.4316,-4.4082,-4.3711,-4.418,-4.4394,-7.8264,-7.8992,-7.9469,-7.9746,-7.8741,-7.7185,-7.5251,-7.264,-6.9903,-6.7417,-6.581,-6.468,-6.4103,-6.5609,-6.7744,-7.0255,-7.3895,-7.7586,-8.0926,-8.3562,-8.542,-8.6274,-8.6625,-8.6676,-8.6425,-8.6174,-8.5998,-8.5998,-8.5998,-8.5998,-8.5998,-8.5722,-8.4491,-8.2158,-7.9751,-7.6685,-7.2863,-7.0501,-6.8456,-6.6488,-6.624,-6.5867,-6.5412,-6.4687,-6.4377,-6.4315,-6.3425,-6.3011,-6.299,-6.2741,-6.2431,-6.2038,-6.2038,-6.1748,-6.1292,-6.0837,-6.0671,-6.0609,-6.0154,-5.9554,-5.8933,-5.8684,-5.798,-5.7235,-5.7235,-5.7235,-5.7235,-5.7235,-5.707,-5.6904,-5.6904,-5.6407,-5.5848,-5.56,-5.502,-5.4544,-5.4544,-5.4358,-5.413,-5.3882,-5.3675,-5.3385,-5.293,-5.2179,-5.148,-5.0759,-5.0033,-4.9492,-4.8979,-4.8867,-4.8867,-4.8867,-4.8867,-4.8867,-4.8867,-4.8672,-4.8457,-4.8223,-4.8027,-4.7715,-4.7285,-4.7051,-4.6738,-4.6328,-4.5898,-4.5469,-4.5058,-4.4844,-4.4609,-4.4414,-4.4863,-4.5058,-7.9093,-7.9796,-8.0173,-8.0072,-7.8691,-7.6707,-7.4247,-7.1133,-6.797,-6.5308,-6.3902,-6.3048,-6.2722,-6.4254,-6.6413,-6.8949,-7.2163,-7.5628,-7.9269,-8.2005,-8.424,-8.5872,-8.6374,-8.66,-8.66,-8.6249,-8.5998,-8.5998,-8.5998,-8.5998,-8.5998,-8.5359,-8.3982,-8.1793,-7.9258,-7.6135,-7.2597,-7.0307,-6.833,-6.6488,-6.6116,-6.5784,-6.537,-6.448,-6.4066,-6.4004,-6.3073,-6.2679,-6.2679,-6.2679,-6.2472,-6.2162,-6.2162,-6.1955,-6.1562,-6.1023,-6.0816,-6.0754,-6.0175,-5.9678,-5.9222,-5.8767,-5.8043,-5.7359,-5.7256,-5.7235,-5.7235,-5.7235,-5.7152,-5.709,-5.709,-5.6676,-5.6159,-5.5703,-5.5062,-5.4544,-5.4544,-5.4544,-5.442,-5.4068,-5.3985,-5.3861,-5.3406,-5.293,-5.2206,-5.1315,-5.069,-4.9953,-4.9135,-4.8926,-4.8867,-4.8867,-4.8867,-4.8867,-4.8867,-4.8867,-4.8711,-4.8359,-4.834,-4.8144,-4.7734,-4.7305,-4.7031,-4.6933,-4.6191,-4.5762,-4.5683,-4.5332,-4.5117,-4.5039,-4.5469,-4.5683,-7.9093,-7.9796,-8.0097,-7.9595,-7.7812,-7.5352,-7.2113,-6.8823,-6.5785,-6.3525,-6.2169,-6.1542,-6.1994,-6.3099,-6.4479,-6.6212,-6.9275,-7.2464,-7.5377,-7.8992,-8.1955,-8.3587,-8.5169,-8.6073,-8.6073,-8.6023,-8.5998,-8.5998,-8.5998,-8.5998,-8.5998,-8.4914,-8.3561,-8.1793,-7.8854,-7.5449,-7.1578,-6.9639,-6.7697,-6.5536,-6.5495,-6.5474,-6.537,-6.448,-6.4066,-6.4004,-6.3073,-6.2679,-6.2679,-6.2679,-6.2679,-6.2617,-6.2617,-6.2617,-6.2452,-6.1603,-6.1292,-6.1168,-6.0299,-5.9678,-5.9222,-5.8767,-5.827,-5.7773,-5.7359,-5.7235,-5.7235,-5.7235,-5.6945,-5.6635,-5.6635,-5.5973,-5.5207,-5.4751,-5.4586,-5.4544,-5.4544,-5.4544,-5.4524,-5.4482,-5.4482,-5.4317,-5.3861,-5.3308,-5.2674,-5.1779,-5.089,-5.0052,-4.9566,-4.9101,-4.8867,-4.8867,-4.8867,-4.8867,-4.8867,-4.8867,-4.8848,-4.8808,-4.8808,-4.8613,-4.8164,-4.7734,-4.7324,-4.6933,-4.6484,-4.6055,-4.5683,-4.5644,-4.541,-4.5039,-4.5469,-4.5683,-7.8817,-8.0022,-8.0574,-8.0022,-7.8214,-7.5578,-7.1912,-6.8497,-6.5383,-6.2847,-6.1718,-6.114,-6.1014,-6.2195,-6.35,-6.4479,-6.7166,-6.9953,-7.2389,-7.5804,-7.8766,-8.0775,-8.2784,-8.4165,-8.4491,-8.5094,-8.5646,-8.5998,-8.5998,-8.5998,-8.5998,-8.4589,-8.2968,-8.1208,-7.8321,-7.5016,-7.134,-6.9847,-6.8013,-6.5846,-6.5846,-6.5681,-6.537,-6.448,-6.4066,-6.4004,-6.3073,-6.2679,-6.2679,-6.2679,-6.2679,-6.2679,-6.2679,-6.2534,-6.2224,-6.1582,-6.1168,-6.0858,-6.0216,-5.9864,-5.9595,-5.885,-5.8477,-5.8187,-5.7463,-5.7235,-5.7235,-5.7235,-5.6904,-5.6573,-5.6573,-5.5869,-5.5082,-5.4648,-5.4544,-5.4544,-5.4544,-5.4544,-5.4544,-5.4544,-5.4544,-5.4482,-5.4296,-5.4065,-5.3521,-5.2222,-5.1517,-5.0743,-4.9644,-4.9141,-4.8867,-4.8867,-4.8867,-4.8867,-4.8867,-4.8867,-4.8867,-4.8867,-4.8867,-4.8789,-4.8613,-4.7949,-4.75,-4.7324,-4.6641,-4.623,-4.6055,-4.6055,-4.5957,-4.5801,-4.5976,-4.6055,-7.7461,-7.9093,-7.9921,-7.9369,-7.7561,-7.4925,-7.1209,-6.7769,-6.4705,-6.227,-6.119,-6.0613,-6.0362,-6.1416,-6.2521,-6.3099,-6.5358,-6.7719,-6.9602,-7.2866,-7.5904,-7.8139,-8.065,-8.2457,-8.3186,-8.4391,-8.5395,-8.5922,-8.5998,-8.5922,-8.5747,-8.3932,-8.2302,-8.087,-7.7747,-7.4516,-7.0991,-6.9817,-6.8077,-6.5909,-6.5909,-6.5722,-6.537,-6.448,-6.4066,-6.4004,-6.3073,-6.2679,-6.2679,-6.2679,-6.2679,-6.2679,-6.2679,-6.241,-6.1976,-6.152,-6.1065,-6.0609,-6.0154,-5.9906,-5.9657,-5.8871,-5.8519,-5.825,-5.7463,-5.7235,-5.7194,-5.707,-5.6614,-5.6117,-5.5993,-5.5476,-5.4917,-5.4606,-5.4544,-5.4544,-5.4544,-5.4544,-5.4544,-5.4544,-5.4544,-5.4544,-5.4544,-5.4544,-5.404,-5.2665,-5.2047,-5.1189,-4.986,-4.9219,-4.8867,-4.8867,-4.8867,-4.8867,-4.8867,-4.8867,-4.8867,-4.8867,-4.8867,-4.8867,-4.8867,-4.8027,-4.7578,-4.7578,-4.6738,-4.6308,-4.6308,-4.6308,-4.6308,-4.6308,-4.6308,-4.6308,-7.4674,-7.6482,-7.7611,-7.7059,-7.5251,-7.274,-6.9401,-6.6086,-6.3249,-6.1542,-6.0286,-5.9684,-6.0211,-6.0788,-6.1391,-6.1943,-6.3877,-6.571,-6.6865,-7.033,-7.3594,-7.5829,-7.9018,-8.1478,-8.2583,-8.4165,-8.5395,-8.5922,-8.5998,-8.5747,-8.5144,-8.2955,-8.1408,-8.087,-7.7342,-7.3903,-7.0581,-6.9345,-6.7634,-6.5412,-6.5412,-6.5412,-6.537,-6.448,-6.4066,-6.4004,-6.3073,-6.2679,-6.2679,-6.2679,-6.2679,-6.2679,-6.2679,-6.241,-6.1976,-6.152,-6.1065,-6.0609,-6.0154,-5.9699,-5.9222,-5.8767,-5.8312,-5.7836,-5.738,-5.7235,-5.7132,-5.6697,-5.591,-5.5103,-5.4668,-5.4544,-5.4544,-5.4544,-5.4544,-5.4544,-5.4544,-5.4544,-5.4544,-5.4544,-5.4544,-5.4544,-5.4544,-5.4544,-5.4142,-5.3185,-5.2248,-5.1309,-5.0365,-4.9394,-4.8867,-4.8867,-4.8867,-4.8867,-4.8867,-4.8867,-4.8867,-4.8867,-4.8867,-4.8867,-4.8867,-4.8027,-4.7578,-4.7578,-4.6738,-4.6308,-4.6308,-4.6308,-4.6308,-4.6308,-4.6308,-4.6308,-7.2263,-7.4171,-7.5327,-7.4774,-7.3519,-7.1585,-6.8246,-6.5534,-6.3224,-6.1517,-6.0286,-5.9533,-5.9734,-6.0537,-6.124,-6.1416,-6.3299,-6.5107,-6.6237,-6.9401,-7.2288,-7.4146,-7.7988,-8.1353,-8.3587,-8.424,-8.4993,-8.5922,-8.5646,-8.5123,-8.4614,-8.202,-8.0264,-7.9571,-7.5833,-7.2566,-6.9874,-6.8314,-6.6796,-6.5412,-6.5412,-6.5412,-6.537,-6.448,-6.4066,-6.4004,-6.3073,-6.2679,-6.2679,-6.2679,-6.2679,-6.2679,-6.2348,-6.1955,-6.1499,-6.1065,-6.0609,-6.0195,-6.005,-5.9678,-5.9222,-5.8767,-5.8291,-5.7773,-5.7008,-5.6987,-5.707,-5.6304,-5.5662,-5.5082,-5.4648,-5.4544,-5.4544,-5.4544,-5.4544,-5.4544,-5.4544,-5.4544,-5.4544,-5.4544,-5.4544,-5.4544,-5.4544,-5.4544,-5.4142,-5.3185,-5.249,-5.1648,-5.0404,-4.9668,-4.9199,-4.8887,-4.8867,-4.8867,-4.8867,-4.8867,-4.8867,-4.8867,-4.8867,-4.8867,-4.8867,-4.8027,-4.7578,-4.7578,-4.6738,-4.6308,-4.6308,-4.6308,-4.6308,-4.6308,-4.6308,-4.6308,-6.8597,-7.048,-7.1585,-7.1435,-7.0556,-6.9125,-6.6865,-6.463,-6.2697,-6.1441,-6.0286,-5.9483,-5.9483,-6.0236,-6.0939,-6.114,-6.2873,-6.463,-6.5936,-6.8974,-7.2339,-7.5678,-7.8716,-8.1604,-8.4391,-8.424,-8.4491,-8.5596,-8.5144,-8.4497,-8.3745,-8.1015,-7.8838,-7.746,-7.4356,-7.1689,-6.9386,-6.7851,-6.6441,-6.5412,-6.5412,-6.535,-6.5101,-6.4377,-6.3942,-6.3756,-6.299,-6.2679,0.0,-6.2679,-6.2679,-6.2617,-6.2203,-6.1748,-6.1292,-6.0837,-6.0382,-5.9968,-5.9781,-5.9429,-5.8953,-5.8498,-5.7918,-5.7277,-5.6531,-5.6366,-5.6345,-5.5766,-5.5289,-5.4875,-5.4606,-5.4544,-5.4544,-5.4544,-5.4544,-5.4544,-5.4544,-5.4544,-5.4544,-5.4544,-5.4544,-5.4544,-5.4544,-5.4544,-5.4238,-5.3377,-5.2706,-5.1943,-5.083,-4.9996,-4.9414,-4.9141,-4.8965,-4.8867,-4.8867,-4.8867,-4.8867,-4.8867,-4.8867,-4.8867,-4.8867,-4.8027,-4.7578,-4.7578,-4.6738,-4.6308,-4.6308,-4.6308,-4.6308,-4.6308,-4.6308,-4.6387,0.0,-6.576,-6.6865,-6.7392,-6.6714,-6.5785,-6.5183,-6.345,0.0,-6.124,-6.0261,-5.9483,-5.9483,-5.996,-6.0487,-6.104,-6.2546,-6.4203,-6.5835,-6.9125,-7.3569,-7.9444,-8.07,-8.2131,-8.4682,-8.4089,-8.3914,-8.4993,-8.4541,-8.3636,-8.2591,-7.9708,-7.6984,-7.4687,-7.2887,-7.0865,-6.8684,-6.7503,-6.6358,-6.5308,-6.5308,-6.5101,-6.4667,-6.4232,-6.3756,-6.3362,-6.2866,-6.2679,-6.2679,-6.2679,-6.2679,-6.2617,-6.2162,-6.1727,-6.1292,-6.0816,-6.034,-5.9885,-5.945,-5.8974,-5.8477,-5.798,-5.7215,-5.6387,-5.5952,-5.5517,-5.5186,-5.5186,-5.4875,-5.4544,-5.4544,-5.4544,-5.4544,-5.4544,-5.4544,-5.4544,-5.4544,-5.4544,-5.4544,-5.4544,-5.4544,-5.4544,-5.4544,-5.4544,-5.4333,-5.3856,-5.2917,-5.2179,-5.1662,-5.0362,-4.957,-4.9531,-4.9121,-4.8867,-4.8867,-4.8867,-4.8867,-4.8867,-4.8867,-4.8867,-4.8867,-4.8066,-4.7617,-4.7578,-4.6738,-4.6308,-4.6308,-4.6308,-4.6308,-4.6308,-4.6328,-4.6562,-5.9809,0.0,-6.4505,-6.463,-6.4454,-6.4002,0.0,-6.2044,-6.1215,-6.0638,-5.9985,-5.9483,-5.9483,-5.996,-6.0362,-6.0512,-6.1943,-6.3601,-6.5258,-7.0556,-7.5578,-7.9143,-8.08,-8.2206,-8.3738,-8.3638,-8.3763,-8.4466,-8.3612,-8.2552,-8.1451,-7.8233,-7.5274,-7.2487,-6.9893,-6.8,-6.6967,-6.5794,-6.4966,-6.4377,-6.4377,-6.4315,-6.419,-6.3756,-6.3487,-6.3362,-6.2866,-6.2679,-6.2679,-6.2679,-6.2679,-6.2617,-6.181,-6.1437,-6.1251,-6.0444,-5.9864,-5.945,-5.9347,-5.8767,-5.7939,-5.7152,-5.6262,-5.5476,-5.5372,-5.5269,-5.5186,-5.5186,-5.4875,-5.4544,-5.4544,-5.4544,-5.4544,-5.4544,-5.4544,-5.4544,-5.4544,-5.4544,-5.4544,-5.4544,-5.4544,-5.4544,-5.4544,-5.4544,-5.4333,-5.3856,-5.3296,-5.2519,-5.1702,-5.0732,-4.9902,-4.957,-4.9121,-4.8867,-4.8867,-4.8867,-4.8867,-4.8867,-4.8867,-4.8867,-4.8867,-4.834,-4.791,-4.7578,-4.6738,-4.6308,-4.6308,-4.6308,-4.6308,-4.6308,-4.6641,-4.6836,-5.8177,-5.9859,-6.1517,-6.2019,-6.2144,-6.2044,-6.1718,-6.119,-6.0688,-6.0387,-5.9885,-5.9483,-5.9483,-5.996,-6.0412,-6.0663,-6.2119,-6.4429,-6.7844,-7.274,-7.7009,-7.9821,-8.1127,-8.2357,-8.3738,-8.3412,-8.3236,-8.3537,-8.2759,-8.1621,-8.0297,-7.721,-7.4191,-7.137,-6.8523,-6.6638,-6.5827,-6.488,-6.4315,-6.4066,-6.4066,-6.3942,-6.3756,-6.3487,-6.3259,-6.3052,-6.2804,-6.2679,-6.2679,-6.2472,-6.239,-6.2307,-6.1396,-6.1044,-6.0941,-6.0009,-5.9512,-5.9243,-5.8808,-5.8063,-5.7152,-5.6221,-5.56,-5.5145,-5.4938,-5.4731,-5.4606,-5.4834,-5.471,-5.4544,-5.4544,-5.4544,-5.4482,-5.4275,-5.4379,-5.4482,-5.4275,-5.4379,-5.4544,-5.4544,-5.4544,-5.4544,-5.4544,-5.4544,-5.4428,-5.4142,-5.3473,-5.2816,-5.2268,-5.1201,-5.0293,-4.9863,-4.9609,-4.9375,-4.918,-4.916,-4.9082,-4.8867,-4.8867,-4.8867,-4.8867,-4.8437,-4.8008,-4.7578,-4.7129,-4.6894,-4.6894,-4.6894,-4.6894,-4.6894,-4.7129,-4.7324,-5.7876,-5.8303,-5.8956,-5.9935,-6.0186,-6.0311,-6.0814,-6.0537,-6.0186,-6.0186,-5.9834,-5.9533,-5.9608,-6.0085,-6.0663,-6.1316,-6.3124,-6.6212,-7.1309,-7.49,-7.7963,-8.0599,-8.1503,-8.2508,-8.3914,-8.3211,-8.2633,-8.2558,-8.2005,-8.0873,-7.9189,-7.6336,-7.3477,-7.0594,-6.7818,-6.5858,-6.4638,-6.4256,-6.3942,-6.3859,-6.3859,-6.3632,-6.3259,-6.3259,-6.3052,-6.2679,-6.2617,-6.2555,-6.2555,-6.212,-6.1934,-6.1851,-6.1003,-6.063,-6.0464,-5.9616,-5.9202,-5.8953,-5.8043,-5.7152,-5.6324,-5.5455,-5.5145,-5.5,-5.4565,-5.4151,-5.3923,-5.4234,-5.4379,-5.442,-5.4337,-5.4441,-5.442,-5.387,-5.4192,-5.442,-5.4027,-5.4255,-5.4544,-5.4544,-5.4544,-5.4544,-5.4544,-5.4544,-5.4544,-5.4544,-5.3664,-5.2992,-5.2992,-5.1748,-5.0664,-5.0312,-5.0215,-5.0039,-4.9648,-4.957,-4.9355,-4.8984,-4.8887,-4.8867,-4.8867,-4.8437,-4.8047,-4.7676,-4.7617,-4.7578,-4.7578,-4.7578,-4.7578,-4.7578,-4.7656,-4.7871,-5.7775,-5.8303,-5.8855,-5.9483,-5.9608,-5.9633,-5.9734,-5.9684,-5.9608,-5.9608,-5.9558,-5.9633,-6.0111,-6.0663,-6.1391,-6.2395,-6.5559,-6.8974,-7.2163,-7.5477,-7.8264,-8.0122,-8.1654,-8.2633,-8.2909,-8.2784,-8.2457,-8.198,-8.1453,-8.0174,-7.8082,-7.526,-7.2271,-6.8981,-6.6668,-6.4684,-6.3085,-6.339,-6.33,-6.2866,-6.2866,-6.2866,-6.2804,-6.2804,-6.2741,-6.2679,-6.2286,-6.2141,-6.21,-6.1644,-6.1458,-6.1396,-6.0878,-6.0444,-6.003,-5.9492,-5.8808,-5.8001,-5.709,-5.6428,-5.589,-5.5352,-5.4938,-5.4544,-5.4089,-5.3903,-5.3778,-5.3468,-5.3654,-5.3861,-5.3489,-5.3965,-5.442,-5.387,-5.4192,-5.4524,-5.4441,-5.4482,-5.4544,-5.4544,-5.4544,-5.4544,-5.4544,-5.4544,-5.4544,-5.4544,-5.3664,-5.2992,-5.2992,-5.1748,-5.0781,-5.0723,-5.0391,-5.0156,-5.0078,-4.9746,-4.9492,-4.9433,-4.9062,-4.8867,-4.8867,-4.8437,-4.8183,-4.8105,-4.7754,-4.7578,-4.7578,-4.7578,-4.7578,-4.7598,-4.7949,-4.8144,-5.7826,-5.8504,-5.9207,-5.9433,-5.9483,-5.9583,-5.9885,-5.9935,-6.0035,-6.0337,-6.0412,-6.0487,-6.0738,-6.1743,-6.3299,-6.5584,-6.8447,-7.1158,-7.3343,-7.623,-7.8666,-8.0047,-8.1403,-8.2206,-8.2206,-8.2206,-8.1855,-8.1001,-8.0449,-7.9251,-7.7392,-7.4905,-7.2137,-6.9177,-6.6841,-6.4801,-6.3226,-6.3106,-6.2866,-6.2679,-6.2679,-6.2679,-6.2679,-6.2679,-6.2679,-6.2679,-6.2224,-6.2038,-6.1976,-6.1272,-6.0837,-6.0568,-6.0113,-5.9657,-5.9181,-5.8726,-5.798,-5.709,-5.6428,-5.589,-5.5434,-5.4979,-5.4689,-5.4441,-5.3985,-5.3675,-5.3385,-5.293,-5.3302,-5.3799,-5.3592,-5.4027,-5.442,-5.387,-5.4192,-5.4461,-5.4213,-5.4358,-5.4544,-5.4544,-5.4544,-5.4544,-5.4544,-5.4238,-5.4142,-5.4142,-5.3281,-5.2587,-5.2587,-5.1753,-5.1055,-5.082,-5.084,-5.0762,-5.0527,-5.0117,-4.9668,-4.9199,-4.8965,-4.8867,-4.8867,-4.8672,-4.8555,-4.8555,-4.8379,-4.8262,-4.8262,-4.8262,-4.8262,-4.8281,-4.8476,-4.8555,-5.77,-5.8478,-5.9307,-5.9307,-5.9508,-5.9834,-6.0387,-6.0713,-6.1065,-6.1642,-6.1768,-6.1818,-6.1918,-6.3425,-6.5685,-6.8874,-7.1133,-7.3117,-7.4925,-7.7235,-7.9093,-8.0097,-8.1051,-8.1629,-8.1629,-8.1629,-8.1177,-8.0097,-7.962,-7.8606,-7.686,-7.4616,-7.2137,-6.9502,-6.7075,-6.513,-6.3594,-6.3007,-6.2679,-6.2679,-6.2679,-6.2679,-6.2679,-6.2679,-6.2617,-6.2493,-6.2058,-6.181,-6.1644,-6.0734,-6.0154,-5.9781,-5.9326,-5.885,-5.8374,-5.7815,-5.7152,-5.649,-5.591,-5.5476,-5.5103,-5.4668,-5.4461,-5.4296,-5.384,-5.3385,-5.295,-5.2599,-5.3075,-5.3654,-5.3551,-5.3944,-5.4296,-5.3923,-5.4192,-5.4346,-5.39,-5.4086,-5.4354,-5.4163,-5.4142,-5.4142,-5.4142,-5.3856,-5.3569,-5.3569,-5.278,-5.2201,-5.2201,-5.1717,-5.1308,-5.0976,-5.123,-5.1269,-5.084,-5.041,-4.9844,-4.9062,-4.8906,-4.8867,-4.8867,-4.8867,-4.8867,-4.8867,-4.8867,-4.8867,-4.8867,-4.8867,-4.8867,-4.8867,-4.8867,-4.8867,-5.7097,-5.7926,-5.878,-5.878,-5.9533,-6.0412,-6.0989,-6.1918,-6.2797,-6.34,-6.35,-6.3651,-6.4153,-6.6011,-6.8422,-7.1209,-7.3117,-7.5,-7.7159,-7.854,-7.9545,-8.0147,-8.0725,-8.1076,-8.1076,-8.1076,-8.0624,-7.952,-7.9419,-7.8486,-7.628,-7.4098,-7.1828,-6.9501,-6.6782,-6.4787,-6.3573,-6.3007,-6.2679,-6.2679,-6.2679,-6.2679,-6.2679,-6.2679,-6.2452,-6.2058,-6.1603,-6.1168,-6.0713,-5.9781,-5.9388,-5.9305,-5.885,-5.8374,-5.7856,-5.6987,-5.6614,-5.6428,-5.5538,-5.5207,-5.5103,-5.4668,-5.4255,-5.382,-5.3364,-5.2909,-5.2536,-5.2495,-5.2847,-5.3137,-5.2702,-5.324,-5.3788,-5.3861,-5.4192,-5.4333,-5.391,-5.3835,-5.3664,-5.3185,-5.3089,-5.3089,-5.3089,-5.3089,-5.3089,-5.3089,-5.2587,-5.2201,-5.2201,-5.1717,-5.1426,-5.1387,-5.1406,-5.1269,-5.084,-5.041,-4.998,-4.9512,-4.9082,-4.8867,-4.8867,-4.8867,-4.8867,-4.8867,-4.8867,-4.8867,-4.8867,-4.8867,-4.8867,-4.8867,-4.8867,-4.8867,-5.7022,-5.76,-5.8303,-5.8629,-5.9809,-6.109,-6.1994,-6.3324,-6.463,-6.5534,-6.5735,-6.5911,-6.6438,-6.7518,-6.9225,-7.1962,-7.4121,-7.5954,-7.7486,-7.8967,-7.9972,-8.0198,-8.07,-8.0901,-8.0549,-8.0223,-7.9695,-7.8917,-7.8214,-7.7157,-7.5702,-7.3788,-7.176,-6.9501,-6.7057,-6.5262,-6.4095,-6.3116,-6.2555,-6.2286,-6.2555,-6.2555,-6.2286,-6.2286,-6.2038,-6.1582,-6.1127,-6.0671,-6.0195,-5.9574,-5.8953,-5.8374,-5.7629,-5.7235,-5.7008,-5.6366,-5.5952,-5.5662,-5.531,-5.5,-5.471,-5.4255,-5.3891,-5.3716,-5.2971,-5.264,-5.2433,-5.2143,-5.2185,-5.2474,-5.3157,-5.3799,-5.4275,-5.4275,-5.4114,-5.4047,-5.3856,-5.3569,-5.3281,-5.2992,-5.2992,-5.2992,-5.2992,-5.2704,-5.2491,-5.2491,-5.2008,-5.1717,-5.1717,-5.1523,-5.1426,-5.1426,-5.1426,-5.1269,-5.084,-5.041,-5.0,-4.9551,-4.9101,-4.8867,-4.8867,-4.8867,-4.8867,-4.8867,-4.8867,-4.8867,-4.8867,-4.8867,-4.8867,-4.8867,-4.8867,-4.8867,-5.652,-5.6922,-5.7549,-5.8278,-5.996,-6.1818,-6.3274,-6.4881,-6.6438,-6.7744,-6.802,-6.807,-6.8271,-6.8594,-6.9614,-7.2092,-7.4087,-7.5734,-7.7006,-7.8281,-7.9213,-7.9419,-7.9746,-7.9821,-7.9469,-7.9068,-7.8616,-7.8038,-7.731,-7.6408,-7.5329,-7.3725,-7.1808,-6.9583,-6.7364,-6.5495,-6.3974,-6.3003,-6.2316,-6.1831,-6.1976,-6.1976,-6.181,-6.181,-6.1562,-6.1106,-6.0651,-6.0195,-5.9719,-5.9119,-5.8332,-5.7422,-5.6801,-5.6469,-5.6283,-5.5828,-5.5455,-5.5165,-5.502,-5.4689,-5.4275,-5.3944,-5.3654,-5.3302,-5.2681,-5.2392,-5.2247,-5.206,-5.2019,-5.2309,-5.353,-5.3965,-5.4172,-5.4461,-5.4142,-5.376,-5.3569,-5.3089,-5.2704,-5.2511,-5.2511,-5.2511,-5.2511,-5.2201,-5.1911,-5.1911,-5.162,-5.1426,-5.1426,-5.1426,-5.1426,-5.1426,-5.1426,-5.1308,-5.1035,-5.0625,-5.0195,-4.9766,-4.9316,-4.9004,-4.8867,-4.8867,-4.8867,-4.8867,-4.8867,-4.8867,-4.8867,-4.8867,-4.8867,-4.8867,-4.8867,-4.8867,-5.539,-5.5792,-5.647,-5.76,-5.996,-6.2571,-6.4781,-6.6589,-6.8271,-6.9953,-7.028,-7.0104,-6.9577,-6.9473,-6.9987,-7.1659,-7.2937,-7.4215,-7.5838,-7.6595,-7.7104,-7.7611,-7.7712,-7.7712,-7.7712,-7.7687,-7.7461,-7.6908,-7.6858,-7.6433,-7.531,-7.3733,-7.1821,-6.9645,-6.7476,-6.5181,-6.3038,-6.2507,-6.1868,-6.1334,-6.0878,-6.0899,-6.1334,-6.1334,-6.1085,-6.063,-6.0175,-5.9719,-5.9202,-5.8291,-5.738,-5.6573,-5.6552,-5.6262,-5.5807,-5.5352,-5.5165,-5.5103,-5.4689,-5.4234,-5.384,-5.384,-5.322,-5.2495,-5.2495,-5.2164,-5.1895,-5.235,-5.2495,-5.2702,-5.3613,-5.3509,-5.3406,-5.4317,-5.4142,-5.3664,-5.3089,-5.2587,-5.2008,-5.1523,-5.1426,-5.1426,-5.1426,-5.1426,-5.1426,-5.1426,-5.1426,-5.1426,-5.1426,-5.1426,-5.1426,-5.1426,-5.1426,-5.1426,-5.1426,-5.1035,-5.0625,-5.0215,-4.9766,-4.9336,-4.8867,-4.8867,-4.8867,-4.8867,-4.8867,-4.8867,-4.8867,-4.8867,-4.8867,-4.8867,-4.8867,-4.8867,-5.4913,-5.5214,-5.5993,-5.7524,-5.996,-6.2571,-6.4781,-6.7191,-6.9526,-7.1585,-7.1686,-7.1266,-7.0745,-6.9978,-6.9761,-7.0591,-7.1394,-7.2414,-7.4098,-7.5175,-7.6035,-7.7002,-7.751,-7.7712,-7.7712,-7.736,-7.7059,-7.6883,-7.6155,-7.5259,-7.4194,-7.2907,-7.1218,-6.9134,-6.729,-6.5459,-6.3545,-6.2381,-6.1221,-6.0382,-5.9926,-5.9947,-6.0382,-6.005,-5.9657,-5.9222,-5.9078,-5.8746,-5.825,-5.7339,-5.6801,-5.649,-5.5848,-5.5517,-5.5331,-5.4896,-5.4731,-5.4668,-5.4213,-5.3965,-5.3737,-5.3095,-5.2723,-5.2433,-5.2102,-5.1915,-5.1833,-5.1957,-5.1998,-5.2226,-5.3137,-5.3282,-5.3406,-5.4317,-5.3856,-5.3185,-5.2992,-5.2317,-5.162,-5.1426,-5.1426,-5.1426,-5.1426,-5.1426,-5.1426,-5.1426,-5.1426,-5.1426,-5.1426,-5.1426,-5.1426,-5.1426,-5.1426,-5.1426,-5.1426,-5.1035,-5.0762,-5.0625,-4.9922,-4.9336,-4.8867,-4.8867,-4.8867,-4.8867,-4.8867,-4.8867,-4.8867,-4.8867,-4.8867,-4.8867,-4.8867,-4.9023,-5.4662,-5.4963,-5.5892,-5.8001,-6.0437,-6.3199,-6.6513,-6.9074,-7.1184,-7.274,-7.2776,-7.2341,-7.1642,-7.0324,-6.9426,-6.9372,-6.9774,-7.0607,-7.1823,-7.3107,-7.4453,-7.5724,-7.6431,-7.6858,-7.7034,-7.6557,-7.623,-7.623,-7.5402,-7.4412,-7.3405,-7.2518,-7.0939,-6.8622,-6.6894,-6.5055,-6.2998,-6.1719,-6.0322,-5.916,-5.8705,-5.8539,-5.8643,-5.8912,-5.8767,-5.8312,-5.796,-5.7525,-5.707,-5.6511,-5.618,-5.5952,-5.5393,-5.5082,-5.4875,-5.442,-5.4255,-5.4192,-5.3737,-5.3468,-5.322,-5.2661,-5.2371,-5.2164,-5.1895,-5.1791,-5.1791,-5.1791,-5.1791,-5.2019,-5.295,-5.3178,-5.3406,-5.4317,-5.376,-5.2992,-5.2992,-5.2124,-5.1426,-5.1426,-5.1426,-5.1426,-5.1426,-5.1426,-5.1426,-5.1426,-5.1426,-5.1426,-5.1426,-5.1426,-5.1426,-5.1426,-5.1426,-5.1426,-5.1426,-5.1191,-5.0976,-5.082,-5.0332,-4.9766,-4.9141,-4.8945,-4.8867,-4.8867,-4.8867,-4.8867,-4.8867,-4.8867,-4.8945,-4.9121,-4.9121,-4.9355,-5.4561,-5.5039,-5.6194,-5.8956,-6.1517,-6.458,-6.9275,-7.1585,-7.2916,-7.3544,-7.3613,-7.3229,-7.2151,-7.0536,-6.8967,-6.7769,-6.7987,-6.8593,-6.9167,-7.0687,-7.2348,-7.3964,-7.4713,-7.5335,-7.5904,-7.5452,-7.5176,-7.5176,-7.4501,-7.3763,-7.2667,-7.198,-7.0432,-6.7893,-6.6307,-6.4304,-6.1698,-6.0618,-5.9343,-5.7794,-5.7318,-5.6883,-5.6552,-5.7794,-5.8125,-5.7691,-5.6863,-5.6262,-5.5869,-5.5828,-5.5559,-5.5165,-5.5103,-5.4813,-5.442,-5.3965,-5.3778,-5.3716,-5.3282,-5.2847,-5.2495,-5.2433,-5.2143,-5.1791,-5.1791,-5.1791,-5.1791,-5.1791,-5.1791,-5.2019,-5.295,-5.3178,-5.3313,-5.4222,-5.3664,-5.2992,-5.2992,-5.2124,-5.1426,-5.1426,-5.1426,-5.1426,-5.1426,-5.1426,-5.1426,-5.1426,-5.1426,-5.1445,-5.1484,-5.1484,-5.1504,-5.1543,-5.1523,-5.1484,-5.1484,-5.1445,-5.1269,-5.0879,-5.082,-5.0449,-4.9668,-4.918,-4.8906,-4.8867,-4.8867,-4.8887,-4.8926,-4.8926,-4.9141,-4.959,-4.959,-4.9824,-5.4561,-5.5591,-5.7349,-6.0136,-6.4128,-6.7995,-7.0355,-7.1861,-7.3016,-7.4021,-7.3869,-7.3305,-7.2166,-6.9906,-6.7667,-6.6261,-6.5724,-6.5861,-6.6908,-6.8489,-7.0217,-7.2219,-7.3355,-7.4164,-7.4677,-7.4674,-7.4598,-7.4598,-7.3286,-7.2041,-7.1077,-6.9262,-6.7504,-6.5754,-6.4558,-6.2879,-6.0727,-5.9677,-5.8415,-5.6842,-5.6387,-5.6117,-5.6035,-5.6324,-5.6407,-5.6304,-5.6097,-5.5973,-5.5848,-5.5476,-5.5269,-5.5103,-5.4399,-5.4068,-5.3944,-5.3489,-5.3323,-5.3261,-5.2806,-5.2578,-5.2433,-5.206,-5.1874,-5.1791,-5.1791,-5.1791,-5.1791,-5.1791,-5.1791,-5.2019,-5.295,-5.2899,-5.2825,-5.3726,-5.3473,-5.2992,-5.2992,-5.2124,-5.1426,-5.1426,-5.1426,-5.1426,-5.1426,-5.1426,-5.1426,-5.1426,-5.1426,-5.1562,-5.1894,-5.1933,-5.207,-5.2402,-5.2148,-5.1933,-5.1933,-5.1621,-5.1387,-5.1308,-5.0976,-5.0723,-5.0547,-4.9785,-4.9219,-4.8867,-4.8867,-4.9023,-4.9375,-4.9375,-4.9609,-5.0039,-5.0039,-5.0273,-5.4888,-5.6168,-5.8353,-6.2195,-6.6112,-6.9376,-7.0757,-7.1736,-7.2665,-7.3795,-7.3353,-7.2515,-7.1394,-6.8944,-6.6611,-6.5036,-6.4498,-6.4479,-6.514,-6.7064,-6.908,-7.0987,-7.2397,-7.3499,-7.4326,-7.392,-7.3619,-7.3619,-7.2117,-7.0714,-6.9381,-6.7631,-6.5841,-6.4027,-6.248,-6.0931,-5.934,-5.84,-5.7249,-5.589,-5.5662,-5.5434,-5.5248,-5.5455,-5.5538,-5.5538,-5.5331,-5.5103,-5.4896,-5.4648,-5.442,-5.4172,-5.3716,-5.353,-5.3468,-5.3013,-5.2847,-5.2785,-5.2329,-5.2164,-5.2122,-5.1874,-5.1791,-5.1791,-5.1791,-5.1791,-5.1791,-5.1791,-5.1791,-5.1866,-5.2385,-5.2436,-5.2483,-5.2985,-5.2832,-5.2587,-5.2587,-5.2008,-5.1426,-5.1426,-5.1426,-5.1426,-5.1426,-5.1426,-5.1426,-5.1426,-5.1426,-5.1582,-5.2031,-5.209,-5.2246,-5.2656,-5.2519,-5.2305,-5.2109,-5.1875,-5.166,-5.1445,-5.123,-5.1016,-5.082,-5.0371,-4.9941,-4.9492,-4.9277,-4.9394,-4.9844,-4.9844,-5.0058,-5.0488,-5.0488,-5.0703,-5.5214,-5.7047,-5.9834,-6.4304,-6.7467,-6.9702,-7.0706,-7.1359,-7.2037,-7.2966,-7.2345,-7.1387,-7.0464,-6.7871,-6.5462,-6.375,-6.3454,-6.3411,-6.3516,-6.5755,-6.8125,-6.9803,-7.1415,-7.2787,-7.3803,-7.3047,-7.2539,-7.2439,-7.0851,-6.9205,-6.7771,-6.5944,-6.4094,-6.219,-6.0326,-5.8858,-5.774,-5.6875,-5.5972,-5.4958,-5.4958,-5.4731,-5.4317,-5.4668,-5.4875,-5.4938,-5.4565,-5.4151,-5.3737,-5.3737,-5.3509,-5.3178,-5.3095,-5.3054,-5.3013,-5.2536,-5.2371,-5.2309,-5.1936,-5.1791,-5.1791,-5.1791,-5.1791,-5.1791,-5.1791,-5.1791,-5.1791,-5.1791,-5.1791,-5.1804,-5.1688,-5.1953,-5.2234,-5.2208,-5.2076,-5.2104,-5.2201,-5.1814,-5.1426,-5.1426,-5.1426,-5.1426,-5.1426,-5.1426,-5.1465,-5.1523,-5.1543,-5.1719,-5.2246,-5.2305,-5.2461,-5.2891,-5.2871,-5.2656,-5.2226,-5.2129,-5.1894,-5.1465,-5.1426,-5.1269,-5.0937,-5.084,-5.0683,-5.0391,-4.9902,-4.9844,-5.0293,-5.0293,-5.0508,-5.0918,-5.0918,-5.1094,-5.5089,-5.8704,-6.2797,-6.5358,-6.7744,-6.9602,-7.0229,-7.0807,-7.1234,-7.1384,-7.0973,-7.0483,-6.9792,-6.6781,-6.3832,-6.22,-6.1588,-6.1495,-6.2007,-6.4035,-6.6195,-6.8221,-6.9741,-7.0928,-7.1534,-7.1831,-7.1811,-7.1334,-6.9085,-6.7246,-6.6174,-6.301,-6.0646,-5.9526,-5.8363,-5.7123,-5.5725,-5.5567,-5.5031,-5.4027,-5.4027,-5.3799,-5.3364,-5.3427,-5.3654,-5.4027,-5.3965,-5.3675,-5.3282,-5.3282,-5.324,-5.3137,-5.2743,-5.2578,-5.2536,-5.206,-5.1895,-5.1874,-5.1812,-5.1791,-5.1791,-5.1791,-5.1791,-5.1791,-5.1791,-5.1791,-5.1791,-5.1791,-5.1791,-5.1804,-5.1688,-5.1675,-5.1671,-5.1733,-5.1595,-5.162,-5.2104,-5.1814,-5.1426,-5.1426,-5.1426,-5.1426,-5.1426,-5.1426,-5.1562,-5.1933,-5.1992,-5.2285,-5.3086,-5.3183,-5.3359,-5.3808,-5.3496,-5.3086,-5.2656,-5.2285,-5.1894,-5.1465,-5.1426,-5.1406,-5.1348,-5.0996,-5.0957,-5.125,-5.0488,-5.0293,-5.0723,-5.0723,-5.0937,-5.1348,-5.1348,-5.1387,-5.6244,-5.9307,-6.2446,-6.463,-6.6865,-6.8673,-6.9225,-6.9526,-6.9777,-7.0104,-6.9529,-6.885,-6.8388,-6.5682,-6.3219,-6.2009,-6.1265,-6.0912,-6.0912,-6.2702,-6.458,-6.5771,-6.7769,-6.9425,-7.0245,-7.042,-7.043,-7.0179,-6.7767,-6.5765,-6.4523,-6.1139,-5.8688,-5.7414,-5.5861,-5.4738,-5.4133,-5.4133,-5.3935,-5.3468,-5.3468,-5.3364,-5.3178,-5.3178,-5.3282,-5.3468,-5.3468,-5.322,-5.2785,-5.2785,-5.264,-5.2392,-5.2185,-5.2102,-5.2081,-5.1874,-5.1791,-5.1791,-5.1791,-5.1791,-5.1791,-5.1791,-5.1791,-5.1791,-5.1791,-5.1791,-5.1791,-5.1791,-5.1791,-5.1713,-5.1433,-5.1416,-5.1483,-5.1181,-5.1326,-5.1426,-5.1717,-5.1523,-5.1426,-5.1426,-5.1426,-5.1426,-5.1426,-5.1641,-5.1855,-5.2051,-5.2285,-5.2656,-5.3281,-5.3359,-5.3535,-5.3984,-5.3848,-5.3555,-5.3105,-5.2676,-5.2246,-5.1816,-5.1562,-5.1426,-5.1426,-5.125,-5.125,-5.1426,-5.084,-5.0742,-5.1152,-5.1152,-5.125,-5.1426,-5.1426,-5.1426,-5.657,-5.888,-6.1115,-6.3475,-6.5509,-6.7166,-6.802,-6.8196,-6.8371,-6.8899,-6.8304,-6.7525,-6.6886,-6.4863,-6.2807,-6.1491,-6.0688,-6.019,-5.9926,-6.1523,-6.3093,-6.393,-6.6099,-6.7889,-6.8896,-6.9049,-6.8995,-6.9024,-6.6758,-6.471,-6.3094,-6.0045,-5.7529,-5.5791,-5.4183,-5.3301,-5.3013,-5.3013,-5.295,-5.2826,-5.295,-5.295,-5.2826,-5.2826,-5.2826,-5.2847,-5.295,-5.2743,-5.2309,-5.2309,-5.2122,-5.1791,-5.1791,-5.1791,-5.1791,-5.1791,-5.1791,-5.1791,-5.1791,-5.1791,-5.1791,-5.1791,-5.1791,-5.1791,-5.1791,-5.1791,-5.1791,-5.1791,-5.1895,-5.1878,-5.1197,-5.1423,-5.1623,-5.0914,-5.1133,-5.1426,-5.1426,-5.1426,-5.1426,-5.1426,-5.1426,-5.1465,-5.1582,-5.1875,-5.2168,-5.2383,-5.2676,-5.3027,-5.3476,-5.3535,-5.3652,-5.4004,-5.4023,-5.3848,-5.3398,-5.2949,-5.2539,-5.2109,-5.168,-5.1426,-5.1426,-5.1426,-5.1426,-5.1426,-5.1133,-5.1113,-5.1426,-5.1426,-5.1426,-5.1426,-5.1426,-5.1426,-5.5064,-5.7148,-5.9508,-6.2245,-6.3776,-6.5057,-6.6689,-6.7066,-6.7216,-6.7769,-6.7452,-6.6829,-6.5867,-6.4063,-6.2105,-6.0044,-5.8911,-5.845,-5.8783,-6.0267,-6.1867,-6.3273,-6.4905,-6.6251,-6.7241,-6.7686,-6.7976,-6.7919,-6.5995,-6.3988,-6.2124,-5.9634,-5.7166,-5.479,-5.4195,-5.3412,-5.2536,-5.2536,-5.2309,-5.1874,-5.2309,-5.2288,-5.1874,-5.1874,-5.1874,-5.1895,-5.2329,-5.2267,-5.1833,-5.1833,-5.1812,-5.1791,-5.1791,-5.1791,-5.1791,-5.1791,-5.1791,-5.1791,-5.1791,-5.1791,-5.1791,-5.1791,-5.1791,-5.1791,-5.1791,-5.1791,-5.1791,-5.1791,-5.2122,-5.227,-5.1278,-5.1645,-5.2003,-5.0993,-5.1133,-5.1426,-5.1426,-5.1426,-5.1426,-5.1426,-5.1426,-5.1562,-5.1973,-5.207,-5.2363,-5.3183,-5.332,-5.3496,-5.3945,-5.4004,-5.4004,-5.4023,-5.4023,-5.3848,-5.3398,-5.2949,-5.2539,-5.2109,-5.168,-5.1426,-5.1426,-5.1426,-5.1426,-5.1426,-5.1406,-5.1406,-5.1426,-5.1426,-5.1426,-5.1426,-5.1426,-5.1426,-5.3858,-5.5415,-5.7248,-6.001,-6.1793,-6.3224,-6.458,-6.5132,-6.5409,-6.5609,-6.585,-6.557,-6.4271,-6.381,-6.2944,-6.093,-6.0089,-5.9256,-5.8062,-5.8686,-5.9492,-6.0013,-6.1705,-6.3502,-6.5096,-6.595,-6.665,-6.7292,-6.5668,-6.3875,-6.1912,-5.9623,-5.7155,-5.4711,-5.3596,-5.2751,-5.204,-5.204,-5.1957,-5.1791,-5.1978,-5.1957,-5.1791,-5.1791,-5.1791,-5.1812,-5.1978,-5.1957,-5.1791,-5.1791,-5.1791,-5.1791,-5.1791,-5.1791,-5.1791,-5.1791,-5.1791,-5.1791,-5.1791,-5.1791,-5.1791,-5.1791,-5.1791,-5.1791,-5.1791,-5.1791,-5.1791,-5.1791,-5.2143,-5.2373,-5.1549,-5.1866,-5.2103,-5.1326,-5.1328,-5.1426,-5.1426,-5.1426,-5.1426,-5.1426,-5.1426,-5.1562,-5.2012,-5.2305,-5.2676,-5.3281,-5.3613,-5.3848,-5.4004,-5.4023,-5.4023,-5.4023,-5.4023,-5.3965,-5.3808,-5.3379,-5.2949,-5.2519,-5.209,-5.1719,-5.1445,-5.1426,-5.1426,-5.1426,-5.1426,-5.1426,-5.1426,-5.1426,-5.1426,-5.1426,-5.1426,-5.1582,-5.2553,-5.3833,-5.534,-5.7575,-5.9382,-6.0914,-6.2044,-6.2847,-6.3475,-6.3852,-6.4354,-6.4453,-6.3493,-6.3676,-6.3267,-6.1005,-6.011,-5.9133,-5.7651,-5.7885,-5.83,-5.8434,-5.9822,-6.1486,-6.3417,-6.4294,-6.5243,-6.6342,-6.5385,-6.3839,-6.1891,-5.9885,-5.7442,-5.4665,-5.3268,-5.2333,-5.2062,-5.1882,-5.1791,-5.1791,-5.1791,-5.1791,-5.1791,-5.1791,-5.1791,-5.1791,-5.1791,-5.1791,-5.1791,-5.1791,-5.1791,-5.1791,-5.1791,-5.1791,-5.1791,-5.1791,-5.1791,-5.1791,-5.1791,-5.1791,-5.1791,-5.1791,-5.1791,-5.1791,-5.1791,-5.1791,-5.1791,-5.1791,-5.2155,-5.2303,-5.1771,-5.1803,-5.1844,-5.1464,-5.1426,-5.1426,-5.1426,-5.1426,-5.1426,-5.1426,-5.1543,-5.1777,-5.2207,-5.2637,-5.3086,-5.3516,-5.3848,-5.4023,-5.4023,-5.4023,-5.4023,-5.4023,-5.4023,-5.4023,-5.4023,-5.3613,-5.3183,-5.2734,-5.2324,-5.1894,-5.1445,-5.1582,-5.1582,-5.1426,-5.1719,-5.1797,-5.1641,-5.1504,-5.1504,-5.1641,-5.1641,-5.1875,0.0,0.0,0.0,-5.5039,-5.6595,-5.8102,-5.9156,-6.0261,-6.1391,-6.2496,-6.3199,-6.3585,-6.3692,-6.3707,-6.286,-6.0077,-5.8916,-5.812,-5.7502,-5.7841,-5.8401,-5.8876,-5.9345,-6.0429,-6.2421,-6.2963,-6.3826,-6.5248,-6.4925,-6.3755,-6.1907,-6.0323,-5.7993,-5.4719,-5.3298,-5.2492,-5.2492,-5.2062,-5.1791,-5.1791,-5.1791,-5.1791,-5.1791,-5.1791,-5.1791,-5.1791,-5.1791,-5.1791,-5.1791,-5.1791,-5.1791,-5.1791,-5.1791,-5.1791,-5.1791,-5.1791,-5.1791,-5.1791,-5.1791,-5.1791,-5.1791,-5.1791,-5.1791,-5.1791,-5.1791,-5.1791,-5.1791,-5.1791,-5.2087,-5.232,-5.1779,-5.1567,-5.1426,-5.1426,-5.1426,-5.1426,-5.1426,-5.1426,-5.1426,-5.1426,-5.1777,-5.2207,-5.2637,-5.3066,-5.3516,-5.3965,-5.4023,-5.4023,-5.4023,-5.4023,-5.4023,-5.4023,-5.4023,-5.4023,-5.4023,-5.3633,-5.3203,-5.2754,-5.2344,-5.1914,-5.1484,-5.1875,-5.1894,-5.1484,-5.2285,-5.2519,-5.2109,-5.168,-5.168,-5.2109,-5.2109,-5.2344,-5.0494,0.0,0.0,0.0,0.0,0.0,-5.6972,-5.8001,-5.9106,-6.0186,-6.0864,-6.1336,-6.1832,-6.1989,-6.1664,-6.0587,-6.0282,-5.9826,-5.8547,-5.83,-5.8271,-5.8355,-5.8599,-5.9471,-6.1455,-6.2034,-6.3032,-6.4789,-6.4753,-6.4012,-6.2763,-5.971,-5.7106,-5.5137,-5.4099,-5.3209,-5.2492,-5.2402,-5.2152,-5.1791,-5.1791,-5.1791,-5.1791,-5.1791,-5.1791,-5.1791,-5.1791,-5.1791,-5.1791,-5.1791,-5.1791,-5.1791,-5.1791,-5.1791,-5.1791,-5.1791,-5.1791,-5.1791,-5.1791,-5.1791,-5.1791,-5.1791,-5.1791,-5.1791,-5.1791,-5.1791,-5.1791,-5.1791,-5.2383,-5.295,-5.266,-5.2023,-5.1426,-5.1426,-5.1426,-5.1426,-5.1426,-5.1426,-5.1426,-5.1426,-5.1777,-5.2207,-5.2637,-5.3066,-5.3516,-5.3965,-5.4023,-5.4023,-5.4023,-5.4023,-5.4023,-5.4023,-5.4023,-5.4023,-5.4023,-5.3926,-5.3652,-5.3203,-5.3066,-5.2812,-5.2363,-5.248,-5.248,-5.2363,-5.2598,-5.2656,-5.2539,-5.2422,-5.2422,-5.2539,-5.2851,-5.3066,-5.0268,-5.0896,-5.1548,-5.2101,0.0,0.0,-5.4436,-5.5541,-5.6821,-5.7901,-5.8755,-5.9558,-6.0337,-6.0676,-6.0811,-6.0571,-6.0832,-6.0698,-5.9552,-5.9177,-5.8922,-5.8794,-5.8639,-5.9091,-6.0415,-6.0795,-6.1658,-6.3346,-6.3375,-6.2981,-6.2188,-5.9867,-5.7917,-5.6536,-5.5401,-5.4276,-5.3119,-5.2671,-5.2242,-5.1791,-5.1791,-5.1791,-5.1791,-5.1791,-5.1791,-5.1791,-5.1791,-5.1791,-5.1791,-5.1791,-5.1791,-5.1791,-5.1791,-5.1791,-5.1791,-5.1791,-5.1791,-5.1791,-5.1791,-5.1791,-5.1791,-5.1791,-5.1791,-5.1791,-5.1791,-5.1791,-5.1791,-5.1791,-5.227,-5.2918,-5.2963,-5.2394,-5.1717,-5.1717,-5.1523,-5.1426,-5.1426,-5.1426,-5.1426,-5.1426,-5.1914,-5.2422,-5.2676,-5.3223,-5.373,-5.3984,-5.4023,-5.4023,-5.4023,-5.4023,-5.4023,-5.4023,-5.4023,-5.4023,-5.4023,-5.4023,-5.3848,-5.3398,-5.3359,-5.3164,-5.2734,-5.2891,-5.2891,-5.2715,-5.2891,-5.2988,-5.2988,-5.2793,-5.2812,-5.2988,-5.3437,-5.3633,-5.0368,-5.0569,-5.072,-5.1172,-5.1699,0.0,-5.2026,-5.3206,-5.4612,-5.5717,-5.6771,-5.7851,-5.893,-5.9583,-5.9985,-6.0035,-6.0647,-6.0957,-6.0411,-6.031,-6.0229,-5.9809,-5.9288,-5.9246,-5.9709,-5.9709,-6.0322,-6.1648,-6.1571,-6.1292,-6.0782,-6.0315,-5.9534,-5.8259,-5.6882,-5.5554,-5.4034,-5.3098,-5.2402,-5.1819,-5.1771,-5.1791,-5.1791,-5.1791,-5.1791,-5.1791,-5.1791,-5.1791,-5.1791,-5.1791,-5.1791,-5.1791,-5.1791,-5.1791,-5.1791,-5.1791,-5.1791,-5.1791,-5.1791,-5.1791,-5.1791,-5.1791,-5.1791,-5.1791,-5.1791,-5.1791,-5.1812,-5.1936,-5.2149,-5.2523,-5.2942,-5.2684,-5.2201,-5.2201,-5.1814,-5.1426,-5.1426,-5.1426,-5.1426,-5.1426,-5.209,-5.2656,-5.2695,-5.3398,-5.3965,-5.4023,-5.4023,-5.4023,-5.4023,-5.4023,-5.4023,-5.4023,-5.4023,-5.4023,-5.4023,-5.4023,-5.3867,-5.3457,-5.3437,-5.3262,-5.2871,-5.3223,-5.3242,-5.2871,-5.3242,-5.3418,-5.3359,-5.3027,-5.3047,-5.3437,-5.3848,-5.4023,-5.1096,-5.1448,-5.1699,-5.1373,-5.1699,0.0,-5.1548,-5.2026,-5.2879,-5.3959,-5.4737,-5.5541,-5.6646,-5.7298,-5.7826,-5.8303,-5.9205,-6.0118,-6.1014,-6.1227,-6.1305,-6.1146,-6.0757,-6.0584,-6.0695,-6.0695,-6.0869,-6.1216,-6.1168,-6.0894,-6.0363,-6.0147,-5.9642,-5.8686,-5.8002,-5.6678,-5.4477,-5.3904,-5.3038,-5.1789,-5.1806,-5.1791,-5.1791,-5.1791,-5.1791,-5.1791,-5.1791,-5.1791,-5.1791,-5.1791,-5.1791,-5.1791,-5.1791,-5.1791,-5.1791,-5.1791,-5.1791,-5.1791,-5.1791,-5.1791,-5.1791,-5.1791,-5.1791,-5.1791,-5.1791,-5.1791,-5.1957,-5.2702,-5.2642,-5.2597,-5.342,-5.2876,-5.2201,-5.2201,-5.1814,-5.1426,-5.1426,-5.1426,-5.1426,-5.1426,-5.1855,-5.2305,-5.2656,-5.3144,-5.3613,-5.3965,-5.4023,-5.4023,-5.4023,-5.4023,-5.4023,-5.4023,-5.4023,-5.4023,-5.4023,-5.4023,-5.3984,-5.3906,-5.3906,-5.3867,-5.3769,-5.3848,-5.3867,-5.3769,-5.3848,-5.373,-5.3359,-5.3633,-5.3808,-5.3906,-5.3984,-5.4023,-5.2352,-5.2101,-5.1749,-5.2026,-5.1674,0.0,0.0,-5.1071,-5.1498,-5.2327,-5.2955,-5.3582,-5.4411,-5.5013,-5.5566,-5.6143,-5.7374,-5.8578,-5.9473,-6.0645,-6.1335,-6.1088,-6.0646,-6.0411,-6.0532,-6.0302,-6.0058,-5.9977,-5.9935,-5.9758,-5.9497,-5.9895,-5.9811,-5.9134,-5.8451,-5.7066,-5.5015,-5.3801,-5.2576,-5.1417,-5.1183,-5.1108,-5.1129,-5.1357,-5.146,-5.146,-5.1708,-5.1791,-5.1791,-5.1791,-5.1791,-5.1791,-5.1791,-5.1791,-5.1791,-5.1791,-5.1791,-5.1791,-5.1791,-5.1791,-5.1791,-5.1791,-5.1791,-5.1791,-5.1791,-5.1957,-5.2288,-5.2992,-5.3137,-5.3279,-5.3978,-5.3377,-5.2587,-5.2587,-5.2008,-5.1426,-5.1426,-5.1426,-5.1426,-5.1426,-5.1601,-5.1894,-5.2324,-5.293,-5.3437,-5.3652,-5.3887,-5.4023,-5.4023,-5.4023,-5.4023,-5.4023,-5.4023,-5.4023,-5.4023,-5.4023,-5.4023,-5.4023,-5.4023,-5.4023,-5.4023,-5.4023,-5.3926,-5.3691,-5.3926,-5.3808,-5.3359,-5.3808,-5.4023,-5.4023,-5.4023,-5.4023,-5.3658,-5.2904,-5.2101,-5.2879,-5.19,-5.072,0.0,0.0,0.0,-5.0996,-5.1473,-5.195,-5.2503,-5.2955,-5.3457,-5.4135,-5.5465,-5.662,-5.7323,-5.9031,-6.0205,-6.0313,-6.0039,-5.9884,-5.9943,-5.9467,-5.9045,-5.8634,-5.8404,-5.8281,-5.8375,-5.8959,-5.9296,-5.9246,-5.822,-5.6967,-5.5325,-5.3492,-5.2109,-5.1089,-5.0647,-5.0425,-5.0425,-5.0798,-5.1025,-5.1129,-5.1501,-5.1729,-5.1791,-5.1791,-5.1791,-5.1791,-5.1791,-5.1791,-5.1791,-5.1791,-5.1791,-5.1791,-5.1791,-5.1791,-5.1791,-5.1791,-5.1791,-5.1791,-5.1791,-5.206,-5.2474,-5.3033,-5.3447,-5.3746,-5.4209,-5.3664,-5.2992,-5.2896,-5.2124,-5.1426,-5.1426,-5.1426,-5.1426,-5.1426,-5.1426,-5.1562,-5.2012,-5.2656,-5.3144,-5.3223,-5.3613,-5.3906,-5.3906,-5.3965,-5.4023,-5.4023,-5.4023,-5.4023,-5.4023,-5.4023,-5.4023,-5.4023,-5.4023,-5.4023,-5.4023,-5.4023,-5.3808,-5.3379,-5.3808,-5.3808,-5.3359,-5.3808,-5.4023,-5.4023,-5.4023,-5.4023,-5.4561,-5.4336,-5.411,-5.3708,-5.2754,-5.1774,-5.1297,0.0,-4.9841,-5.0393,0.0,-5.0795,-5.1348,0.0,0.0,-5.2955,-5.3658,-5.4461,-5.5516,-5.6319,-5.7499,-5.938,-5.9954,-6.0122,-5.9747,-5.9041,-5.8434,-5.8011,-5.6931,-5.6468,-5.6905,-5.6659,-5.6973,-5.8173,-5.7261,-5.6272,-5.5251,-5.3783,-5.2477,-5.1101,-5.0656,-5.0425,-5.0425,-5.0466,-5.0715,-5.1108,-5.117,-5.1419,-5.1791,-5.1791,-5.1791,-5.1791,-5.1791,-5.1791,-5.1791,-5.1791,-5.1791,-5.1791,-5.1791,-5.1791,-5.1791,-5.1791,-5.1791,-5.1791,-5.1791,-5.1833,-5.206,-5.293,-5.322,-5.3354,-5.3726,-5.3473,-5.2896,-5.2394,-5.1814,-5.1426,-5.1426,-5.1426,-5.1426,-5.1426,-5.1426,-5.1562,-5.2012,-5.2168,-5.2363,-5.2734,-5.3164,-5.3437,-5.3437,-5.3789,-5.4023,-5.4023,-5.4023,-5.4023,-5.4023,-5.4023,-5.4023,-5.4023,-5.4023,-5.4023,-5.4023,-5.4023,-5.3808,-5.3379,-5.3808,-5.3808,-5.3359,-5.3808,-5.4023,-5.4023,-5.4023,-5.4023,-5.5591,-5.5039,-5.4511,-5.426,-5.3155,-5.2051,-5.18,-5.087,-5.0243,-5.0795,0.0,0.0,0.0,0.0,0.0,0.0,-5.1925,-5.2578,-5.3356,-5.3959,-5.5114,-5.7323,-5.7801,-5.8127,-5.865,-5.8433,-5.8048,-5.7404,-5.6104,-5.5325,-5.5328,-5.5253,-5.5534,-5.6375,-5.5725,-5.5108,-5.4486,-5.2825,-5.1593,-5.0698,-4.9967,-4.9638,-4.9638,-4.9908,-5.028,-5.0736,-5.0984,-5.1377,-5.1791,-5.1791,-5.1791,-5.1791,-5.1791,-5.1791,-5.1791,-5.1791,-5.1791,-5.1791,-5.1791,-5.1791,-5.1791,-5.1791,-5.1791,-5.1791,-5.1791,-5.1998,-5.235,-5.2992,-5.3364,-5.3622,-5.4073,-5.3569,-5.2896,-5.2704,-5.2008,-5.1426,-5.1426,-5.1426,-5.1426,-5.1426,-5.1426,-5.1484,-5.168,-5.1914,-5.2148,-5.2324,-5.2715,-5.2988,-5.2988,-5.3359,-5.3633,-5.3633,-5.3867,-5.4023,-5.4023,-5.4023,-5.4023,-5.4023,-5.4023,-5.4023,-5.4023,-5.4023,-5.3945,-5.375,-5.3926,-5.3945,-5.375,-5.3945,-5.4023,-5.4023,-5.4023,-5.4023,-5.6445,-5.5742,-5.4988,-5.4838,-5.3658,-5.2477,-5.2176,-5.1473,-5.0996,-5.1423,-5.1172,0.0,0.0,0.0,-4.9992,-5.0569,0.0,-5.1247,-5.18,-5.2226,-5.3181,-5.5089,-5.5566,-5.6194,-5.7323,-5.7469,-5.7144,-5.642,-5.536,-5.4626,-5.4321,-5.4152,-5.4388,-5.4971,-5.4319,-5.3866,-5.3699,-5.1922,-5.0823,-5.04,-4.9486,-4.9059,-4.908,-4.9411,-4.9804,-5.0259,-5.0715,-5.1191,-5.1626,-5.175,-5.1791,-5.1791,-5.1791,-5.1791,-5.1791,-5.1791,-5.1791,-5.1791,-5.1791,-5.1791,-5.1791,-5.1791,-5.1791,-5.1791,-5.1791,-5.204,-5.2392,-5.2868,-5.3323,-5.3684,-5.4044,-5.3583,-5.2992,-5.28,-5.2104,-5.1426,-5.1426,-5.1426,-5.1426,-5.1426,-5.1426,-5.1426,-5.1426,-5.1699,-5.1914,-5.1914,-5.2266,-5.2578,-5.2695,-5.3086,-5.3398,-5.3535,-5.3828,-5.4023,-5.4023,-5.4023,-5.4023,-5.4023,-5.4023,-5.4023,-5.4023,-5.4023,-5.4023,-5.4023,-5.4023,-5.4023,-5.4023,-5.4023,-5.4023,-5.4023,-5.4023,-5.4023,-5.6923,-5.6595,-5.6018,-5.5491,-5.4511,-5.3381,-5.2352,-5.2076,-5.2051,-5.2076,-5.2076,-5.2051,-5.2051,-5.1147,-5.0569,-5.1147,-5.0795,0.0,0.0,-5.1322,-5.1749,-5.2904,-5.3959,-5.5039,-5.6168,-5.5927,-5.551,-5.504,-5.4654,-5.4342,-5.4053,-5.3325,-5.3401,-5.4334,-5.3101,-5.2686,-5.3101,-5.1769,-5.0823,-5.04,-4.9486,-4.9059,-4.9059,-4.908,-4.9349,-4.9804,-5.0259,-5.0694,-5.117,-5.1626,-5.1791,-5.1791,-5.1791,-5.1791,-5.1791,-5.1791,-5.1791,-5.1791,-5.1791,-5.1791,-5.1791,-5.1791,-5.1791,-5.1791,-5.1791,-5.1812,-5.1915,-5.2392,-5.2847,-5.3209,-5.3173,-5.3053,-5.2896,-5.2394,-5.1814,-5.1426,-5.1426,-5.1426,-5.1426,-5.1426,-5.1426,-5.1426,-5.1426,-5.1445,-5.1445,-5.1445,-5.1816,-5.2246,-5.2656,-5.3086,-5.3535,-5.3965,-5.4023,-5.4023,-5.4023,-5.4023,-5.4023,-5.4023,-5.4023,-5.4023,-5.4023,-5.4023,-5.4023,-5.4023,-5.4023,-5.4023,-5.4023,-5.4023,-5.4023,-5.4023,-5.4023,-5.4023,-5.77,-5.7474,-5.7097,-5.6168,-5.5089,-5.4185,-5.3808,-5.3181,-5.2854,-5.3582,-5.3155,-5.2653,-5.2653,-5.1749,-5.0921,-5.0745,-5.0544,-5.0368,0.0,-5.0167,-5.0444,-5.1172,-5.2578,-5.3758,-5.4486,-5.442,-5.4181,-5.3753,-5.3349,-5.3179,-5.3223,-5.262,-5.2569,-5.3356,-5.2175,-5.1608,-5.1747,-5.0675,-5.0082,-4.9912,-4.9401,-4.9059,-4.9059,-4.9059,-4.9328,-4.9849,-4.9908,-5.0404,-5.1129,-5.1274,-5.1522,-5.1791,-5.1791,-5.1791,-5.1791,-5.1791,-5.1791,-5.1791,-5.1791,-5.1791,-5.1791,-5.1791,-5.1791,-5.1791,-5.1791,-5.1791,-5.1895,-5.2371,-5.2826,-5.3282,-5.3529,-5.3318,-5.2992,-5.28,-5.2008,-5.1426,-5.1426,-5.1426,-5.1426,-5.1426,-5.1426,-5.1426,-5.1426,-5.166,-5.1758,-5.1465,-5.1797,-5.2129,-5.2285,-5.291,-5.3418,-5.3574,-5.3848,-5.4023,-5.4023,-5.4023,-5.4023,-5.4023,-5.4297,-5.4453,-5.4453,-5.4726,-5.4883,-5.4883,-5.4883,-5.4883,-5.4863,-5.459,-5.4453,-5.4453,-5.416,-5.4023,-5.8453,-5.8177,-5.7775,-5.7223,-5.6269,-5.534,-5.4938,-5.4461,-5.4235,-5.4762,-5.4285,-5.3733,-5.3557,-5.2603,-5.1674,0.0,0.0,-5.0218,0.0,-4.959,-4.9791,-5.0343,-5.1548,-5.2477,-5.2804,-5.3005,-5.2917,-5.251,-5.2581,-5.2678,-5.2695,-5.2601,-5.2573,-5.2786,-5.1908,-5.1345,-5.109,-5.0336,-4.9912,-4.9742,-4.9315,-4.9059,-4.9059,-4.9059,-4.9224,-4.9514,-4.968,-5.0177,-5.088,-5.1046,-5.1377,-5.1791,-5.1791,-5.1791,-5.1791,-5.1791,-5.1791,-5.1791,-5.1791,-5.1791,-5.1791,-5.1791,-5.1791,-5.1791,-5.1791,-5.1791,-5.1853,-5.2164,-5.2578,-5.3033,-5.3188,-5.2999,-5.2695,-5.276,-5.2008,-5.1426,-5.1426,-5.1426,-5.1426,-5.1426,-5.1426,-5.1426,-5.1426,-5.1797,-5.1992,-5.1699,-5.2031,-5.2363,-5.2519,-5.3008,-5.3418,-5.3574,-5.3867,-5.4023,-5.4023,-5.418,-5.4258,-5.4258,-5.4668,-5.4902,-5.4902,-5.5156,-5.5312,-5.5312,-5.5312,-5.5312,-5.5312,-5.5039,-5.4824,-5.4668,-5.4394,-5.418]},{"header":{"parameterUnit":"m.s-1","parameterCategory":1,"la1":30.6,"la2":29.2853,"lo1":-89.7004,"lo2":-87.6739,"dy":0.0162,"dx":0.0183,"nx":112,"ny":82,"refTime":"2024-04-26T00:00:00:Z","depth":0,"parameterNumber":3,"parameterNumberName":"V-component_of_WINDS"},"data":[0.0,0.0,0.0,0.0,0.0,0.0,0.0,0.0,0.0,0.0,0.0,0.0,0.0,0.0,0.0,0.0,0.0,0.0,0.0,0.0,0.0,0.0,0.0,0.0,0.0,0.0,0.0,0.0,0.0,0.0,0.0,0.0,0.0,0.0,0.0,0.0,0.0,0.0,0.0,0.0,0.0,0.0,0.0,0.0,0.0,0.0,0.0,0.0,0.0,0.0,0.0,0.0,0.0,0.0,0.0,0.0,0.0,0.0,0.0,0.0,0.0,0.0,0.0,0.0,0.0,0.0,0.0,0.0,0.0,0.0,0.0,0.0,0.0,0.0,0.0,0.0,0.0,0.0,0.0,0.0,0.0,0.0,0.0,0.0,0.0,0.0,0.0,0.0,0.0,0.0,6.7912,7.0227,7.4425,7.7231,7.7672,7.5291,7.27,7.0092,0.0,0.0,0.0,0.0,0.0,0.0,0.0,0.0,0.0,0.0,0.0,0.0,0.0,0.0,0.0,0.0,0.0,0.0,0.0,0.0,0.0,0.0,0.0,0.0,0.0,0.0,0.0,0.0,0.0,0.0,0.0,0.0,0.0,0.0,0.0,0.0,0.0,0.0,0.0,0.0,0.0,0.0,0.0,0.0,0.0,0.0,0.0,0.0,0.0,0.0,0.0,0.0,0.0,0.0,0.0,0.0,0.0,0.0,0.0,0.0,0.0,0.0,0.0,0.0,0.0,0.0,0.0,0.0,0.0,0.0,0.0,0.0,0.0,0.0,0.0,0.0,0.0,0.0,0.0,0.0,0.0,0.0,0.0,0.0,0.0,0.0,0.0,0.0,0.0,0.0,0.0,0.0,0.0,0.0,0.0,0.0,0.0,0.0,0.0,0.0,0.0,0.0,0.0,0.0,7.046,7.608,7.8755,8.0342,8.0669,7.7864,7.5049,7.2485,0.0,0.0,0.0,0.0,0.0,0.0,0.0,0.0,0.0,0.0,0.0,0.0,0.0,0.0,0.0,0.0,0.0,0.0,0.0,0.0,0.0,0.0,0.0,0.0,0.0,0.0,0.0,0.0,0.0,0.0,0.0,0.0,0.0,0.0,0.0,0.0,0.0,0.0,0.0,0.0,0.0,0.0,0.0,0.0,0.0,0.0,0.0,0.0,0.0,0.0,0.0,0.0,0.0,0.0,0.0,0.0,0.0,0.0,0.0,0.0,0.0,0.0,0.0,0.0,0.0,0.0,0.0,0.0,0.0,0.0,0.0,0.0,0.0,0.0,0.0,0.0,0.0,0.0,0.0,0.0,0.0,0.0,0.0,0.0,0.0,0.0,0.0,0.0,0.0,0.0,0.0,0.0,0.0,0.0,0.0,0.0,0.0,0.0,0.0,0.0,0.0,0.0,0.0,7.1979,7.5158,7.9414,8.1274,8.2168,8.1979,7.9327,7.6267,7.3074,6.8112,0.0,0.0,0.0,0.0,0.0,0.0,0.0,0.0,0.0,0.0,0.0,0.0,0.0,0.0,0.0,0.0,0.0,0.0,0.0,0.0,0.0,0.0,0.0,0.0,0.0,0.0,0.0,0.0,0.0,0.0,0.0,0.0,0.0,0.0,0.0,0.0,0.0,0.0,0.0,0.0,0.0,0.0,0.0,0.0,0.0,0.0,0.0,0.0,0.0,0.0,0.0,0.0,0.0,0.0,0.0,0.0,0.0,0.0,0.0,0.0,0.0,0.0,0.0,0.0,0.0,0.0,0.0,0.0,0.0,0.0,0.0,0.0,0.0,0.0,0.0,0.0,0.0,0.0,0.0,0.0,0.0,0.0,0.0,0.0,0.0,0.0,0.0,0.0,0.0,0.0,0.0,0.0,0.0,0.0,0.0,0.0,0.0,0.0,0.0,0.0,0.0,0.0,7.585,7.9367,8.1716,8.3125,8.3539,8.2858,8.0284,7.7015,7.333,6.9722,0.0,0.0,0.0,0.0,0.0,0.0,0.0,0.0,0.0,0.0,0.0,0.0,0.0,0.0,0.0,0.0,0.0,0.0,0.0,0.0,0.0,0.0,0.0,0.0,0.0,0.0,0.0,0.0,0.0,0.0,0.0,0.0,0.0,0.0,0.0,0.0,0.0,0.0,0.0,0.0,0.0,0.0,0.0,0.0,0.0,0.0,0.0,0.0,0.0,0.0,0.0,0.0,0.0,0.0,0.0,0.0,0.0,0.0,0.0,0.0,0.0,0.0,0.0,0.0,0.0,0.0,0.0,0.0,0.0,0.0,0.0,0.0,0.0,0.0,0.0,0.0,0.0,0.0,0.0,0.0,0.0,0.0,0.0,0.0,0.0,0.0,0.0,0.0,0.0,0.0,0.0,0.0,0.0,0.0,0.0,0.0,0.0,0.0,0.0,0.0,0.0,0.0,7.8119,8.1347,8.3304,8.4217,8.4367,8.3709,8.066,7.7371,7.4023,7.0734,0.0,0.0,0.0,0.0,0.0,0.0,0.0,0.0,0.0,0.0,0.0,0.0,0.0,0.0,0.0,0.0,0.0,0.0,0.0,0.0,0.0,0.0,0.0,0.0,0.0,0.0,0.0,0.0,0.0,0.0,0.0,0.0,0.0,0.0,0.0,0.0,0.0,0.0,0.0,0.0,0.0,0.0,0.0,0.0,0.0,0.0,0.0,0.0,0.0,0.0,0.0,0.0,0.0,0.0,0.0,0.0,0.0,0.0,0.0,0.0,0.0,0.0,0.0,0.0,0.0,0.0,0.0,0.0,0.0,0.0,0.0,0.0,0.0,0.0,0.0,0.0,0.0,0.0,0.0,0.0,0.0,0.0,0.0,0.0,0.0,0.0,0.0,0.0,0.0,0.0,0.0,0.0,0.0,0.0,0.0,0.0,0.0,0.0,0.0,0.0,0.0,0.0,7.834,8.1392,8.2948,8.4085,8.4115,8.2649,8.0225,7.7203,7.3522,0.0,0.0,0.0,0.0,0.0,0.0,0.0,0.0,0.0,0.0,0.0,0.0,0.0,0.0,0.0,0.0,0.0,0.0,0.0,0.0,0.0,0.0,0.0,0.0,0.0,0.0,0.0,0.0,0.0,0.0,0.0,0.0,0.0,0.0,0.0,0.0,0.0,0.0,0.0,0.0,0.0,0.0,0.0,0.0,0.0,0.0,0.0,0.0,0.0,0.0,0.0,0.0,0.0,0.0,0.0,0.0,0.0,0.0,0.0,0.0,0.0,0.0,0.0,0.0,0.0,0.0,0.0,0.0,0.0,0.0,0.0,0.0,0.0,0.0,0.0,0.0,0.0,0.0,0.0,0.0,0.0,0.0,0.0,0.0,0.0,0.0,0.0,0.0,0.0,0.0,0.0,0.0,0.0,0.0,0.0,0.0,0.0,0.0,0.0,0.0,0.0,0.0,7.5138,7.843,8.1153,8.2888,8.3876,8.3696,8.1931,7.9956,7.7113,7.3163,0.0,0.0,0.0,0.0,0.0,0.0,0.0,0.0,0.0,0.0,0.0,0.0,0.0,0.0,0.0,0.0,0.0,0.0,0.0,0.0,0.0,0.0,0.0,0.0,0.0,0.0,0.0,0.0,0.0,0.0,0.0,0.0,0.0,0.0,0.0,0.0,0.0,0.0,0.0,0.0,0.0,0.0,0.0,0.0,0.0,0.0,0.0,0.0,0.0,0.0,0.0,0.0,0.0,0.0,0.0,0.0,0.0,0.0,0.0,0.0,0.0,0.0,0.0,0.0,0.0,0.0,0.0,0.0,0.0,0.0,0.0,0.0,0.0,0.0,0.0,0.0,0.0,0.0,0.0,0.0,0.0,0.0,0.0,0.0,0.0,0.0,0.0,0.0,0.0,0.0,0.0,0.0,0.0,0.0,0.0,0.0,0.0,0.0,0.0,0.0,0.0,0.0,7.6485,7.8579,8.0823,8.3427,8.3726,8.3187,8.1871,7.9926,7.7113,0.0,0.0,0.0,0.0,0.0,0.0,0.0,0.0,0.0,0.0,0.0,0.0,0.0,0.0,0.0,0.0,0.0,0.0,0.0,0.0,0.0,0.0,0.0,0.0,0.0,0.0,0.0,0.0,0.0,0.0,0.0,0.0,0.0,0.0,0.0,0.0,0.0,0.0,0.0,0.0,0.0,0.0,0.0,0.0,0.0,0.0,0.0,0.0,0.0,0.0,0.0,0.0,0.0,0.0,0.0,0.0,0.0,0.0,0.0,0.0,0.0,0.0,0.0,0.0,0.0,0.0,0.0,0.0,0.0,0.0,0.0,0.0,0.0,0.0,0.0,0.0,0.0,0.0,0.0,0.0,0.0,0.0,0.0,0.0,0.0,0.0,0.0,0.0,0.0,0.0,0.0,0.0,0.0,0.0,0.0,0.0,0.0,0.0,0.0,0.0,0.0,0.0,0.0,7.6365,7.8579,8.0644,8.2828,8.3457,8.3008,8.1242,7.9686,7.7113,7.3163,0.0,0.0,0.0,0.0,0.0,0.0,0.0,0.0,0.0,0.0,0.0,0.0,0.0,0.0,0.0,0.0,0.0,0.0,0.0,0.0,0.0,0.0,0.0,0.0,0.0,0.0,0.0,0.0,0.0,0.0,0.0,0.0,0.0,0.0,0.0,0.0,0.0,0.0,0.0,0.0,0.0,0.0,0.0,0.0,0.0,0.0,0.0,0.0,0.0,0.0,0.0,0.0,0.0,0.0,0.0,0.0,0.0,0.0,0.0,0.0,0.0,0.0,0.0,0.0,0.0,0.0,0.0,0.0,0.0,0.0,0.0,0.0,0.0,0.0,0.0,0.0,0.0,0.0,0.0,0.0,0.0,0.0,0.0,0.0,0.0,0.0,0.0,0.0,0.0,0.0,0.0,0.0,0.0,0.0,0.0,0.0,0.0,0.0,0.0,0.0,0.0,0.0,7.6365,7.834,8.0255,8.2529,8.3098,8.2649,8.0943,7.9327,7.6844,7.3133,0.0,0.0,0.0,0.0,0.0,0.0,0.0,0.0,0.0,0.0,0.0,0.0,0.0,0.0,0.0,0.0,0.0,0.0,0.0,0.0,0.0,0.0,0.0,0.0,0.0,0.0,0.0,0.0,0.0,0.0,0.0,0.0,0.0,0.0,0.0,0.0,0.0,0.0,0.0,0.0,0.0,0.0,0.0,0.0,0.0,0.0,0.0,0.0,0.0,0.0,0.0,0.0,0.0,0.0,0.0,0.0,0.0,0.0,0.0,0.0,0.0,0.0,0.0,0.0,0.0,0.0,0.0,0.0,0.0,0.0,0.0,0.0,0.0,0.0,0.0,0.0,0.0,0.0,0.0,0.0,0.0,0.0,0.0,0.0,0.0,0.0,0.0,0.0,0.0,0.0,0.0,0.0,0.0,0.0,0.0,0.0,0.0,0.0,0.0,0.0,0.0,0.0,7.6245,7.7891,7.9776,8.2455,8.2709,8.223,8.0913,7.9028,7.6485,7.3133,0.0,0.0,0.0,0.0,0.0,0.0,0.0,0.0,0.0,0.0,0.0,0.0,0.0,0.0,0.0,0.0,0.0,0.0,0.0,0.0,0.0,0.0,0.0,0.0,0.0,0.0,0.0,0.0,0.0,0.0,0.0,0.0,0.0,0.0,0.0,0.0,0.0,0.0,0.0,0.0,0.0,0.0,0.0,0.0,0.0,0.0,0.0,0.0,0.0,0.0,0.0,0.0,0.0,0.0,0.0,0.0,0.0,0.0,0.0,0.0,7.7293,7.7113,0.0,0.0,0.0,0.0,0.0,0.0,0.0,0.0,0.0,0.0,0.0,0.0,0.0,0.0,0.0,0.0,0.0,0.0,0.0,0.0,0.0,0.0,0.0,0.0,0.0,0.0,0.0,0.0,0.0,0.0,0.0,0.0,0.0,0.0,0.0,0.0,0.0,0.0,0.0,0.0,7.4929,7.7352,7.9627,8.1751,8.2469,8.223,8.0913,7.9447,7.6963,7.3163,7.0799,0.0,0.0,0.0,0.0,0.0,0.0,0.0,0.0,0.0,0.0,0.0,0.0,0.0,0.0,0.0,0.0,0.0,0.0,0.0,0.0,0.0,0.0,0.0,0.0,0.0,0.0,0.0,0.0,0.0,0.0,0.0,0.0,0.0,0.0,0.0,0.0,0.0,0.0,0.0,0.0,0.0,0.0,0.0,0.0,0.0,0.0,0.0,0.0,0.0,0.0,0.0,0.0,0.0,0.0,0.0,0.0,0.0,0.0,0.0,7.8489,7.7801,0.0,0.0,0.0,0.0,0.0,0.0,0.0,0.0,0.0,0.0,0.0,0.0,0.0,0.0,0.0,0.0,0.0,0.0,0.0,0.0,0.0,0.0,0.0,0.0,0.0,0.0,0.0,0.0,0.0,0.0,0.0,0.0,0.0,0.0,0.0,0.0,0.0,0.0,0.0,0.0,7.454,7.7173,7.9567,8.1572,8.238,8.223,8.0913,7.9267,7.6904,7.3582,7.0949,0.0,0.0,0.0,0.0,0.0,0.0,0.0,0.0,0.0,0.0,0.0,0.0,0.0,0.0,0.0,0.0,0.0,0.0,0.0,0.0,0.0,0.0,0.0,0.0,0.0,0.0,0.0,0.0,0.0,0.0,0.0,0.0,0.0,0.0,0.0,0.0,0.0,0.0,0.0,0.0,0.0,0.0,0.0,0.0,0.0,0.0,0.0,0.0,0.0,0.0,0.0,0.0,0.0,8.3726,8.3816,8.3008,8.3547,8.3487,8.2888,8.1242,7.9746,7.8489,7.825,0.0,0.0,0.0,0.0,0.0,0.0,0.0,0.0,0.0,0.0,0.0,0.0,0.0,0.0,0.0,0.0,0.0,0.0,0.0,0.0,0.0,0.0,7.8296,7.8416,7.8308,7.8065,7.7735,0.0,0.0,0.0,0.0,0.0,0.0,0.0,0.0,0.0,0.0,0.0,7.439,7.7083,7.9507,8.1392,8.22,8.211,8.0883,7.904,7.6794,7.4308,7.1318,6.8983,0.0,0.0,0.0,0.0,0.0,0.0,0.0,0.0,0.0,0.0,0.0,0.0,0.0,0.0,0.0,0.0,0.0,0.0,0.0,0.0,0.0,0.0,0.0,0.0,0.0,0.0,0.0,0.0,0.0,0.0,0.0,0.0,7.468,7.5429,0.0,0.0,0.0,0.0,0.0,0.0,0.0,0.0,0.0,0.0,0.0,0.0,0.0,8.2649,8.3217,8.3965,8.4893,8.603,8.624,8.6838,8.7766,8.7856,8.7856,8.7766,8.7496,0.0,8.1153,8.0016,0.0,0.0,0.0,0.0,0.0,0.0,0.0,0.0,0.0,0.0,0.0,0.0,0.0,0.0,0.0,0.0,0.0,0.0,0.0,0.0,0.0,0.0,8.0282,8.0862,8.1205,8.1309,8.107,7.8841,7.6365,7.4365,7.3425,7.2206,0.0,0.0,0.0,0.0,0.0,0.0,7.3762,7.6814,7.9327,8.0764,8.1512,8.1601,8.0853,7.9257,7.7424,7.5346,7.3471,7.1461,6.9245,6.8299,0.0,0.0,0.0,0.0,0.0,0.0,0.0,0.0,0.0,0.0,0.0,0.0,0.0,0.0,0.0,0.0,0.0,0.0,0.0,0.0,0.0,0.0,0.0,0.0,0.0,0.0,0.0,0.0,0.0,7.4923,7.5857,7.6538,7.6504,7.6628,0.0,0.0,0.0,0.0,0.0,0.0,0.0,0.0,0.0,8.2439,8.4085,8.5282,8.597,8.7347,8.8334,8.8903,9.004,9.0698,9.0908,9.1267,9.1237,9.0878,9.0489,8.8963,8.6569,8.4115,8.208,8.0375,0.0,0.0,0.0,0.0,7.7382,7.7382,7.7594,7.7665,7.7675,7.7645,0.0,0.0,0.0,0.0,0.0,0.0,0.0,7.937,8.0291,8.1244,8.2141,8.2853,8.3286,8.3351,8.2396,8.1325,7.9588,7.6554,7.5102,7.3593,7.1259,7.0282,0.0,0.0,0.0,7.2709,7.4547,7.7326,7.9587,8.0731,8.1485,8.1679,8.1202,7.9799,7.8437,7.7233,7.5034,7.3229,7.2054,7.0314,6.8904,0.0,0.0,0.0,0.0,0.0,0.0,0.0,0.0,0.0,0.0,0.0,0.0,0.0,0.0,0.0,0.0,0.0,0.0,0.0,0.0,0.0,0.0,0.0,0.0,0.0,0.0,0.0,0.0,7.6266,7.7343,7.8533,7.8794,7.8878,0.0,0.0,0.0,0.0,0.0,0.0,8.1811,8.3397,8.4714,8.5731,8.7347,8.8514,8.9202,9.0818,9.1746,9.1925,9.3391,9.393,9.3631,9.411,9.408,9.3571,9.2913,9.2254,9.1357,8.7706,8.4953,8.2948,8.1931,8.0718,7.9442,7.9083,7.9106,7.9291,7.9395,7.9547,7.9767,7.9712,7.8597,7.7355,7.7873,0.0,0.0,0.0,0.0,8.1558,8.2566,8.357,8.4483,8.5018,8.5416,8.537,8.4298,8.4021,8.2778,7.8684,7.693,7.534,7.2951,7.1992,0.0,7.1006,7.2336,7.4157,7.6119,7.839,8.0249,8.1318,8.1858,8.2,8.1678,8.0494,7.9537,7.8922,7.6651,7.5177,7.4876,7.2553,7.0854,6.9972,0.0,0.0,0.0,0.0,0.0,0.0,0.0,0.0,0.0,0.0,0.0,0.0,0.0,0.0,0.0,0.0,0.0,0.0,0.0,0.0,0.0,0.0,0.0,0.0,0.0,0.0,0.0,0.0,0.0,8.22,8.1961,0.0,0.0,0.0,0.0,8.2409,8.3158,8.4654,8.7167,8.8005,8.9262,9.1147,9.1925,9.2613,9.3272,9.402,9.4738,9.5336,9.5456,9.5815,9.6384,9.6414,9.6414,9.6324,9.5666,9.5007,9.405,8.9501,8.7137,8.624,8.4325,8.3745,8.3914,8.2648,8.2607,8.3171,8.2499,8.2824,8.324,8.1907,7.9845,7.8181,7.919,7.948,0.0,0.0,8.2899,8.495,8.4762,8.6179,8.7657,8.7723,8.7986,8.815,8.7694,8.6869,8.4735,7.9919,7.8437,7.7176,7.4699,0.0,7.3387,7.3622,7.4342,7.5745,7.8488,8.0078,8.1414,8.2716,8.2902,8.2653,8.2037,8.1293,8.0647,7.989,7.8486,7.7676,7.7485,7.5441,7.3609,7.2102,7.1266,0.0,0.0,0.0,0.0,0.0,0.0,0.0,0.0,0.0,0.0,0.0,0.0,0.0,0.0,0.0,0.0,0.0,0.0,0.0,0.0,0.0,0.0,0.0,0.0,0.0,0.0,0.0,0.0,8.4923,8.5462,0.0,8.7107,8.6778,8.6689,8.7167,8.8215,8.9412,9.0788,9.1895,9.3212,9.4768,9.5426,9.6084,9.6773,9.7012,9.7252,9.7491,9.7491,9.7611,9.782,9.782,9.782,9.779,9.7487,9.6884,9.6102,9.3915,9.1337,8.8484,8.7377,8.6086,8.4985,8.4729,8.4917,8.5223,8.5483,8.5822,8.5736,8.3841,8.2873,8.2302,8.1727,8.1873,8.249,8.3778,8.4962,8.6216,8.7523,8.8372,8.9056,8.9512,8.9707,8.951,8.8461,8.7932,8.6598,8.3025,8.1234,7.9639,7.7639,7.6714,7.6362,7.647,7.7051,7.8211,8.0328,8.1474,8.2493,8.3664,8.3345,8.3061,8.3034,8.2014,8.1268,8.1137,7.9815,7.8787,7.8168,7.6729,7.4973,7.3028,7.2266,7.1223,0.0,0.0,0.0,0.0,0.0,0.0,0.0,0.0,0.0,0.0,0.0,0.0,0.0,0.0,0.0,0.0,0.0,0.0,0.0,0.0,0.0,0.0,0.0,0.0,0.0,8.223,8.5073,8.8604,8.9801,9.0788,9.1895,9.1805,9.1656,9.1656,9.2673,9.3661,9.4558,9.5666,9.6773,9.785,9.8299,9.8718,9.9197,9.9197,9.9197,9.9197,9.9197,9.9257,9.9438,9.9228,9.9288,9.9497,9.8705,9.824,9.8039,9.7069,9.497,9.2215,9.0638,8.9286,8.8102,8.7569,8.7791,8.8316,8.8479,8.8408,8.8027,8.6501,8.5821,8.5492,8.4553,8.4663,8.5285,8.6234,8.7102,8.8071,8.9456,9.0045,9.0341,9.0834,9.0768,9.0212,8.8963,8.8535,8.7582,8.4919,8.3343,8.178,7.991,7.9202,7.8877,7.8877,7.9267,8.0185,8.183,8.2418,8.3072,8.4049,8.3696,8.3466,8.336,8.2534,8.1786,8.1385,8.0023,7.8866,7.8151,7.6657,7.5104,7.3447,7.2524,7.1419,7.018,0.0,0.0,0.0,0.0,0.0,0.0,0.0,0.0,0.0,0.0,0.0,0.0,0.0,0.0,0.0,0.0,0.0,0.0,0.0,0.0,0.0,0.0,0.0,8.2828,8.5791,8.9352,9.3272,9.4947,9.6025,9.6683,9.6174,9.5785,9.5785,9.6354,9.7281,9.8538,9.9226,9.9855,10.0513,10.0573,10.0573,10.0573,10.0513,10.0483,10.0635,10.0453,10.0759,10.1246,10.0612,10.0818,10.1464,9.9593,9.9217,9.9903,9.857,9.7852,9.7302,9.4038,9.3158,9.3545,9.1269,9.1416,9.2557,9.1525,9.075,9.0163,8.97,8.8614,8.75,8.7467,8.7713,8.7958,8.7991,8.9198,9.0536,9.0569,9.1066,9.1596,9.1596,9.1032,9.0304,8.9575,8.8846,8.7687,8.5533,8.4603,8.3467,8.1336,8.0976,8.0976,8.0976,8.0976,0.0,8.2819,8.3015,8.3277,8.4063,8.4129,8.3801,8.3107,8.2848,8.2132,8.0697,7.9088,7.7983,7.7445,7.5359,7.3973,7.3477,7.2056,7.0973,7.0229,0.0,0.0,0.0,0.0,0.0,0.0,0.0,0.0,0.0,0.0,0.0,0.0,0.0,0.0,0.0,0.0,0.0,0.0,0.0,0.0,0.0,8.3307,8.5581,8.624,8.9591,9.3272,9.6743,9.8748,10.0094,10.0782,10.0693,10.0393,9.9885,10.0004,10.0274,10.0663,10.0812,10.1261,10.189,10.1979,10.1979,10.1979,10.1471,10.1386,10.1695,10.1608,10.1819,10.2268,10.2244,10.2405,10.2573,10.2174,10.1701,10.1336,10.117,10.0828,9.9764,9.6539,9.5118,9.4568,9.3158,9.2996,9.342,9.2875,9.258,9.2184,9.0724,8.9929,8.9561,8.9032,8.8928,8.9122,8.9651,9.0143,9.0635,9.1165,9.143,9.1596,9.1596,9.1032,9.0304,8.9575,8.8846,8.7687,8.5533,8.4928,8.4341,8.2656,8.2359,8.2359,8.2359,8.2359,8.269,8.3648,8.3747,8.4044,8.4745,8.4316,8.4036,8.4,8.3009,8.1667,8.0144,7.9041,7.753,7.5465,7.4789,7.3925,7.2732,7.1785,7.121,0.0,0.0,0.0,0.0,0.0,0.0,0.0,0.0,0.0,0.0,0.0,0.0,0.0,0.0,0.0,0.0,0.0,0.0,0.0,0.0,0.0,0.0,8.6419,8.9561,9.1895,9.4199,9.6862,10.0214,10.2099,10.3296,10.3685,10.3715,10.3416,10.2757,10.2458,10.2279,10.2279,10.2069,10.2069,10.2488,10.2488,10.2488,10.2488,10.2256,10.2387,10.294,10.3183,10.372,10.44,10.425,10.4382,10.4774,10.4199,10.3642,10.3066,10.3123,10.2738,10.1806,0.0,0.0,0.0,0.0,9.4913,9.4374,9.4058,9.3988,9.3691,9.1997,9.143,9.1297,9.0569,9.0337,9.0403,9.0834,9.0966,9.1066,9.1463,9.1596,9.1596,9.1596,9.0801,8.9939,8.9509,8.8614,8.7322,8.5467,8.5219,0.0,8.3318,8.294,8.294,8.3052,8.3052,8.3275,8.3819,8.3942,8.4108,8.4541,8.4175,8.3965,8.4133,8.2874,0.0,0.0,0.0,7.6598,7.3815,7.3375,0.0,0.0,0.0,7.1142,7.0838,7.0838,0.0,0.0,7.05,7.0906,0.0,0.0,0.0,0.0,0.0,0.0,0.0,0.0,0.0,0.0,0.0,0.0,0.0,0.0,0.0,0.0,8.9681,9.384,9.8329,9.9167,10.0423,10.3416,10.4912,10.563,10.563,10.563,10.5331,10.4583,10.3895,10.3506,10.3416,10.2817,0.0,0.0,0.0,10.2488,10.2612,10.2989,10.3575,10.4127,10.5093,10.6075,10.6917,10.6478,10.6681,10.7406,10.5687,10.5054,10.5093,10.4418,10.3793,10.3097,10.0692,9.9717,9.9574,9.8125,9.6693,9.5376,9.501,0.0,0.0,9.3285,9.2755,9.2556,9.1894,9.1662,9.1596,9.1596,9.1596,9.1596,9.1596,9.1596,9.1562,9.1496,9.0403,8.9409,8.931,8.825,8.6825,8.5459,8.5358,8.5031,8.3565,8.3165,8.3052,8.3332,8.3388,8.3443,8.3775,8.3775,8.3775,8.3775,8.3775,0.0,8.3829,8.2704,8.1383,7.9954,7.7828,7.5405,7.2631,7.1887,7.1548,7.1548,7.1548,7.1244,7.0567,7.0567,7.0567,7.0567,7.1007,7.1244,0.0,0.0,0.0,0.0,0.0,0.0,0.0,0.0,0.0,0.0,0.0,0.0,0.0,0.0,0.0,8.992,9.378,9.7611,10.1201,10.3117,10.4523,10.569,10.6498,10.7007,10.7007,10.7007,10.6498,10.5331,10.4613,10.3984,10.3416,10.2817,10.2488,10.2488,10.2488,10.2676,10.3049,10.3514,10.4431,10.5573,10.6868,0.0,10.8101,10.8505,10.8405,10.7979,10.6918,10.6298,10.5992,10.5335,10.4106,10.2643,10.1492,9.9635,9.7684,9.7609,9.6693,9.5376,9.501,9.4908,9.4743,9.3881,9.3186,9.2656,9.2523,9.2059,0.0,9.1596,9.1596,9.1596,9.1596,9.1596,9.143,9.0867,9.0072,8.9244,8.8647,8.7852,8.6944,8.5682,8.544,8.5087,8.3899,8.3665,8.3665,8.372,8.372,8.372,8.3775,8.3775,8.3775,8.3775,8.3775,8.3884,8.4102,8.2811,8.1488,8.0175,7.6913,7.4525,7.3341,7.3138,7.3071,7.3071,7.3071,7.3003,7.2834,7.2834,7.2834,7.28,7.1176,7.0737,0.0,0.0,0.0,0.0,0.0,0.0,0.0,0.0,0.0,0.0,0.0,8.1991,8.4325,0.0,9.0249,9.3571,9.6862,10.0184,10.3506,10.5091,10.6139,10.6797,10.7485,10.7755,10.7396,10.7396,10.7007,10.6019,10.5002,10.4284,10.3924,10.2997,10.2488,10.2488,10.2488,10.2832,10.3514,10.4218,10.5363,10.7074,10.8538,10.9165,10.9394,10.9833,10.9551,10.8798,10.7768,10.7079,10.6509,10.5022,10.3607,10.2391,10.171,9.9856,9.7684,9.7819,9.6961,9.5673,9.5506,9.5438,9.5339,9.4577,9.3848,9.3186,9.2788,9.2159,9.1596,9.1596,9.1596,9.1596,9.1596,9.1596,9.1397,9.0701,8.9972,8.921,8.8482,8.7488,8.6512,8.5673,8.5344,8.4969,8.414,8.4102,8.4156,8.4048,8.3993,8.4048,8.4211,8.4211,8.4211,8.4211,8.4211,8.4265,8.4426,8.3043,8.1644,8.0276,7.7739,7.598,7.5236,7.4796,7.4424,7.4052,7.4052,7.3849,7.3477,7.3477,7.3477,7.3443,7.236,7.2056,0.0,0.0,0.0,0.0,0.0,0.0,0.0,7.9178,8.0345,8.2499,8.3965,8.5701,8.8364,9.0997,9.375,9.6833,9.9526,10.2279,10.5211,10.6199,10.6827,10.7485,10.8054,10.8174,10.7605,10.7485,10.7096,10.6498,10.5181,10.4403,10.4403,10.3206,10.2488,10.2488,10.2582,10.3082,10.4157,10.5124,10.6455,10.8316,10.9606,11.022,11.0206,11.0398,10.9981,10.9057,10.8011,10.7198,10.6304,10.4383,10.319,10.2428,10.1699,10.0109,9.8188,9.8188,9.736,9.62,9.6068,9.6001,9.5869,9.514,9.4411,9.3649,9.2921,9.2159,9.1596,9.1596,9.1596,9.1596,9.1596,9.1463,9.1198,9.0469,8.9741,8.9012,8.8283,8.709,8.6081,8.5663,8.5213,8.4756,8.4345,8.448,8.4533,8.4319,8.4265,8.4372,8.4553,8.464,8.464,8.464,8.464,8.4573,8.4403,8.3321,8.1934,8.031,7.9058,7.801,7.7164,7.6487,7.5811,7.5067,7.5067,7.4695,7.3916,7.3916,7.3916,7.3916,7.3916,7.3747,7.6245,7.5856,7.5946,7.6574,7.7592,7.8968,0.0,8.229,8.3906,8.6509,8.8095,8.9801,9.2434,9.5067,9.7551,9.9705,10.2279,10.4493,10.6109,10.6887,10.7515,10.8174,10.8353,10.8353,10.8263,10.7695,10.7096,10.6498,10.5181,10.4403,10.4403,10.3206,10.2488,10.2488,10.2956,10.3851,10.5124,10.6106,10.7366,10.8982,10.9928,11.0122,10.9587,10.9977,10.9476,10.8085,10.6701,10.5608,10.4879,10.3985,10.319,10.2428,10.1699,10.0109,9.8188,9.8188,9.7658,9.6896,9.6233,9.6001,9.5869,9.514,9.4411,9.3649,9.2921,9.2159,9.1596,9.1596,9.1596,9.1596,9.1596,9.1099,9.0469,8.9707,8.8979,8.825,8.7554,8.6759,8.6139,8.5982,8.5415,8.4811,8.4615,8.4553,8.4587,8.4587,8.4587,8.4587,8.4587,8.464,8.464,8.464,8.464,8.4336,8.3693,8.3456,8.2475,8.0344,8.004,7.9329,7.7908,7.7773,7.7401,7.6657,7.6657,7.6251,7.5439,7.5439,7.5439,7.5439,7.5439,7.4728,7.6245,7.6185,7.6784,7.822,7.9567,8.1153,8.3517,8.5372,8.7257,8.9531,9.1656,9.3661,9.5516,9.803,10.0304,10.192,10.3805,10.548,10.6797,10.6887,10.6917,10.7186,10.6498,10.6498,10.7695,10.7575,10.7096,10.6498,10.5181,10.4403,10.4403,10.3206,10.2488,10.2488,10.3174,10.4248,10.5751,10.7098,10.8463,10.9863,11.071,11.0694,10.9921,10.9674,10.849,10.6701,10.6072,10.5111,10.3985,10.3289,10.2527,10.1732,10.0606,9.9612,9.8751,9.832,9.7459,9.6432,9.6101,9.5736,9.5306,9.5008,9.4113,9.3086,9.2788,9.2159,9.1596,9.1596,9.1596,9.1496,9.1066,9.0734,9.0237,8.9045,8.8548,8.8117,8.7422,8.6362,8.5583,8.5711,8.4767,8.4032,8.4298,8.4372,8.4426,8.4587,8.464,8.464,8.464,8.464,8.464,8.464,8.464,8.4505,8.4167,8.4167,8.3389,8.1596,8.1494,8.0818,7.9329,7.9261,7.872,7.7536,7.7536,7.6927,7.5709,7.5709,7.5473,7.5067,7.5067,7.4728,7.6425,7.7023,7.84,8.0405,8.217,8.4115,8.6718,8.8723,9.0608,9.2583,9.4648,9.6503,9.782,9.9915,10.189,10.3206,10.4523,10.5899,10.7186,10.6498,10.584,10.584,10.4493,10.4164,10.56,10.6079,10.6199,10.5899,10.4792,10.4104,10.4104,10.3087,10.2612,10.2676,10.3637,10.4823,10.6372,10.789,10.9239,11.029,11.0571,11.043,10.9583,10.859,10.7298,10.5774,10.5376,10.4581,10.3488,10.2594,10.1799,10.1004,9.9745,9.9016,9.8618,9.8088,9.7227,9.6266,9.6068,9.5505,9.4875,9.4643,9.3749,9.2656,9.2457,9.1993,9.1596,9.1596,9.1596,9.143,9.0701,9.037,8.9906,8.8614,8.815,8.7885,8.7389,8.6295,8.5451,8.5506,8.4498,8.3732,8.4027,8.4156,8.4265,8.448,8.4553,8.464,8.464,8.464,8.464,8.464,8.464,8.464,8.464,8.4437,8.3761,8.2509,8.2205,8.1528,8.0242,8.0209,7.9498,7.801,7.7976,7.713,7.5405,7.5405,7.5134,7.4627,7.4627,7.4728,7.6814,7.8699,8.1153,8.3128,8.5581,8.8215,9.0848,9.2464,9.399,9.5995,9.6952,9.785,9.9197,10.0573,10.189,10.3206,10.4523,10.5899,10.7186,10.569,10.4493,10.4493,10.2757,10.1561,10.165,10.2787,10.3805,10.4403,10.3835,10.3416,10.3416,10.2817,10.2676,10.3235,10.4096,10.5483,10.7303,10.8072,10.8909,10.9964,10.8984,10.8275,10.8027,10.6602,10.5873,10.5708,10.4283,10.3588,10.3488,10.2031,10.1004,10.0308,9.9546,9.842,9.7161,9.7161,9.7128,9.6962,9.6266,9.5505,9.4776,9.408,9.3318,9.2556,9.1828,9.1596,9.1596,9.1596,9.1596,9.143,9.0701,8.9972,8.9244,8.8482,8.7786,8.7289,8.7289,8.666,8.6048,8.5606,8.4897,8.4244,8.3908,8.4048,8.4211,8.4211,8.4392,8.464,8.464,8.464,8.464,8.464,8.464,8.464,8.464,8.3964,8.3219,8.2475,8.1731,8.0987,8.0242,8.0209,7.9498,7.801,7.7976,7.6893,7.4661,7.4661,7.4627,7.4627,7.4627,7.4999,7.834,8.0734,8.3337,8.5761,8.8035,9.0219,9.2434,9.396,9.5247,9.6354,9.7072,9.7521,9.7551,9.8628,9.9795,10.0693,10.2309,10.3805,10.4613,10.3805,10.2787,10.189,10.0423,9.9316,9.8867,10.0812,10.2578,10.3685,10.3176,10.2997,10.3416,10.3099,10.3019,10.3205,10.4764,10.6226,10.7421,10.8563,10.9474,11.001,10.8728,10.7581,10.6503,10.6006,10.5509,10.4979,10.3985,10.3289,10.2826,10.1832,10.0705,9.9546,9.8817,9.7956,9.7062,9.6565,9.6366,9.6333,9.6101,9.5206,9.4113,9.3881,9.2954,9.1894,9.1662,9.1596,9.1596,9.1596,9.1231,9.0701,8.9972,8.9244,8.8515,8.7786,8.7455,8.7289,8.7289,8.6693,8.6023,8.5351,8.4646,8.3972,8.3577,8.372,8.4048,8.4426,8.45,8.464,8.464,8.464,8.464,8.464,8.464,8.464,8.464,8.393,8.3186,8.2475,8.1697,8.0953,8.0242,8.0209,7.9498,7.801,7.7976,7.686,7.4627,7.51,7.483,7.3883,7.439,7.4728,8.0165,8.2978,8.5731,8.8155,9.0249,9.2165,9.39,9.4977,9.5636,9.5845,9.5995,9.5845,9.4947,9.5875,9.7132,9.8269,10.0304,10.2189,10.3236,10.2907,10.2009,10.0663,9.9316,9.8239,9.7551,9.9047,10.0603,10.192,10.2099,10.2309,10.2698,10.3016,10.3327,10.336,10.5216,10.6486,10.7335,10.8625,10.9205,10.8853,10.7962,10.6801,10.5409,10.5409,10.5111,10.4614,10.3621,10.2925,10.2428,10.1202,9.9944,9.8817,9.8088,9.736,9.6664,9.6167,9.6001,9.6001,9.6001,9.5041,9.3782,9.3782,9.2788,9.1596,9.1596,9.1596,9.1596,9.1596,9.1066,9.0337,8.9608,8.8879,8.815,8.7455,8.7289,8.7289,8.7289,8.6892,8.6295,8.5302,8.4738,8.4133,8.3275,8.3499,8.3939,8.4426,8.4533,8.464,8.464,8.464,8.464,8.464,8.464,8.464,8.464,8.3693,8.2915,8.2441,8.146,8.0682,8.0209,8.0209,7.9498,7.801,7.7976,7.686,7.4627,7.51,7.483,7.3883,7.439,7.4762,8.223,8.5342,8.8334,9.0309,9.2224,9.396,9.5247,9.5516,9.5306,9.4588,9.387,9.2913,9.1596,9.2404,9.393,9.5935,9.8538,10.0992,10.2937,10.2787,10.1979,10.0663,9.9346,9.8299,9.7611,9.7581,9.8119,9.9406,10.0693,10.1471,10.1471,10.2595,10.339,10.3881,10.5276,10.6355,10.7078,10.8115,10.7974,10.69,10.69,10.6105,10.4681,10.4681,10.4681,10.4581,10.3124,10.2527,10.2329,10.0209,9.8883,9.8088,9.7426,9.6697,9.6001,9.6001,9.6001,9.6001,9.6001,9.5041,9.3782,9.3782,9.2788,9.1596,9.1596,9.1596,9.1596,9.1596,9.1032,9.0304,8.9608,8.8846,8.8084,8.7422,8.7289,8.7289,8.7289,8.7289,8.6858,8.5401,8.5037,8.454,8.3148,8.3388,8.3884,8.4156,8.4426,8.464,8.464,8.464,8.464,8.464,8.464,8.464,8.464,8.3253,8.2408,8.2408,8.1021,8.0209,8.0209,8.0209,7.9498,7.801,7.7976,7.686,7.4627,7.4661,7.4661,7.4627,7.4661,7.5033,8.4833,8.7736,9.0369,9.2344,9.3601,9.4439,9.4798,9.4469,9.378,9.2613,9.1087,8.9531,8.8185,8.8634,8.986,9.1835,9.5187,9.8269,10.0214,10.1201,10.1381,10.0573,9.9765,9.8987,9.8329,9.8718,9.9137,9.9466,10.0274,10.1171,10.2189,10.2865,10.3327,10.342,10.5065,10.6149,10.6471,10.7974,10.8197,10.69,10.69,10.6105,10.4681,10.4681,10.4681,10.4581,10.3124,10.2527,10.2428,10.0705,9.9314,9.8155,9.7956,9.7128,9.6001,9.6001,9.6001,9.6001,9.6001,9.5041,9.3782,9.3782,9.2788,9.1596,9.1596,9.1596,9.1596,9.1596,9.0668,8.9641,8.9475,8.8482,8.7488,8.7322,8.7289,8.7289,8.7289,8.7289,8.6858,8.5401,8.4208,8.3404,8.3231,8.3554,8.3884,8.4156,8.4426,8.464,8.464,8.464,8.464,8.464,8.464,8.464,8.464,8.3253,8.2408,8.2408,8.1021,8.0209,8.0209,8.0209,7.9498,7.801,7.7976,7.686,7.4627,7.5168,7.5134,7.4627,7.5168,7.5506,8.7257,8.9711,9.1835,9.3242,9.387,9.408,9.378,9.2763,9.1327,8.9412,8.7437,8.5671,8.4354,8.5132,8.6898,8.9741,9.3541,9.7132,9.9975,10.1501,10.2099,10.1471,10.1022,10.0423,9.9466,9.9705,10.0064,10.0364,10.0693,10.1261,10.1979,10.2775,10.3205,10.3205,10.4639,10.5701,10.6571,10.7465,10.7603,10.69,10.6602,10.5807,10.4681,10.4383,10.4184,10.4084,10.2693,10.2031,10.1931,10.0507,9.9182,9.8155,9.7823,9.6995,9.6001,9.6001,9.6001,9.6001,9.6001,9.5041,9.3782,9.3782,9.2788,9.1596,9.1596,9.1596,9.1596,9.1596,9.0767,8.9906,8.9906,8.9078,8.8117,8.7819,8.772,8.7654,8.7322,8.7289,8.6858,8.5401,8.4175,8.3338,8.3175,8.3499,8.3829,8.3993,8.4372,8.464,8.464,8.464,8.464,8.464,8.464,8.464,8.464,8.3558,8.2746,8.2441,8.1325,8.0547,8.0209,8.0209,7.9667,7.8517,7.8145,7.7198,7.5608,7.5676,7.5473,7.51,7.5879,7.6217,8.9531,9.1357,9.2883,9.3541,9.3571,9.3242,9.2404,9.0608,8.8394,8.5731,8.3606,8.1871,8.0614,8.202,8.4594,8.8394,9.2494,9.6533,10.0393,10.2309,10.3117,10.2578,10.2578,10.2099,10.0872,10.0782,10.0992,10.1561,10.159,10.159,10.159,10.2625,10.3205,10.3299,10.4028,10.5172,10.667,10.6809,10.6781,10.6701,10.6105,10.5409,10.4681,10.3886,10.3588,10.3488,10.2031,10.1401,10.1302,9.9977,9.8983,9.8254,9.7625,9.6962,9.63,9.62,9.6167,9.6134,9.6035,9.5041,9.3782,9.3782,9.2788,9.1596,9.1596,9.1596,9.1596,9.1596,9.1066,9.0536,9.0536,8.9906,8.9111,8.8449,8.825,8.8018,8.7422,8.719,8.6759,8.55,8.4672,8.391,8.3181,8.3554,8.3875,8.3775,8.4265,8.464,8.464,8.464,8.464,8.464,8.464,8.464,8.464,8.393,8.3219,8.2611,8.1832,8.1122,8.0378,8.0344,7.9938,7.9126,7.8483,7.7739,7.6893,7.6183,7.5811,7.5709,7.6521,7.6893,9.1716,9.2733,9.3571,9.4259,9.3601,9.2314,9.0579,8.8215,8.5641,8.3008,8.0883,7.9238,7.846,7.9956,8.226,8.5103,8.983,9.4319,9.77,10.0782,10.2608,10.2488,10.2937,10.2997,10.2219,10.2189,10.2189,10.2309,10.2309,10.2309,10.2309,10.2522,10.2871,10.3516,10.4087,10.4984,10.5962,10.6471,10.6485,10.6006,10.5873,10.5409,10.4681,10.3886,10.3588,10.3488,10.2031,10.1401,10.1335,10.0507,9.9712,9.9082,9.895,9.8453,9.7724,9.7128,9.6929,9.683,9.62,9.5041,9.3782,9.3782,9.2788,9.1596,9.1596,9.1596,9.1596,9.1596,9.1066,9.0536,9.0536,8.9509,8.8482,8.8349,8.7885,8.7422,8.7322,8.6792,8.6295,8.603,8.5401,8.4672,8.3943,8.4321,8.4478,8.3875,8.4265,8.464,8.464,8.464,8.464,8.464,8.464,8.464,8.464,8.393,8.3456,8.3321,8.2611,8.1866,8.1122,8.1088,8.0479,7.9126,7.8991,7.8247,7.6893,7.6758,7.6352,7.5709,7.6521,7.6893,9.3272,9.4139,9.4708,9.5037,9.384,9.1985,8.9681,8.6569,8.3307,8.0345,7.843,7.7083,7.6395,7.819,8.0734,8.3726,8.8065,9.2464,9.6444,9.9586,10.18,10.2817,10.3236,10.3296,10.2997,10.2698,10.2488,10.2488,10.2488,10.2488,10.2488,10.2159,10.2268,10.3056,10.37,10.4586,10.5769,10.6516,10.6683,10.6403,10.6006,10.5409,10.4681,10.3521,10.3024,10.2925,10.1501,10.0838,10.0805,10.0407,9.991,9.9281,9.9281,9.8817,9.8088,9.736,9.7095,9.6995,9.6266,9.5306,9.4312,9.3914,9.2788,9.1596,9.1596,9.1596,9.1596,9.1596,9.1331,9.1066,9.1066,9.0271,8.9376,8.8979,8.8051,8.7289,8.7289,8.6991,8.6627,8.6229,8.5898,8.5434,8.4705,8.494,8.5046,8.4478,8.4728,8.4865,8.4621,8.464,8.464,8.464,8.464,8.464,8.464,8.4302,8.393,8.3524,8.3186,8.2644,8.19,8.1494,8.0953,8.0242,7.9498,7.8754,7.8044,7.7671,7.7266,7.6927,7.7705,7.8044,9.4259,9.5097,9.5546,9.5426,9.378,9.1416,8.8484,8.4773,8.1003,7.7831,7.6155,7.5138,7.4749,7.6574,7.9148,8.217,8.6,9.013,9.4469,9.773,10.0393,10.2339,10.2937,10.3206,10.3206,10.2787,10.2488,10.2488,10.2488,10.2488,10.2488,10.1953,10.1878,10.2597,10.3291,10.4311,10.5383,10.6222,10.6485,10.6403,10.5807,10.5277,10.4614,10.319,10.2527,10.2428,10.0937,10.0308,10.0308,10.0308,9.9977,9.948,9.948,9.9149,9.8519,9.7658,9.7327,9.7227,9.63,9.5505,9.4776,9.4047,9.2888,9.1794,9.1629,9.1596,9.1596,9.1596,9.1463,9.1364,9.1364,9.0701,8.9873,8.9144,8.8117,8.7289,8.7289,8.7289,8.709,8.6527,8.6395,8.6196,8.5467,8.5533,8.5611,8.5192,8.5202,8.5229,8.4891,8.4742,8.464,8.464,8.464,8.464,8.464,8.464,8.437,8.3761,8.3727,8.3389,8.2678,8.1934,8.146,8.1291,8.0006,7.9261,7.9126,7.8517,7.8145,7.801,7.8754,7.9126,9.4259,9.5097,9.5456,9.4858,9.2733,8.9801,8.594,8.202,7.84,7.5707,7.4091,7.3343,7.3881,7.5198,7.6844,7.8908,8.2559,8.6359,8.983,9.4139,9.767,9.9615,10.1501,10.2578,10.2578,10.2518,10.2488,10.2488,10.2488,10.2488,10.2488,10.2324,10.2274,10.2597,10.3698,10.4085,10.3903,10.5213,10.5499,10.4879,10.4813,10.478,10.4614,10.319,10.2527,10.2428,10.0937,10.0308,10.0308,10.0308,10.0308,10.0209,10.0209,10.0209,9.9944,9.8585,9.8088,9.789,9.6498,9.5505,9.4776,9.4047,9.3252,9.2457,9.1794,9.1596,9.1596,9.1596,9.1132,9.0635,9.0635,8.9575,8.8349,8.762,8.7355,8.7289,8.7289,8.7289,8.7256,8.719,8.719,8.6925,8.6196,8.6355,8.6378,8.5961,8.5538,8.5397,8.5635,8.5046,8.464,8.464,8.464,8.464,8.464,8.464,8.4606,8.4539,8.4539,8.42,8.3422,8.2678,8.1968,8.1291,8.0513,7.9769,7.9126,7.9058,7.8653,7.801,7.8754,7.9126,9.393,9.5366,9.6025,9.5366,9.3212,9.007,8.5701,8.1631,7.7921,7.4899,7.3552,7.2864,7.2714,7.4121,7.5677,7.6844,8.0045,8.3367,8.627,9.0339,9.387,9.6264,9.8658,10.0304,10.0693,10.1411,10.2069,10.2488,10.2488,10.2488,10.2488,10.1934,10.2002,10.3011,10.3465,10.3964,10.4776,10.5778,10.5992,10.5376,10.5376,10.5111,10.4614,10.319,10.2527,10.2428,10.0937,10.0308,10.0308,10.0308,10.0308,10.0308,10.0308,10.0076,9.9579,9.8552,9.789,9.7393,9.6366,9.5803,9.5372,9.4179,9.3583,9.3119,9.196,9.1596,9.1596,9.1596,9.1066,9.0536,9.0536,8.9409,8.815,8.7455,8.7289,8.7289,8.7289,8.7289,8.7289,8.7289,8.7289,8.719,8.6892,8.6944,8.6912,8.6698,8.6164,8.5716,8.577,8.5114,8.464,8.464,8.464,8.464,8.464,8.464,8.464,8.464,8.464,8.4505,8.42,8.305,8.2272,8.1968,8.0784,8.0073,7.9769,7.9769,7.96,7.9329,7.9634,7.9769,9.2314,9.4259,9.5247,9.4588,9.2434,8.9292,8.4863,8.0764,7.7113,7.421,7.2924,7.2235,7.1936,7.3193,7.451,7.5198,7.7891,8.0704,8.2948,8.6838,9.0459,9.3122,9.6114,9.8269,9.9137,10.0573,10.177,10.2398,10.2488,10.2398,10.2189,10.1818,10.2089,10.3276,10.3408,10.3987,10.5249,10.5984,10.6091,10.5476,10.5476,10.5178,10.4614,10.319,10.2527,10.2428,10.0937,10.0308,10.0308,10.0308,10.0308,10.0308,10.0308,9.9877,9.9182,9.8453,9.7724,9.6995,9.6266,9.5869,9.5471,9.4213,9.3649,9.3219,9.196,9.1596,9.1529,9.1331,9.0602,8.9807,8.9608,8.878,8.7885,8.7389,8.7289,8.7289,8.7289,8.7289,8.7289,8.7289,8.7289,8.7289,8.7289,8.7289,8.7327,8.7434,8.6621,8.6041,8.6142,8.5249,8.464,8.464,8.464,8.464,8.464,8.464,8.464,8.464,8.464,8.464,8.464,8.3186,8.2408,8.2408,8.0953,8.0209,8.0209,8.0209,8.0209,8.0209,8.0209,8.0209,8.8993,9.1147,9.2494,9.1835,8.9681,8.6689,8.2709,7.8759,7.5377,7.3343,7.1846,7.1128,7.1757,7.2445,7.3163,7.3821,7.6125,7.831,7.9686,8.3816,8.7706,9.0369,9.4169,9.7102,9.8419,10.0304,10.177,10.2398,10.2488,10.2189,10.1471,10.2213,10.2803,10.3276,10.3809,10.4088,10.4395,10.5267,10.5401,10.4681,10.4681,10.4681,10.4614,10.319,10.2527,10.2428,10.0937,10.0308,10.0308,10.0308,10.0308,10.0308,10.0308,9.9877,9.9182,9.8453,9.7724,9.6995,9.6266,9.5538,9.4776,9.4047,9.3318,9.2556,9.1828,9.1596,9.143,9.0734,8.9475,8.8184,8.7488,8.7289,8.7289,8.7289,8.7289,8.7289,8.7289,8.7289,8.7289,8.7289,8.7289,8.7289,8.7289,8.7289,8.7493,8.8078,8.6955,8.6243,8.6797,8.5554,8.464,8.464,8.464,8.464,8.464,8.464,8.464,8.464,8.464,8.464,8.464,8.3186,8.2408,8.2408,8.0953,8.0209,8.0209,8.0209,8.0209,8.0209,8.0209,8.0209,8.612,8.8394,8.9771,8.9112,8.7616,8.5312,8.1332,7.81,7.5347,7.3313,7.1846,7.0949,7.1188,7.2146,7.2984,7.3193,7.5437,7.7592,7.8938,8.2709,8.615,8.8364,9.2943,9.6952,9.9615,10.0393,10.1291,10.2398,10.2069,10.1896,10.1964,10.1513,10.1815,10.3,10.366,10.436,10.4822,10.5194,10.5101,10.4681,10.4681,10.4681,10.4614,10.319,10.2527,10.2428,10.0937,10.0308,10.0308,10.0308,10.0308,10.0308,9.9778,9.9149,9.842,9.7724,9.6995,9.6333,9.6101,9.5505,9.4776,9.4047,9.3285,9.2457,9.1231,9.1198,9.1331,9.0105,8.9078,8.815,8.7455,8.7289,8.7289,8.7289,8.7289,8.7289,8.7289,8.7289,8.7289,8.7289,8.7289,8.7289,8.7289,8.7289,8.7493,8.8078,8.7357,8.6813,8.6865,8.6027,8.5215,8.4674,8.464,8.464,8.464,8.464,8.464,8.464,8.464,8.464,8.464,8.3186,8.2408,8.2408,8.0953,8.0209,8.0209,8.0209,8.0209,8.0209,8.0209,8.0209,8.1751,8.3995,8.5312,8.5132,8.4085,8.238,7.9686,7.7023,7.4719,7.3223,7.1846,7.0889,7.0889,7.1787,7.2624,7.2864,7.4929,7.7023,7.8579,8.22,8.621,9.019,9.381,9.7252,10.0573,10.0393,10.0693,10.2009,10.1471,10.1147,10.1365,10.1169,10.1592,10.2793,10.3525,10.4064,10.4583,10.4982,10.5049,10.4681,10.4681,10.4581,10.4184,10.3024,10.2329,10.2031,10.0805,10.0308,0.0,10.0308,10.0308,10.0209,9.9546,9.8817,9.8088,9.736,9.6631,9.5968,9.567,9.5107,9.4345,9.3616,9.2689,9.1662,9.0469,9.0204,9.0171,8.9244,8.8482,8.7819,8.7389,8.7289,8.7289,8.7289,8.7289,8.7289,8.7289,8.7289,8.7289,8.7289,8.7289,8.7289,8.7289,8.7289,8.7434,8.7962,8.7501,8.7092,8.7159,8.6379,8.5587,8.5114,8.4809,8.464,8.464,8.464,8.464,8.464,8.464,8.464,8.464,8.3186,8.2408,8.2408,8.0953,8.0209,8.0209,8.0209,8.0209,8.0209,8.0209,8.0344,0.0,7.837,7.9686,8.0315,7.9507,7.84,7.7682,7.5617,0.0,7.2984,7.1816,7.0889,7.0889,7.1457,7.2086,7.2744,7.454,7.6514,7.846,8.238,8.7676,9.4678,9.6174,9.788,10.1144,10.0214,10.0004,10.1291,10.0753,10.0339,10.019,10.1109,10.1929,10.2562,10.2894,10.335,10.4017,10.4695,10.4917,10.4515,10.4515,10.4184,10.3488,10.2792,10.2031,10.1401,10.0606,10.0308,10.0308,10.0308,10.0308,10.0209,9.948,9.8784,9.8088,9.7327,9.6565,9.5836,9.514,9.4378,9.3583,9.2788,9.1562,9.0237,8.9542,8.8846,8.8316,8.8316,8.7819,8.7289,8.7289,8.7289,8.7289,8.7289,8.7289,8.7289,8.7289,8.7289,8.7289,8.7289,8.7289,8.7289,8.7289,8.7289,8.7375,8.767,8.7419,8.727,8.7486,8.6573,8.5858,8.579,8.508,8.464,8.464,8.464,8.464,8.464,8.464,8.464,8.464,8.3253,8.2475,8.2408,8.0953,8.0209,8.0209,8.0209,8.0209,8.0209,8.0242,8.0648,7.1278,0.0,7.6874,7.7023,7.6814,7.6275,0.0,7.3941,7.2954,7.2265,7.1487,7.0889,7.0889,7.1457,7.1936,7.2116,7.3821,7.5796,7.7771,8.4085,9.007,9.4319,9.6294,9.797,9.9795,9.9675,9.9825,10.0663,9.9645,9.9258,9.9913,9.9685,9.9892,10.0923,10.1696,10.2737,10.4111,10.4025,10.3715,10.3024,10.3024,10.2925,10.2726,10.2031,10.16,10.1401,10.0606,10.0308,10.0308,10.0308,10.0308,10.0209,9.8917,9.832,9.8022,9.673,9.5803,9.514,9.4975,9.4047,9.2722,9.1463,9.0039,8.878,8.8614,8.8449,8.8316,8.8316,8.7819,8.7289,8.7289,8.7289,8.7289,8.7289,8.7289,8.7289,8.7289,8.7289,8.7289,8.7289,8.7289,8.7289,8.7289,8.7289,8.7375,8.767,8.7829,8.784,8.7554,8.6991,8.6433,8.5858,8.508,8.464,8.464,8.464,8.464,8.464,8.464,8.464,8.464,8.3727,8.2983,8.2408,8.0953,8.0209,8.0209,8.0209,8.0209,8.0209,8.0784,8.1122,6.9333,7.1338,7.3313,7.3911,7.4061,7.3941,7.3552,7.2924,7.2325,7.1966,7.1368,7.0889,7.0889,7.1457,7.1996,7.2295,7.4031,7.6784,8.0853,8.6689,9.1776,9.5127,9.6683,9.8149,9.9795,9.9406,9.9197,9.9556,9.8628,9.8356,9.8938,9.9047,9.958,10.0521,10.1589,10.2369,10.3079,10.3078,10.2925,10.2527,10.2527,10.2329,10.2031,10.16,10.1236,10.0904,10.0507,10.0308,10.0308,9.9977,9.9844,9.9712,9.8254,9.7691,9.7525,9.6035,9.524,9.4809,9.4113,9.2921,9.1463,8.9972,8.8979,8.825,8.7919,8.7587,8.7389,8.7753,8.7554,8.7289,8.7289,8.7289,8.719,8.6858,8.7024,8.719,8.6858,8.7024,8.7289,8.7289,8.7289,8.7289,8.7289,8.7289,8.7315,8.7493,8.7904,8.8118,8.7854,8.7576,8.711,8.6366,8.5926,8.552,8.5182,8.5148,8.5012,8.464,8.464,8.464,8.464,8.3896,8.3152,8.2408,8.1629,8.1224,8.1224,8.1224,8.1224,8.1224,8.1629,8.1968,6.8974,6.9482,7.026,7.1427,7.1727,7.1876,7.2475,7.2146,7.1727,7.1727,7.1308,7.0949,7.1038,7.1607,7.2295,7.3073,7.5228,7.8908,8.4983,8.9262,9.2913,9.6055,9.7132,9.8329,10.0004,9.9167,9.8478,9.8389,9.773,9.7455,9.7573,9.8589,9.9526,10.0352,10.1498,10.1898,10.1706,10.2086,10.2329,10.2196,10.2196,10.1832,10.1236,10.1236,10.0904,10.0308,10.0209,10.0109,10.0109,9.9414,9.9115,9.8983,9.7625,9.7028,9.6763,9.5405,9.4743,9.4345,9.2888,9.1463,9.0138,8.8747,8.825,8.8018,8.7322,8.666,8.6295,8.6792,8.7024,8.709,8.6958,8.7123,8.709,8.642,8.6726,8.709,8.6461,8.6825,8.7289,8.7289,8.7289,8.7289,8.7289,8.7289,8.7289,8.7289,8.7787,8.8194,8.8194,8.807,8.7753,8.7144,8.6974,8.667,8.5993,8.5858,8.5486,8.4843,8.4674,8.464,8.464,8.3896,8.3219,8.2577,8.2475,8.2408,8.2408,8.2408,8.2408,8.2408,8.2543,8.2915,6.8854,6.9482,7.0141,7.0889,7.1038,7.1068,7.1188,7.1128,7.1038,7.1038,7.0979,7.1068,7.1637,7.2295,7.3163,7.436,7.813,8.22,8.6,8.995,9.3272,9.5486,9.7311,9.8478,9.8808,9.8658,9.8269,9.77,9.7072,9.6613,9.6208,9.7199,9.7892,9.8287,9.9776,10.0563,10.0469,10.12,10.1302,10.0606,10.0606,10.0606,10.0507,10.0507,10.0407,10.0308,9.9679,9.9447,9.938,9.8652,9.8353,9.8254,9.7426,9.673,9.6068,9.5206,9.4113,9.2821,9.1364,9.0304,8.9442,8.8581,8.7919,8.7289,8.656,8.6262,8.6063,8.5567,8.5865,8.6196,8.56,8.6362,8.709,8.642,8.6726,8.7256,8.7123,8.719,8.7289,8.7289,8.7289,8.7289,8.7289,8.7289,8.7289,8.7289,8.7787,8.8194,8.8194,8.807,8.7955,8.7854,8.7279,8.6873,8.6738,8.6163,8.5723,8.5621,8.4979,8.464,8.464,8.3896,8.3456,8.3321,8.2712,8.2408,8.2408,8.2408,8.2408,8.2441,8.305,8.3389,6.8914,6.9722,7.056,7.0829,7.0889,7.1009,7.1368,7.1427,7.1547,7.1906,7.1996,7.2086,7.2385,7.3582,7.5437,7.816,8.1572,8.4803,8.7407,9.0848,9.375,9.5396,9.7012,9.797,9.797,9.797,9.7551,9.6533,9.5875,9.5501,9.5359,9.609,9.6824,9.7431,9.9096,10.0023,9.9965,10.0502,10.0606,10.0308,10.0308,10.0308,10.0308,10.0308,10.0308,10.0308,9.9579,9.9281,9.9182,9.8055,9.736,9.6929,9.62,9.5471,9.471,9.3981,9.2788,9.1364,9.0304,8.9442,8.8714,8.7985,8.7521,8.7123,8.6395,8.5898,8.5434,8.4705,8.5302,8.6097,8.5765,8.6461,8.709,8.642,8.6726,8.7157,8.6759,8.6991,8.7289,8.7289,8.7289,8.7289,8.7289,8.7434,8.7493,8.7493,8.802,8.8391,8.8391,8.852,8.8429,8.8023,8.8057,8.7922,8.7516,8.6805,8.6027,8.5215,8.4809,8.464,8.464,8.4302,8.4099,8.4099,8.3795,8.3592,8.3592,8.3592,8.3592,8.3625,8.3964,8.4099,6.8764,6.9692,7.0679,7.0679,7.0919,7.1308,7.1966,7.2355,7.2774,7.3462,7.3612,7.3672,7.3791,7.5587,7.828,8.208,8.4773,8.7137,8.9292,9.2045,9.4259,9.5456,9.6593,9.7281,9.7281,9.7281,9.6743,9.5456,9.4888,9.4513,9.4281,9.5076,9.5946,9.6767,9.8512,9.9576,9.9823,10.0102,10.0308,10.0308,10.0308,10.0308,10.0308,10.0308,10.0209,10.001,9.9314,9.8917,9.8652,9.7194,9.6266,9.567,9.4941,9.4179,9.3418,9.2523,9.1463,9.0403,8.9475,8.878,8.8184,8.7488,8.7157,8.6892,8.6163,8.5434,8.4738,8.4175,8.4937,8.5865,8.5699,8.6328,8.6892,8.6295,8.6726,8.7183,8.6678,8.6977,8.7408,8.7526,8.7493,8.7493,8.7493,8.767,8.7846,8.7846,8.8276,8.862,8.862,8.8903,8.8869,8.8294,8.8734,8.8801,8.8057,8.7313,8.6332,8.4979,8.4708,8.464,8.464,8.464,8.464,8.464,8.464,8.464,8.464,8.464,8.464,8.464,8.464,8.464,6.8046,6.9034,7.0051,7.0051,7.0949,7.1996,7.2684,7.3791,7.4839,7.5557,7.5677,7.5856,7.6455,7.8669,8.1542,8.4863,8.7137,8.9382,9.1955,9.3601,9.4798,9.5516,9.6204,9.6623,9.6623,9.6623,9.6084,9.4768,9.4648,9.3952,9.2534,9.3992,9.5103,9.566,9.7624,9.9053,9.979,10.0102,10.0308,10.0308,10.0308,10.0308,10.0308,10.0308,9.9944,9.9314,9.8585,9.789,9.7161,9.567,9.5041,9.4908,9.4179,9.3418,9.2589,9.1198,9.0602,9.0304,8.8879,8.8349,8.8184,8.7488,8.6825,8.613,8.5401,8.4672,8.4076,8.401,8.4573,8.5037,8.4341,8.5202,8.6288,8.6196,8.6726,8.7375,8.7544,8.7636,8.7787,8.8078,8.8136,8.8136,8.8136,8.8136,8.8136,8.8136,8.8391,8.862,8.862,8.8903,8.9072,8.9004,8.9038,8.8801,8.8057,8.7313,8.6569,8.5757,8.5012,8.464,8.464,8.464,8.464,8.464,8.464,8.464,8.464,8.464,8.464,8.464,8.464,8.464,6.7956,6.8645,6.9482,6.9871,7.1278,7.2804,7.3881,7.5467,7.7023,7.81,7.834,7.8549,7.9178,8.0464,8.2499,8.5761,8.8334,9.0519,9.2344,9.411,9.5306,9.5576,9.6174,9.6414,9.5995,9.5606,9.4977,9.405,9.3212,9.2771,9.2655,9.339,9.437,9.566,9.7341,9.86,9.9409,10.0034,10.0109,9.9679,10.0109,10.0109,9.9679,9.9679,9.9281,9.8552,9.7823,9.7095,9.6333,9.5339,9.4345,9.3418,9.2225,9.1596,9.1231,9.0204,8.9542,8.9078,8.8515,8.8018,8.7554,8.6825,8.6454,8.5964,8.4771,8.4241,8.391,8.3446,8.3513,8.3976,8.507,8.6097,8.6858,8.6858,8.7235,8.7552,8.767,8.7846,8.802,8.8194,8.8194,8.8194,8.8194,8.8367,8.8448,8.8448,8.8733,8.8903,8.8903,8.9016,8.9072,8.9072,8.9072,8.8801,8.8057,8.7313,8.6602,8.5824,8.5046,8.464,8.464,8.464,8.464,8.464,8.464,8.464,8.464,8.464,8.464,8.464,8.464,8.464,6.7358,6.7837,6.8585,6.9453,7.1457,7.3672,7.5407,7.7322,7.9178,8.0734,8.1063,8.1123,8.1362,8.211,8.3701,8.6874,8.9278,9.1262,9.2795,9.4123,9.4821,9.4648,9.5037,9.5127,9.4708,9.4229,9.3691,9.3002,9.2135,9.187,9.2404,9.2893,9.3793,9.5116,9.6653,9.7788,9.8511,9.9134,9.9245,9.895,9.9182,9.9182,9.8917,9.8917,9.8519,9.779,9.7062,9.6333,9.5571,9.461,9.3351,9.1894,9.09,9.037,9.0072,8.9343,8.8747,8.8283,8.8051,8.7521,8.6858,8.6328,8.5865,8.5302,8.4308,8.3844,8.3612,8.3314,8.3248,8.3711,8.5666,8.6362,8.6693,8.7157,8.7493,8.7728,8.7846,8.8136,8.8367,8.8482,8.8482,8.8482,8.8482,8.862,8.879,8.879,8.8959,8.9072,8.9072,8.9072,8.9072,8.9072,8.9072,8.8869,8.8395,8.7685,8.6941,8.6196,8.5418,8.4877,8.464,8.464,8.464,8.464,8.464,8.464,8.464,8.464,8.464,8.464,8.464,8.464,6.6011,6.649,6.7298,6.8645,7.1457,7.4569,7.7203,7.9357,8.1362,8.3367,8.3756,8.3547,8.2918,8.3717,8.547,8.8491,9.007,9.1648,9.3652,9.3539,9.312,9.2698,9.2613,9.2613,9.2613,9.2583,9.2314,9.1656,9.1596,9.1494,9.1359,9.2487,9.3388,9.3906,9.5477,9.6634,9.7069,9.7412,9.7819,9.8155,9.7426,9.7459,9.8155,9.8155,9.7757,9.7028,9.63,9.5571,9.4743,9.3285,9.1828,9.0536,9.0502,9.0039,8.931,8.8581,8.8283,8.8184,8.7521,8.6792,8.6163,8.6163,8.5169,8.401,8.401,8.348,8.3049,8.3778,8.401,8.4341,8.5798,8.5633,8.5467,8.6925,8.7493,8.7787,8.8136,8.8391,8.8733,8.9016,8.9072,8.9072,8.9072,8.9072,8.9072,8.9072,8.9072,8.9072,8.9072,8.9072,8.9072,8.9072,8.9072,8.9072,8.9072,8.8395,8.7685,8.6974,8.6196,8.5452,8.464,8.464,8.464,8.464,8.464,8.464,8.464,8.464,8.464,8.464,8.464,8.464,6.5443,6.5802,6.6729,6.8555,7.1457,7.4569,7.7203,8.0075,8.2858,8.5312,8.5432,8.512,8.525,8.6032,8.731,8.9544,9.1793,9.3524,9.3992,9.4085,9.3895,9.3204,9.2783,9.2613,9.2613,9.2194,9.1835,9.1626,9.0758,9.0489,9.1011,9.1247,9.1979,9.3216,9.4555,9.569,9.6691,9.675,9.6795,9.6631,9.5902,9.5935,9.6631,9.6101,9.5471,9.4776,9.4544,9.4014,9.3219,9.1761,9.09,9.0403,8.9376,8.8846,8.8548,8.7852,8.7587,8.7488,8.6759,8.6362,8.5997,8.497,8.4374,8.391,8.338,8.3082,8.295,8.3148,8.3215,8.3579,8.5037,8.5268,8.5467,8.6925,8.767,8.8078,8.8194,8.8596,8.8959,8.9072,8.9072,8.9072,8.9072,8.9072,8.9072,8.9072,8.9072,8.9072,8.9072,8.9072,8.9072,8.9072,8.9072,8.9072,8.9072,8.8395,8.7922,8.7685,8.6467,8.5452,8.464,8.464,8.464,8.464,8.464,8.464,8.464,8.464,8.464,8.464,8.464,8.4911,6.5144,6.5503,6.661,6.9123,7.2026,7.5318,7.9267,8.232,8.4833,8.6689,8.7117,8.7174,8.7296,8.8211,8.9464,9.1229,9.3226,9.4554,9.4666,9.4419,9.3811,9.2889,9.2308,9.2003,9.1805,9.1237,9.0848,9.0848,8.986,8.9669,9.0445,9.0558,9.1207,9.2526,9.335,9.4214,9.518,9.5038,9.4914,9.4676,9.3948,9.3683,9.3848,9.4279,9.4047,9.3318,9.2755,9.2059,9.1331,9.0436,8.9906,8.9542,8.8647,8.815,8.7819,8.709,8.6825,8.6726,8.5997,8.5567,8.5169,8.4275,8.3811,8.348,8.3049,8.2883,8.2883,8.2883,8.2883,8.3248,8.4738,8.5103,8.5467,8.6925,8.7728,8.8194,8.8194,8.871,8.9072,8.9072,8.9072,8.9072,8.9072,8.9072,8.9072,8.9072,8.9072,8.9072,8.9072,8.9072,8.9072,8.9072,8.9072,8.9072,8.9072,8.8666,8.8294,8.8023,8.7177,8.6196,8.5114,8.4776,8.464,8.464,8.464,8.464,8.464,8.464,8.4776,8.508,8.508,8.5486,6.5024,6.5592,6.6969,7.026,7.3313,7.6963,8.2559,8.5312,8.6898,8.7646,8.8707,8.9429,8.9299,9.0282,9.1731,9.349,9.444,9.5063,9.5419,9.4446,9.3228,9.1952,9.1445,9.0984,9.0459,8.992,8.9591,8.9591,8.8984,8.8888,8.9736,9.0087,9.076,9.1753,9.1895,9.2263,9.2995,9.2678,9.248,9.249,9.1728,9.1032,9.0502,9.249,9.302,9.2324,9.0999,9.0039,8.9409,8.9343,8.8912,8.8283,8.8184,8.772,8.709,8.6362,8.6063,8.5964,8.5268,8.4573,8.401,8.391,8.3446,8.2883,8.2883,8.2883,8.2883,8.2883,8.2883,8.3248,8.4738,8.5103,8.5525,8.6984,8.7787,8.8194,8.8194,8.871,8.9072,8.9072,8.9072,8.9072,8.9072,8.9072,8.9072,8.9072,8.9072,8.9106,8.9173,8.9173,8.9207,8.9275,8.9241,8.9173,8.9173,8.9106,8.8801,8.8125,8.8023,8.738,8.6027,8.5182,8.4708,8.464,8.464,8.4674,8.4742,8.4742,8.5114,8.5892,8.5892,8.6298,6.5024,6.6251,6.8345,7.1667,7.6425,8.1033,8.3846,8.5641,8.7018,8.8215,8.9611,9.0727,9.1337,9.298,9.443,9.4851,9.6077,9.6503,9.5112,9.3836,9.2549,9.0996,9.0183,8.957,8.9194,8.8993,8.8903,8.8903,8.8116,8.7978,8.8759,8.8452,8.8773,8.9883,9.0507,9.1064,9.1531,9.124,9.1034,9.0966,9.0237,8.9807,8.9674,9.0138,9.0271,9.0105,8.9774,8.9575,8.9376,8.878,8.8449,8.8184,8.7057,8.6527,8.6328,8.56,8.5335,8.5235,8.4506,8.4142,8.391,8.3314,8.3016,8.2883,8.2883,8.2883,8.2883,8.2883,8.2883,8.3248,8.4738,8.5276,8.5782,8.7245,8.7904,8.8194,8.8194,8.871,8.9072,8.9072,8.9072,8.9072,8.9072,8.9072,8.9072,8.9072,8.9072,8.9309,8.9884,8.9951,9.0188,9.0763,9.0324,8.9951,8.9951,8.941,8.9004,8.8869,8.8294,8.7854,8.755,8.623,8.5249,8.464,8.464,8.4911,8.552,8.552,8.5926,8.667,8.667,8.7076,6.5413,6.6939,6.9542,7.4121,7.8789,8.2679,8.4325,8.5492,8.6599,8.7945,8.958,9.096,9.1793,9.3599,9.513,9.5742,9.6528,9.6729,9.5671,9.4237,9.272,9.1269,9.0204,8.9359,8.8775,8.8095,8.7736,8.7736,8.6904,8.6742,8.7812,8.7544,8.7972,8.9349,8.9439,8.97,9.0293,8.9928,8.9647,8.9442,8.9078,8.8714,8.8415,8.8747,8.8879,8.8879,8.8548,8.8184,8.7852,8.7455,8.709,8.6693,8.5964,8.5666,8.5567,8.4838,8.4573,8.4473,8.3745,8.348,8.3413,8.3016,8.2883,8.2883,8.2883,8.2883,8.2883,8.2883,8.2883,8.3205,8.4446,8.515,8.5854,8.7103,8.7926,8.8391,8.8391,8.8733,8.9072,8.9072,8.9072,8.9072,8.9072,8.9072,8.9072,8.9072,8.9072,8.9342,9.0121,9.0222,9.0493,9.1203,9.0966,9.0594,9.0256,8.985,8.9478,8.9106,8.8734,8.8361,8.8023,8.7245,8.6501,8.5723,8.5351,8.5554,8.6332,8.6332,8.6704,8.7448,8.7448,8.782,6.5802,6.7986,7.1308,7.6634,8.0405,8.3068,8.4265,8.5043,8.5851,8.6958,8.8941,9.0757,9.1623,9.3416,9.5025,9.6088,9.6096,9.6031,9.5962,9.4346,9.2698,9.1588,9.0387,8.9286,8.8346,8.7247,8.6449,8.6329,8.5568,8.5652,8.6743,8.6917,8.7613,8.9022,8.86,8.8505,8.8912,8.8634,8.8283,8.7952,8.7952,8.7587,8.6925,8.7488,8.7819,8.7919,8.7322,8.666,8.5997,8.5997,8.5633,8.5103,8.497,8.4904,8.4838,8.4076,8.3811,8.3711,8.3115,8.2883,8.2883,8.2883,8.2883,8.2883,8.2883,8.2883,8.2883,8.2883,8.2883,8.3105,8.4142,8.4987,8.5868,8.6888,8.7968,8.8677,8.862,8.8847,8.9072,8.9072,8.9072,8.9072,8.9072,8.9072,8.914,8.9241,8.9275,8.9579,9.0493,9.0594,9.0865,9.1609,9.1575,9.1203,9.0459,9.029,8.9884,8.914,8.9072,8.8801,8.8226,8.8057,8.7786,8.7279,8.6433,8.6332,8.711,8.711,8.7482,8.8192,8.8192,8.8497,6.5652,6.9961,7.4839,7.7891,8.0734,8.2948,8.3696,8.4384,8.4893,8.5073,8.784,9.0621,9.1989,9.3623,9.4858,9.5097,9.4611,9.4018,9.3682,9.2307,9.1109,9.0533,8.9466,8.8177,8.6777,8.6176,8.5581,8.5013,8.4744,8.4919,8.5658,8.6131,8.6813,8.7632,8.8177,8.7962,8.7051,8.7013,8.6798,8.6461,8.6461,8.6097,8.5401,8.55,8.5865,8.6461,8.6362,8.5898,8.5268,8.5268,8.5202,8.5037,8.4407,8.4142,8.4076,8.3314,8.3049,8.3016,8.2916,8.2883,8.2883,8.2883,8.2883,8.2883,8.2883,8.2883,8.2883,8.2883,8.2883,8.3105,8.4142,8.5157,8.6208,8.7172,8.8251,8.8959,8.8677,8.8847,8.9072,8.9072,8.9072,8.9072,8.9072,8.9072,8.9309,8.9951,9.0053,9.056,9.1947,9.2116,9.2421,9.3199,9.2658,9.1947,9.1203,9.056,8.9884,8.914,8.9072,8.9038,8.8937,8.8328,8.826,8.8767,8.7448,8.711,8.7854,8.7854,8.8226,8.8937,8.8937,8.9004,6.7029,7.0679,7.442,7.7023,7.9686,8.1841,8.2499,8.2858,8.3158,8.3547,8.5289,8.7336,8.9327,9.1238,9.2632,9.3023,9.3001,9.2906,9.2906,9.166,9.0538,9.0112,8.8718,8.7279,8.6167,8.4859,8.3936,8.3636,8.3499,8.3798,8.466,8.5123,8.5792,8.6743,8.6638,8.6336,8.5795,8.5795,8.5689,8.5567,8.5567,8.5401,8.5103,8.5103,8.5268,8.5567,8.5567,8.5169,8.4473,8.4473,8.4241,8.3844,8.3513,8.338,8.3347,8.3016,8.2883,8.2883,8.2883,8.2883,8.2883,8.2883,8.2883,8.2883,8.2883,8.2883,8.2883,8.2883,8.2883,8.3162,8.4344,8.5359,8.6321,8.7542,8.8453,8.9072,8.8903,8.9016,8.9072,8.9072,8.9072,8.9072,8.9072,8.9444,8.9816,9.0154,9.056,9.1203,9.2286,9.2421,9.2725,9.3503,9.3267,9.2759,9.1981,9.1237,9.0493,8.9748,8.9309,8.9072,8.9072,8.8767,8.8767,8.9072,8.8057,8.7888,8.8598,8.8598,8.8767,8.9072,8.9072,8.9072,6.7418,7.0171,7.2834,7.5647,7.8071,8.0045,8.1063,8.1272,8.1482,8.211,8.2859,8.3947,8.5996,8.826,9.0116,9.0736,9.1041,9.137,9.2057,9.0997,9.0107,9.0042,8.8316,8.6699,8.5651,8.3763,8.259,8.226,8.2256,8.264,8.3538,8.3985,8.4691,8.5706,8.5255,8.4887,8.4838,8.4838,8.4738,8.454,8.4738,8.4738,8.454,8.454,8.454,8.4573,8.4738,8.4407,8.3711,8.3711,8.3413,8.2883,8.2883,8.2883,8.2883,8.2883,8.2883,8.2883,8.2883,8.2883,8.2883,8.2883,8.2883,8.2883,8.2883,8.2883,8.2883,8.2883,8.3049,8.3427,8.4578,8.5583,8.6556,8.7743,8.8564,8.9072,8.9072,8.9072,8.9072,8.9072,8.9072,8.914,8.9342,8.985,9.0357,9.0729,9.1237,9.1846,9.2624,9.2725,9.2928,9.3537,9.3571,9.3267,9.2489,9.1711,9.1,9.0256,8.9512,8.9072,8.9072,8.9072,8.9072,8.9072,8.8564,8.8531,8.9072,8.9072,8.9072,8.9072,8.9072,8.9072,6.5622,6.8106,7.0919,7.418,7.6006,7.7532,7.9477,7.9926,8.0105,8.0764,8.1282,8.1795,8.2622,8.5595,8.808,8.8602,8.8375,8.8728,9.0517,8.9771,8.9389,9.0363,8.852,8.6535,8.4723,8.3213,8.1914,8.0943,8.1316,8.1717,8.2068,8.2837,8.3568,8.4168,8.4459,8.4448,8.4076,8.4076,8.3711,8.3016,8.3711,8.3678,8.3016,8.3016,8.3016,8.3049,8.3745,8.3645,8.295,8.295,8.2916,8.2883,8.2883,8.2883,8.2883,8.2883,8.2883,8.2883,8.2883,8.2883,8.2883,8.2883,8.2883,8.2883,8.2883,8.2883,8.2883,8.2883,8.3413,8.4058,8.4712,8.5951,8.7193,8.7878,8.8564,8.9072,8.9072,8.9072,8.9072,8.9072,8.9072,8.9309,9.0019,9.0188,9.0696,9.2116,9.2353,9.2658,9.3436,9.3537,9.3537,9.3571,9.3571,9.3267,9.2489,9.1711,9.1,9.0256,8.9512,8.9072,8.9072,8.9072,8.9072,8.9072,8.9038,8.9038,8.9072,8.9072,8.9072,8.9072,8.9072,8.9072,6.4186,6.6041,6.8226,7.1517,7.3642,7.5347,7.6963,7.7622,7.7951,7.819,7.8651,7.919,7.9545,8.2598,8.5453,8.6614,8.682,8.7438,8.8982,8.8665,8.8409,8.8764,8.731,8.5623,8.4072,8.2356,8.1033,8.0195,8.0373,8.0662,8.1051,8.1688,8.2389,8.3052,8.3125,8.3202,8.3281,8.3281,8.3148,8.2883,8.3181,8.3148,8.2883,8.2883,8.2883,8.2916,8.3181,8.3148,8.2883,8.2883,8.2883,8.2883,8.2883,8.2883,8.2883,8.2883,8.2883,8.2883,8.2883,8.2883,8.2883,8.2883,8.2883,8.2883,8.2883,8.2883,8.2883,8.2883,8.3446,8.4223,8.537,8.6319,8.7361,8.8453,8.8903,8.9072,8.9072,8.9072,8.9072,8.9072,8.9072,8.9309,9.0087,9.0594,9.1237,9.2286,9.2861,9.3267,9.3537,9.3571,9.3571,9.3571,9.3571,9.347,9.3199,9.2455,9.1711,9.0966,9.0222,8.9579,8.9106,8.9072,8.9072,8.9072,8.9072,8.9072,8.9072,8.9072,8.9072,8.9072,8.9072,8.9342,6.263,6.4156,6.5951,6.8615,7.0769,7.2595,7.3941,7.4899,7.5647,7.6096,7.6694,7.7324,7.7711,7.9873,8.2079,8.3774,8.4466,8.5439,8.7102,8.7041,8.7046,8.766,8.6434,8.5018,8.3587,8.1924,8.0568,7.9767,7.9494,7.9542,7.9934,8.0378,8.1091,8.2005,8.2221,8.2543,8.2713,8.2827,8.2883,8.2883,8.2883,8.2883,8.2883,8.2883,8.2883,8.2883,8.2883,8.2883,8.2883,8.2883,8.2883,8.2883,8.2883,8.2883,8.2883,8.2883,8.2883,8.2883,8.2883,8.2883,8.2883,8.2883,8.2883,8.2883,8.2883,8.2883,8.2883,8.2883,8.3669,8.4727,8.5738,8.6858,8.8014,8.8914,8.9072,8.9072,8.9072,8.9072,8.9072,8.9072,8.9275,8.9681,9.0425,9.1169,9.1947,9.2692,9.3267,9.3571,9.3571,9.3571,9.3571,9.3571,9.3571,9.3571,9.3571,9.2861,9.2116,9.1338,9.0628,8.9884,8.9106,8.9342,8.9342,8.9072,8.9579,8.9715,8.9444,8.9207,8.9207,8.9444,8.9444,8.985,0.0,0.0,0.0,6.5592,6.7448,6.9243,7.05,7.1816,7.3163,7.448,7.5318,7.6115,7.7093,7.7283,7.7973,8.0088,8.1091,8.2429,8.4851,8.4951,8.5373,8.7082,8.6146,8.4719,8.3213,8.187,8.0601,7.9505,7.876,7.8556,7.8881,7.8971,7.9637,8.0933,8.1876,8.2395,8.2395,8.2713,8.2883,8.2883,8.2883,8.2883,8.2883,8.2883,8.2883,8.2883,8.2883,8.2883,8.2883,8.2883,8.2883,8.2883,8.2883,8.2883,8.2883,8.2883,8.2883,8.2883,8.2883,8.2883,8.2883,8.2883,8.2883,8.2883,8.2883,8.2883,8.2883,8.2883,8.4171,8.5587,8.5961,8.7543,8.9072,8.9072,8.9072,8.9072,8.9072,8.9072,8.9072,8.9072,8.9681,9.0425,9.1169,9.1913,9.2692,9.347,9.3571,9.3571,9.3571,9.3571,9.3571,9.3571,9.3571,9.3571,9.3571,9.2895,9.215,9.1372,9.0662,8.9918,8.9173,8.985,8.9884,8.9173,9.056,9.0966,9.0256,8.9512,8.9512,9.0256,9.0256,9.0662,6.0176,0.0,0.0,0.0,0.0,0.0,6.7897,6.9123,7.044,7.1727,7.2535,7.326,7.4016,7.4699,7.5473,7.634,7.856,8.0666,8.2079,8.3067,8.3802,8.4314,8.4668,8.4345,8.2862,8.2135,8.1224,7.983,7.8901,7.8347,7.8202,7.8701,7.9508,8.0601,8.1349,8.1934,8.2395,8.2452,8.2656,8.2883,8.2883,8.2883,8.2883,8.2883,8.2883,8.2883,8.2883,8.2883,8.2883,8.2883,8.2883,8.2883,8.2883,8.2883,8.2883,8.2883,8.2883,8.2883,8.2883,8.2883,8.2883,8.2883,8.2883,8.2883,8.2883,8.2883,8.2883,8.2883,8.4034,8.5567,8.7209,8.8317,8.9072,8.9072,8.9072,8.9072,8.9072,8.9072,8.9072,8.9072,8.9681,9.0425,9.1169,9.1913,9.2692,9.347,9.3571,9.3571,9.3571,9.3571,9.3571,9.3571,9.3571,9.3571,9.3571,9.3402,9.2928,9.215,9.1913,9.1474,9.0696,9.0899,9.0899,9.0696,9.1102,9.1203,9.1,9.0797,9.0797,9.1,9.1541,9.1913,5.9907,6.0655,6.1433,6.2091,0.0,0.0,6.4874,6.6191,6.7717,6.9004,7.0021,7.0979,7.1906,7.2793,7.3443,7.3642,7.5795,7.8041,7.975,8.0707,8.1473,8.2047,8.278,8.2842,8.1833,8.16,8.0901,7.9636,7.8612,7.7775,7.7311,7.7844,7.8628,7.9627,8.0421,8.123,8.1992,8.228,8.26,8.2883,8.2883,8.2883,8.2883,8.2883,8.2883,8.2883,8.2883,8.2883,8.2883,8.2883,8.2883,8.2883,8.2883,8.2883,8.2883,8.2883,8.2883,8.2883,8.2883,8.2883,8.2883,8.2883,8.2883,8.2883,8.2883,8.2883,8.2883,8.2883,8.4058,8.5724,8.7711,8.8506,8.8903,8.8903,8.9016,8.9072,8.9072,8.9072,8.9072,8.9072,8.9918,9.0797,9.1237,9.2184,9.3064,9.3503,9.3571,9.3571,9.3571,9.3571,9.3571,9.3571,9.3571,9.3571,9.3571,9.3571,9.3267,9.2489,9.2421,9.2083,9.1338,9.1609,9.1609,9.1305,9.1609,9.1778,9.1778,9.144,9.1474,9.1778,9.2556,9.2895,6.0027,6.0266,6.0446,6.0984,6.1613,0.0,6.2002,6.3408,6.5084,6.64,6.7657,6.8944,7.0231,7.1009,7.1487,7.1547,7.292,7.4941,7.7671,7.8243,7.8847,8.0094,8.0674,8.0802,8.0509,8.0509,8.0051,7.9084,7.8102,7.7227,7.6584,7.6853,7.7411,7.8375,7.9379,8.0267,8.1251,8.1959,8.2452,8.2727,8.285,8.2883,8.2883,8.2883,8.2883,8.2883,8.2883,8.2883,8.2883,8.2883,8.2883,8.2883,8.2883,8.2883,8.2883,8.2883,8.2883,8.2883,8.2883,8.2883,8.2883,8.2883,8.2883,8.2883,8.2883,8.2883,8.2916,8.3115,8.4271,8.5921,8.7677,8.8334,8.862,8.862,8.8847,8.9072,8.9072,8.9072,8.9072,8.9072,9.0222,9.1203,9.1271,9.2489,9.347,9.3571,9.3571,9.3571,9.3571,9.3571,9.3571,9.3571,9.3571,9.3571,9.3571,9.3571,9.33,9.259,9.2556,9.2252,9.1575,9.2184,9.2218,9.1575,9.2218,9.2522,9.2421,9.1846,9.188,9.2556,9.3267,9.3571,6.0894,6.1313,6.1613,6.1224,6.1613,0.0,6.1433,6.2002,6.3019,6.4306,6.5233,6.6191,6.7508,6.8286,6.8914,6.9482,7.0714,7.2445,7.4844,7.6629,7.7765,7.8088,7.918,7.9853,7.9818,7.9818,7.9685,7.9419,7.8468,7.7591,7.6915,7.6985,7.7377,7.8056,7.8565,7.9094,7.9823,8.1056,8.1672,8.1685,8.2505,8.2883,8.2883,8.2883,8.2883,8.2883,8.2883,8.2883,8.2883,8.2883,8.2883,8.2883,8.2883,8.2883,8.2883,8.2883,8.2883,8.2883,8.2883,8.2883,8.2883,8.2883,8.2883,8.2883,8.2883,8.2883,8.3148,8.4341,8.5068,8.583,8.7387,8.8219,8.862,8.862,8.8847,8.9072,8.9072,8.9072,8.9072,8.9072,8.9816,9.0594,9.1203,9.2049,9.2861,9.347,9.3571,9.3571,9.3571,9.3571,9.3571,9.3571,9.3571,9.3571,9.3571,9.3571,9.3503,9.3368,9.3368,9.33,9.3131,9.3267,9.33,9.3131,9.3267,9.3064,9.2421,9.2895,9.3199,9.3368,9.3503,9.3571,6.2391,6.2091,6.1672,6.2002,6.1583,0.0,0.0,6.0864,6.1373,6.2361,6.3109,6.3857,6.4844,6.5562,6.6221,6.6909,6.8375,6.9965,7.1508,7.3732,7.5237,7.5438,7.6243,7.6976,7.7477,7.7706,7.8092,7.8695,7.8285,7.7879,7.7538,7.7181,7.7246,7.7765,7.7743,7.8186,7.912,7.9951,8.0575,8.0903,8.1513,8.179,8.1823,8.2188,8.2353,8.2353,8.2751,8.2883,8.2883,8.2883,8.2883,8.2883,8.2883,8.2883,8.2883,8.2883,8.2883,8.2883,8.2883,8.2883,8.2883,8.2883,8.2883,8.2883,8.2883,8.3148,8.3678,8.4805,8.5451,8.6098,8.7227,8.7962,8.8391,8.8391,8.8733,8.9072,8.9072,8.9072,8.9072,8.9072,8.9376,8.9884,9.0628,9.1677,9.2556,9.2928,9.3334,9.3571,9.3571,9.3571,9.3571,9.3571,9.3571,9.3571,9.3571,9.3571,9.3571,9.3571,9.3571,9.3571,9.3571,9.3571,9.3402,9.2996,9.3402,9.3199,9.2421,9.3199,9.3571,9.3571,9.3571,9.3571,6.3947,6.3049,6.2091,6.3019,6.1852,6.0446,0.0,0.0,0.0,6.0775,6.1343,6.1912,6.257,6.3109,6.3707,6.4515,6.6101,6.7478,6.8315,7.035,7.2068,7.2841,7.332,7.395,7.4855,7.5433,7.6258,7.7458,7.7681,7.7871,7.7996,7.7359,7.7101,7.7385,7.7086,7.7339,7.8283,7.8933,7.948,8.0,8.0465,8.0697,8.0697,8.1293,8.1658,8.1823,8.2419,8.2784,8.2883,8.2883,8.2883,8.2883,8.2883,8.2883,8.2883,8.2883,8.2883,8.2883,8.2883,8.2883,8.2883,8.2883,8.2883,8.2883,8.2883,8.3314,8.3976,8.4871,8.5533,8.6221,8.7176,8.7787,8.8194,8.8252,8.871,8.9072,8.9072,8.9072,8.9072,8.9072,8.9072,8.9309,9.0087,9.1203,9.2049,9.2184,9.2861,9.3368,9.3368,9.347,9.3571,9.3571,9.3571,9.3571,9.3571,9.3571,9.3571,9.3571,9.3571,9.3571,9.3571,9.3571,9.3199,9.2455,9.3199,9.3199,9.2421,9.3199,9.3571,9.3571,9.3571,9.3571,6.5024,6.4755,6.4485,6.4006,6.2869,6.1702,6.1134,0.0,5.9398,6.0057,0.0,6.0535,6.1194,0.0,0.0,6.3109,6.3947,6.4904,6.6161,6.7119,6.8525,7.0924,7.1768,7.2289,7.2802,7.4225,7.5299,7.5773,7.6588,7.7365,7.7965,7.7274,7.6994,7.7023,7.6682,7.6395,7.6222,7.8072,7.8909,7.8878,8.0091,8.0697,8.0697,8.0763,8.1161,8.179,8.1889,8.2287,8.2883,8.2883,8.2883,8.2883,8.2883,8.2883,8.2883,8.2883,8.2883,8.2883,8.2883,8.2883,8.2883,8.2883,8.2883,8.2883,8.2883,8.295,8.3314,8.4705,8.5169,8.5592,8.7245,8.7904,8.8252,8.8506,8.8847,8.9072,8.9072,8.9072,8.9072,8.9072,8.9072,8.9309,9.0087,9.0357,9.0696,9.1338,9.2083,9.2556,9.2556,9.3165,9.3571,9.3571,9.3571,9.3571,9.3571,9.3571,9.3571,9.3571,9.3571,9.3571,9.3571,9.3571,9.3199,9.2455,9.3199,9.3199,9.2421,9.3199,9.3571,9.3571,9.3571,9.3571,6.6251,6.5592,6.4964,6.4665,6.3348,6.2032,6.1732,6.0625,5.9877,6.0535,0.0,0.0,0.0,0.0,0.0,0.0,6.1882,6.266,6.3588,6.4306,6.5682,6.8315,6.8884,6.9426,7.0363,7.2159,7.3468,7.3972,7.4962,7.5974,7.7033,7.6751,7.6788,7.7239,7.6698,7.6374,7.6387,7.7403,7.7949,7.8068,7.9001,7.9438,7.9438,7.9869,8.0465,8.1194,8.1591,8.2221,8.2883,8.2883,8.2883,8.2883,8.2883,8.2883,8.2883,8.2883,8.2883,8.2883,8.2883,8.2883,8.2883,8.2883,8.2883,8.2883,8.2883,8.3215,8.3778,8.4805,8.5401,8.6023,8.7168,8.7846,8.8252,8.8367,8.8733,8.9072,8.9072,8.9072,8.9072,8.9072,8.9072,8.9173,8.9512,8.9918,9.0324,9.0628,9.1305,9.1778,9.1778,9.2421,9.2895,9.2895,9.33,9.3571,9.3571,9.3571,9.3571,9.3571,9.3571,9.3571,9.3571,9.3571,9.3436,9.3098,9.3402,9.3436,9.3098,9.3436,9.3571,9.3571,9.3571,9.3571,6.7268,6.643,6.5533,6.5353,6.3947,6.254,6.2181,6.1343,6.0775,6.1283,6.0984,0.0,0.0,0.0,5.9578,6.0266,0.0,6.1074,6.1732,6.2241,6.3378,6.5652,6.6221,6.6969,6.8315,6.987,7.1041,7.1568,7.2637,7.3823,7.5111,7.5569,7.6073,7.6712,7.6505,7.6395,7.6513,7.6977,7.7334,7.761,7.8242,7.8511,7.8544,7.9074,7.9703,8.0432,8.1161,8.1923,8.2618,8.2817,8.2883,8.2883,8.2883,8.2883,8.2883,8.2883,8.2883,8.2883,8.2883,8.2883,8.2883,8.2883,8.2883,8.2883,8.2883,8.3281,8.3844,8.4606,8.5335,8.6122,8.691,8.7654,8.8194,8.831,8.8677,8.9072,8.9072,8.9072,8.9072,8.9072,8.9072,8.9072,8.9072,8.9545,8.9918,8.9918,9.0527,9.1068,9.1271,9.1947,9.2489,9.2725,9.3233,9.3571,9.3571,9.3571,9.3571,9.3571,9.3571,9.3571,9.3571,9.3571,9.3571,9.3571,9.3571,9.3571,9.3571,9.3571,9.3571,9.3571,9.3571,9.3571,6.7989,6.7448,6.6759,6.6131,6.4964,6.3617,6.2391,6.2061,6.2032,6.2061,6.2061,6.2032,6.2032,6.0954,6.0266,6.0954,6.0535,0.0,0.0,6.1164,6.1672,6.3049,6.4306,6.5592,6.6939,6.7395,6.7789,6.8121,6.9329,7.0661,7.2058,7.3565,7.4521,7.4956,7.5835,7.6124,7.5835,7.6751,7.7334,7.761,7.8242,7.8511,7.8511,7.8544,7.8974,7.9703,8.0432,8.1128,8.1889,8.2618,8.2883,8.2883,8.2883,8.2883,8.2883,8.2883,8.2883,8.2883,8.2883,8.2883,8.2883,8.2883,8.2883,8.2883,8.2883,8.2916,8.3082,8.3844,8.4573,8.536,8.6347,8.7428,8.8252,8.8506,8.8847,8.9072,8.9072,8.9072,8.9072,8.9072,8.9072,8.9072,8.9072,8.9106,8.9106,8.9106,8.9748,9.0493,9.1203,9.1947,9.2725,9.347,9.3571,9.3571,9.3571,9.3571,9.3571,9.3571,9.3571,9.3571,9.3571,9.3571,9.3571,9.3571,9.3571,9.3571,9.3571,9.3571,9.3571,9.3571,9.3571,9.3571,6.8764,6.8495,6.8046,6.6939,6.5652,6.4575,6.4126,6.3378,6.2989,6.3857,6.3348,6.275,6.275,6.1672,6.0685,6.0475,6.0236,6.0027,0.0,5.9787,6.0116,6.0984,6.266,6.4066,6.4934,6.5143,6.529,6.5644,6.6323,6.7457,6.9205,7.0788,7.2521,7.4458,7.5385,7.6152,7.6718,7.7477,7.7862,7.7971,7.8296,7.8511,7.8511,7.8511,7.8941,7.9583,7.9869,8.0664,8.1823,8.2055,8.2453,8.2883,8.2883,8.2883,8.2883,8.2883,8.2883,8.2883,8.2883,8.2883,8.2883,8.2883,8.2883,8.2883,8.2883,8.2883,8.3049,8.3811,8.454,8.5268,8.6081,8.722,8.8194,8.831,8.8733,8.9072,8.9072,8.9072,8.9072,8.9072,8.9072,8.9072,8.9072,8.9478,8.9647,8.914,8.9715,9.029,9.056,9.1643,9.2522,9.2793,9.3267,9.3571,9.3571,9.3571,9.3571,9.3571,9.4045,9.4315,9.4315,9.4789,9.506,9.506,9.506,9.506,9.5026,9.4552,9.4315,9.4315,9.3808,9.3571,6.9662,6.9333,6.8854,6.8196,6.7059,6.5951,6.5473,6.4904,6.4635,6.5263,6.4695,6.4036,6.3827,6.269,6.1583,0.0,0.0,5.9847,0.0,5.9099,5.9338,5.9997,6.1433,6.254,6.2929,6.3169,6.3344,6.3276,6.3927,6.4907,6.6246,6.8551,7.0725,7.2653,7.4477,7.5764,7.6642,7.7511,7.7971,7.8079,7.835,7.8511,7.8511,7.8511,7.8776,7.9239,7.9504,8.0299,8.1426,8.1691,8.2221,8.2883,8.2883,8.2883,8.2883,8.2883,8.2883,8.2883,8.2883,8.2883,8.2883,8.2883,8.2883,8.2883,8.2883,8.2883,8.2983,8.348,8.4142,8.4871,8.5741,8.6912,8.7917,8.8243,8.8733,8.9072,8.9072,8.9072,8.9072,8.9072,8.9072,8.9072,8.9072,8.9715,9.0053,8.9545,9.0121,9.0696,9.0966,9.1812,9.2522,9.2793,9.33,9.3571,9.3571,9.3842,9.3977,9.3977,9.4687,9.5093,9.5093,9.5533,9.5804,9.5804,9.5804,9.5804,9.5804,9.533,9.4958,9.4687,9.4214,9.3842]}]]